[[{"header":{"parameterUnit":"m.s-1","parameterCategory":1,"la1":30.6,"la2":29.2853,"lo1":-89.7004,"lo2":-87.6739,"dy":0.0162,"dx":0.0183,"nx":112,"ny":82,"refTime":"2023-04-22T18:00:00:Z","depth":0,"parameterNumber":2,"parameterNumberName":"U-component_of_WINDS"},"data":[0.0,0.0,0.0,0.0,0.0,0.0,0.0,0.0,0.0,0.0,0.0,0.0,0.0,0.0,0.0,0.0,0.0,0.0,0.0,0.0,0.0,0.0,0.0,0.0,0.0,0.0,0.0,0.0,0.0,0.0,0.0,0.0,0.0,0.0,0.0,0.0,0.0,0.0,0.0,0.0,0.0,0.0,0.0,0.0,0.0,0.0,0.0,0.0,0.0,0.0,0.0,0.0,0.0,0.0,0.0,0.0,0.0,0.0,0.0,0.0,0.0,0.0,0.0,0.0,0.0,0.0,0.0,0.0,0.0,0.0,0.0,0.0,0.0,0.0,0.0,0.0,0.0,0.0,0.0,0.0,0.0,0.0,0.0,0.0,0.0,0.0,0.0,0.0,0.0,0.0,0.0,3.1371,3.4509,3.5936,3.4761,3.3844,3.2288,2.9727,0.0,0.0,0.0,0.0,0.0,0.0,0.0,0.0,0.0,0.0,0.0,0.0,0.0,0.0,0.0,0.0,0.0,0.0,0.0,0.0,0.0,0.0,0.0,0.0,0.0,0.0,0.0,0.0,0.0,0.0,0.0,0.0,0.0,0.0,0.0,0.0,0.0,0.0,0.0,0.0,0.0,0.0,0.0,0.0,0.0,0.0,0.0,0.0,0.0,0.0,0.0,0.0,0.0,0.0,0.0,0.0,0.0,0.0,0.0,0.0,0.0,0.0,0.0,0.0,0.0,0.0,0.0,0.0,0.0,0.0,0.0,0.0,0.0,0.0,0.0,0.0,0.0,0.0,0.0,0.0,0.0,0.0,0.0,0.0,0.0,0.0,0.0,0.0,0.0,0.0,0.0,0.0,0.0,0.0,0.0,0.0,0.0,0.0,0.0,0.0,0.0,0.0,0.0,0.0,3.0767,3.3616,3.4942,3.5575,3.5386,3.3678,3.1738,2.958,0.0,0.0,0.0,0.0,0.0,0.0,0.0,0.0,0.0,0.0,0.0,0.0,0.0,0.0,0.0,0.0,0.0,0.0,0.0,0.0,0.0,0.0,0.0,0.0,0.0,0.0,0.0,0.0,0.0,0.0,0.0,0.0,0.0,0.0,0.0,0.0,0.0,0.0,0.0,0.0,0.0,0.0,0.0,0.0,0.0,0.0,0.0,0.0,0.0,0.0,0.0,0.0,0.0,0.0,0.0,0.0,0.0,0.0,0.0,0.0,0.0,0.0,0.0,0.0,0.0,0.0,0.0,0.0,0.0,0.0,0.0,0.0,0.0,0.0,0.0,0.0,0.0,0.0,0.0,0.0,0.0,0.0,0.0,0.0,0.0,0.0,0.0,0.0,0.0,0.0,0.0,0.0,0.0,0.0,0.0,0.0,0.0,0.0,0.0,0.0,0.0,0.0,0.0,2.9918,3.1241,3.4121,3.5082,3.5519,3.5519,3.332,3.1382,3.0044,2.7781,0.0,0.0,0.0,0.0,0.0,0.0,0.0,0.0,0.0,0.0,0.0,0.0,0.0,0.0,0.0,0.0,0.0,0.0,0.0,0.0,0.0,0.0,0.0,0.0,0.0,0.0,0.0,0.0,0.0,0.0,0.0,0.0,0.0,0.0,0.0,0.0,0.0,0.0,0.0,0.0,0.0,0.0,0.0,0.0,0.0,0.0,0.0,0.0,0.0,0.0,0.0,0.0,0.0,0.0,0.0,0.0,0.0,0.0,0.0,0.0,0.0,0.0,0.0,0.0,0.0,0.0,0.0,0.0,0.0,0.0,0.0,0.0,0.0,0.0,0.0,0.0,0.0,0.0,0.0,0.0,0.0,0.0,0.0,0.0,0.0,0.0,0.0,0.0,0.0,0.0,0.0,0.0,0.0,0.0,0.0,0.0,0.0,0.0,0.0,0.0,0.0,0.0,3.1138,3.194,3.4461,3.519,3.5519,3.5519,3.3035,3.1117,3.0208,2.728,0.0,0.0,0.0,0.0,0.0,0.0,0.0,0.0,0.0,0.0,0.0,0.0,0.0,0.0,0.0,0.0,0.0,0.0,0.0,0.0,0.0,0.0,0.0,0.0,0.0,0.0,0.0,0.0,0.0,0.0,0.0,0.0,0.0,0.0,0.0,0.0,0.0,0.0,0.0,0.0,0.0,0.0,0.0,0.0,0.0,0.0,0.0,0.0,0.0,0.0,0.0,0.0,0.0,0.0,0.0,0.0,0.0,0.0,0.0,0.0,0.0,0.0,0.0,0.0,0.0,0.0,0.0,0.0,0.0,0.0,0.0,0.0,0.0,0.0,0.0,0.0,0.0,0.0,0.0,0.0,0.0,0.0,0.0,0.0,0.0,0.0,0.0,0.0,0.0,0.0,0.0,0.0,0.0,0.0,0.0,0.0,0.0,0.0,0.0,0.0,0.0,0.0,3.273,3.375,3.5254,3.5459,3.5519,3.5519,3.3035,3.0881,2.9473,2.6989,0.0,0.0,0.0,0.0,0.0,0.0,0.0,0.0,0.0,0.0,0.0,0.0,0.0,0.0,0.0,0.0,0.0,0.0,0.0,0.0,0.0,0.0,0.0,0.0,0.0,0.0,0.0,0.0,0.0,0.0,0.0,0.0,0.0,0.0,0.0,0.0,0.0,0.0,0.0,0.0,0.0,0.0,0.0,0.0,0.0,0.0,0.0,0.0,0.0,0.0,0.0,0.0,0.0,0.0,0.0,0.0,0.0,0.0,0.0,0.0,0.0,0.0,0.0,0.0,0.0,0.0,0.0,0.0,0.0,0.0,0.0,0.0,0.0,0.0,0.0,0.0,0.0,0.0,0.0,0.0,0.0,0.0,0.0,0.0,0.0,0.0,0.0,0.0,0.0,0.0,0.0,0.0,0.0,0.0,0.0,0.0,0.0,0.0,0.0,0.0,0.0,0.0,3.2355,3.3517,0.0,3.5519,3.5519,3.5519,3.3035,3.0866,2.9395,0.0,0.0,0.0,0.0,0.0,0.0,0.0,0.0,0.0,0.0,0.0,0.0,0.0,0.0,0.0,0.0,0.0,0.0,0.0,0.0,0.0,0.0,0.0,0.0,0.0,0.0,0.0,0.0,0.0,0.0,0.0,0.0,0.0,0.0,0.0,0.0,0.0,0.0,0.0,0.0,0.0,0.0,0.0,0.0,0.0,0.0,0.0,0.0,0.0,0.0,0.0,0.0,0.0,0.0,0.0,0.0,0.0,0.0,0.0,0.0,0.0,0.0,0.0,0.0,0.0,0.0,0.0,0.0,0.0,0.0,0.0,0.0,0.0,0.0,0.0,0.0,0.0,0.0,0.0,0.0,0.0,0.0,0.0,0.0,0.0,0.0,0.0,0.0,0.0,0.0,0.0,0.0,0.0,0.0,0.0,0.0,0.0,0.0,0.0,0.0,0.0,0.0,3.1799,3.2442,3.3514,0.0,3.5519,3.54,3.519,3.2542,3.0528,2.9692,0.0,0.0,0.0,0.0,0.0,0.0,0.0,0.0,0.0,0.0,0.0,0.0,0.0,0.0,0.0,0.0,0.0,0.0,0.0,0.0,0.0,0.0,0.0,0.0,0.0,0.0,0.0,0.0,0.0,0.0,0.0,0.0,0.0,0.0,0.0,0.0,0.0,0.0,0.0,0.0,0.0,0.0,0.0,0.0,0.0,0.0,0.0,0.0,0.0,0.0,0.0,0.0,0.0,0.0,0.0,0.0,0.0,0.0,0.0,0.0,0.0,0.0,0.0,0.0,0.0,0.0,0.0,0.0,0.0,0.0,0.0,0.0,0.0,0.0,0.0,0.0,0.0,0.0,0.0,0.0,0.0,0.0,0.0,0.0,0.0,0.0,0.0,0.0,0.0,0.0,0.0,0.0,0.0,0.0,0.0,0.0,0.0,0.0,0.0,0.0,0.0,0.0,3.3217,3.347,3.4023,3.537,3.5519,3.522,3.4563,3.1494,2.9855,0.0,0.0,0.0,0.0,0.0,0.0,0.0,0.0,0.0,0.0,0.0,0.0,0.0,0.0,0.0,0.0,0.0,0.0,0.0,0.0,0.0,0.0,0.0,0.0,0.0,0.0,0.0,0.0,0.0,0.0,0.0,0.0,0.0,0.0,0.0,0.0,0.0,0.0,0.0,0.0,0.0,0.0,0.0,0.0,0.0,0.0,0.0,0.0,0.0,0.0,0.0,0.0,0.0,0.0,0.0,0.0,0.0,0.0,0.0,0.0,0.0,0.0,0.0,0.0,0.0,0.0,0.0,0.0,0.0,0.0,0.0,0.0,0.0,0.0,0.0,0.0,0.0,0.0,0.0,0.0,0.0,0.0,0.0,0.0,0.0,0.0,0.0,0.0,0.0,0.0,0.0,0.0,0.0,0.0,0.0,0.0,0.0,0.0,0.0,0.0,0.0,0.0,0.0,3.2654,3.3607,3.4548,3.54,3.5519,3.522,3.4563,3.1883,3.0286,3.0377,0.0,0.0,0.0,0.0,0.0,0.0,0.0,0.0,0.0,0.0,0.0,0.0,0.0,0.0,0.0,0.0,0.0,0.0,0.0,0.0,0.0,0.0,0.0,0.0,0.0,0.0,0.0,0.0,0.0,0.0,0.0,0.0,0.0,0.0,0.0,0.0,0.0,0.0,0.0,0.0,0.0,0.0,0.0,0.0,0.0,0.0,0.0,0.0,0.0,0.0,0.0,0.0,0.0,0.0,0.0,0.0,0.0,0.0,0.0,0.0,0.0,0.0,0.0,0.0,0.0,0.0,0.0,0.0,0.0,0.0,0.0,0.0,0.0,0.0,0.0,0.0,0.0,0.0,0.0,0.0,0.0,0.0,0.0,0.0,0.0,0.0,0.0,0.0,0.0,0.0,0.0,0.0,0.0,0.0,0.0,0.0,0.0,0.0,0.0,0.0,0.0,0.0,3.3186,3.4009,3.4757,3.5429,3.5519,3.522,3.4563,3.2018,3.0488,3.0426,0.0,0.0,0.0,0.0,0.0,0.0,0.0,0.0,0.0,0.0,0.0,0.0,0.0,0.0,0.0,0.0,0.0,0.0,0.0,0.0,0.0,0.0,0.0,0.0,0.0,0.0,0.0,0.0,0.0,0.0,0.0,0.0,0.0,0.0,0.0,0.0,0.0,0.0,0.0,0.0,0.0,0.0,0.0,0.0,0.0,0.0,0.0,0.0,0.0,0.0,0.0,0.0,0.0,0.0,0.0,0.0,0.0,0.0,0.0,0.0,0.0,0.0,0.0,0.0,0.0,0.0,0.0,0.0,0.0,0.0,0.0,0.0,0.0,0.0,0.0,0.0,0.0,0.0,0.0,0.0,0.0,0.0,0.0,0.0,0.0,0.0,0.0,0.0,0.0,0.0,0.0,0.0,0.0,0.0,0.0,0.0,0.0,0.0,0.0,0.0,0.0,0.0,3.4326,3.4548,3.4817,3.5429,3.5519,3.522,3.4563,3.2018,3.0522,3.0582,0.0,0.0,0.0,0.0,0.0,0.0,0.0,0.0,0.0,0.0,0.0,0.0,0.0,0.0,0.0,0.0,0.0,0.0,0.0,0.0,0.0,0.0,0.0,0.0,0.0,0.0,0.0,0.0,0.0,0.0,0.0,0.0,0.0,0.0,0.0,0.0,0.0,0.0,0.0,0.0,0.0,0.0,0.0,0.0,0.0,0.0,0.0,0.0,0.0,0.0,0.0,0.0,0.0,0.0,0.0,0.0,0.0,0.0,0.0,0.0,2.2124,0.0,0.0,0.0,0.0,0.0,0.0,0.0,0.0,0.0,0.0,0.0,0.0,0.0,0.0,0.0,0.0,0.0,0.0,0.0,0.0,0.0,0.0,0.0,0.0,0.0,0.0,0.0,0.0,0.0,0.0,0.0,0.0,0.0,0.0,0.0,0.0,0.0,0.0,0.0,0.0,0.0,3.4384,3.4967,3.534,3.5473,3.5519,3.522,3.4563,3.2018,3.0717,3.1241,0.0,0.0,0.0,0.0,0.0,0.0,0.0,0.0,0.0,0.0,0.0,0.0,0.0,0.0,0.0,0.0,0.0,0.0,0.0,0.0,0.0,0.0,0.0,0.0,0.0,0.0,0.0,0.0,0.0,0.0,0.0,0.0,0.0,0.0,0.0,0.0,0.0,0.0,0.0,0.0,0.0,0.0,0.0,0.0,0.0,0.0,0.0,0.0,0.0,0.0,0.0,0.0,0.0,0.0,0.0,0.0,0.0,0.0,0.0,0.0,0.0,2.3961,0.0,0.0,0.0,0.0,0.0,0.0,0.0,0.0,0.0,0.0,0.0,0.0,0.0,0.0,0.0,0.0,0.0,0.0,0.0,0.0,0.0,0.0,0.0,0.0,0.0,0.0,0.0,0.0,0.0,0.0,0.0,0.0,0.0,0.0,0.0,0.0,0.0,0.0,0.0,0.0,3.5326,3.5054,3.4907,3.5217,3.4566,3.4146,3.4257,3.2143,3.0852,3.1018,2.9146,0.0,0.0,0.0,0.0,0.0,0.0,0.0,0.0,0.0,0.0,0.0,0.0,0.0,0.0,0.0,0.0,0.0,0.0,0.0,0.0,0.0,0.0,0.0,0.0,0.0,0.0,0.0,0.0,0.0,0.0,0.0,0.0,0.0,0.0,0.0,0.0,0.0,0.0,0.0,0.0,0.0,0.0,0.0,0.0,0.0,0.0,0.0,0.0,0.0,0.0,0.0,0.0,0.0,3.3439,3.3814,3.4023,3.4637,3.4502,3.3738,3.1135,2.7735,2.414,0.0,0.0,0.0,0.0,0.0,0.0,0.0,0.0,0.0,0.0,0.0,0.0,0.0,0.0,0.0,0.0,0.0,0.0,0.0,0.0,0.0,0.0,0.0,0.0,0.0,3.3335,3.2841,0.0,0.0,0.0,0.0,0.0,0.0,0.0,0.0,0.0,0.0,0.0,0.0,3.5915,3.4712,3.3985,3.4649,3.3434,3.2964,3.391,3.222,3.1018,3.0854,2.9953,2.874,0.0,0.0,0.0,0.0,0.0,0.0,0.0,0.0,0.0,0.0,0.0,0.0,0.0,0.0,0.0,0.0,0.0,0.0,0.0,0.0,0.0,0.0,0.0,0.0,0.0,0.0,0.0,0.0,0.0,0.0,0.0,0.0,2.2918,2.2558,0.0,0.0,0.0,0.0,0.0,0.0,0.0,0.0,0.0,0.0,0.0,0.0,0.0,3.3095,3.4442,3.519,3.5146,3.4278,3.7135,3.7627,3.6194,3.9068,3.9978,3.9379,3.9517,0.0,2.9325,2.729,0.0,0.0,0.0,0.0,0.0,0.0,0.0,0.0,0.0,0.0,0.0,0.0,0.0,0.0,0.0,0.0,0.0,0.0,0.0,0.0,0.0,0.0,2.9577,3.3437,3.4757,3.4921,0.0,3.3275,3.2538,3.2698,3.2788,0.0,0.0,0.0,0.0,0.0,0.0,0.0,3.4213,3.3388,3.3003,3.3531,3.2988,3.2964,3.391,3.222,3.144,3.2198,3.0043,2.8876,2.9189,2.8274,0.0,0.0,0.0,0.0,0.0,0.0,0.0,0.0,0.0,0.0,0.0,0.0,0.0,0.0,0.0,0.0,0.0,0.0,0.0,0.0,0.0,0.0,0.0,0.0,0.0,0.0,0.0,0.0,0.0,2.271,2.442,2.305,2.5158,2.6453,0.0,0.0,0.0,0.0,0.0,0.0,0.0,0.0,0.0,3.2332,3.4907,3.6553,3.7105,3.8918,4.0056,4.0576,4.1263,4.1511,4.1403,4.208,4.2288,4.2067,4.2689,4.0772,3.6919,3.3148,3.0133,2.7812,0.0,0.0,0.0,0.0,2.9401,2.985,2.9581,2.9029,0.0,0.0,0.0,0.0,0.0,0.0,0.0,0.0,0.0,0.0,0.0,0.0,0.0,3.5544,3.6357,3.6387,3.5775,3.516,3.4536,0.0,3.3954,3.4425,3.4985,0.0,0.0,0.0,0.0,0.0,3.4151,3.332,3.2831,3.3146,3.2171,3.1947,3.3098,3.2083,3.1699,3.2452,3.1076,3.0043,2.9608,2.9052,2.883,0.0,0.0,0.0,0.0,0.0,0.0,0.0,0.0,0.0,0.0,0.0,0.0,0.0,0.0,0.0,0.0,0.0,0.0,0.0,0.0,0.0,0.0,0.0,0.0,0.0,0.0,0.0,0.0,2.3719,2.5576,2.342,2.562,2.732,0.0,0.0,0.0,0.0,0.0,0.0,3.2691,3.4997,3.6344,3.651,3.9397,4.0755,4.0404,4.2722,4.4352,4.5244,4.4244,4.4248,4.5151,4.4137,4.3705,4.377,4.4223,4.3832,4.2531,3.825,3.4562,3.1584,3.136,3.136,3.1629,3.2467,3.2841,3.3006,3.2826,3.2333,3.169,3.1375,0.0,2.9491,3.0253,0.0,0.0,0.0,0.0,3.0754,3.2106,3.41,3.6203,3.7998,3.8422,3.8212,3.7404,3.7225,3.6686,0.0,3.4907,3.5185,3.4928,0.0,0.0,0.0,0.0,3.3263,3.3881,3.3084,3.2481,3.2561,3.1408,3.1055,3.2146,3.1848,3.1842,3.2357,3.1841,3.1017,2.9877,2.9518,2.9265,2.9086,0.0,0.0,0.0,0.0,0.0,0.0,0.0,0.0,0.0,0.0,0.0,0.0,0.0,0.0,0.0,0.0,0.0,0.0,0.0,0.0,0.0,0.0,0.0,0.0,0.0,0.0,0.0,0.0,0.0,2.3472,2.6269,0.0,0.0,0.0,0.0,3.3004,3.4997,3.6164,3.6254,3.9308,4.1343,4.1991,4.5774,4.7155,4.5803,4.7198,4.695,4.5106,4.5032,4.5062,4.5117,4.5043,4.5018,4.5018,4.5065,4.4689,4.3839,4.0554,3.8344,3.6776,3.4292,3.3739,3.4218,3.3664,3.3859,3.4308,3.3664,3.3006,3.2542,3.3155,3.2452,3.1241,3.0658,3.1331,0.0,0.0,3.1764,3.3602,3.4952,3.5862,3.7239,4.0435,4.1194,4.0816,3.9541,3.9242,3.8315,0.0,3.4533,3.4264,3.3359,0.0,3.3026,3.2636,3.2285,3.223,3.2725,3.2008,3.1468,3.1488,3.0954,3.0788,3.122,3.1459,3.1757,3.2108,3.1721,3.1182,3.0478,2.9295,2.9205,3.0372,2.9235,0.0,0.0,0.0,0.0,0.0,0.0,0.0,0.0,0.0,0.0,0.0,0.0,0.0,0.0,0.0,0.0,0.0,0.0,0.0,0.0,0.0,0.0,0.0,0.0,0.0,0.0,0.0,0.0,2.8399,3.054,0.0,3.1225,3.1625,3.2908,3.5253,3.7171,3.8784,4.0039,4.2308,4.3911,4.4578,4.6789,4.7747,4.7217,4.8131,4.8206,4.7464,4.6569,4.6143,4.6089,4.4829,4.4059,4.3776,4.4228,4.4098,4.3487,4.2838,4.1774,4.0475,3.9128,3.8739,3.8948,3.9158,3.9619,4.0068,3.9457,3.9068,3.8619,3.7152,3.6626,3.6221,3.4307,3.3787,3.3665,3.2693,3.3042,3.4149,3.614,3.7574,3.8985,4.0956,4.1403,4.1283,4.0786,4.0092,3.908,3.7507,3.6242,3.531,3.4952,3.412,3.3425,3.3276,3.2944,3.2756,3.2944,3.2676,3.221,3.1482,3.1235,3.1125,3.1198,3.1294,3.1477,3.1746,3.1314,3.0738,3.0082,2.889,2.8698,2.9711,2.8865,2.8999,0.0,0.0,0.0,0.0,0.0,0.0,0.0,0.0,0.0,0.0,0.0,0.0,0.0,0.0,0.0,0.0,0.0,0.0,0.0,0.0,0.0,0.0,0.0,0.0,0.0,0.0,3.0989,3.2114,3.4048,3.524,3.5093,3.5367,3.6586,3.9081,4.0776,4.2536,4.4481,4.5741,4.6625,4.7062,4.8182,4.8351,4.7433,4.8083,4.8082,4.7372,4.6427,4.6002,4.5948,4.4675,4.379,4.3294,4.3804,4.3831,4.3518,4.4041,4.3761,4.2994,4.2587,4.2545,4.278,4.3199,4.3629,4.3808,4.2574,4.1714,4.084,3.8635,3.819,3.8248,3.6496,3.5701,3.5315,3.5004,3.5211,3.5879,3.7438,3.8752,3.9902,4.0699,4.0878,4.082,4.0616,3.9932,3.9187,3.8564,3.7222,3.6062,3.5497,3.463,3.4009,3.4027,3.367,3.3442,3.3621,3.347,3.2939,3.1788,3.1507,3.1291,3.1021,3.1112,3.1186,3.1125,3.1082,3.0758,3.0086,2.9123,2.9106,3.0223,2.9682,2.9867,3.0837,0.0,0.0,0.0,0.0,0.0,0.0,0.0,0.0,0.0,0.0,0.0,0.0,0.0,0.0,0.0,0.0,0.0,0.0,0.0,0.0,0.0,0.0,0.0,2.5837,3.1466,3.5205,3.4274,3.6533,3.8333,3.8728,3.9556,4.1353,4.455,4.5956,4.7479,4.931,4.9502,4.9557,4.9557,5.0243,4.936,4.6784,4.7338,4.6653,4.4665,4.4665,4.464,4.464,4.464,4.4313,4.3815,4.3815,4.3917,4.4045,4.4019,4.4107,4.4256,4.4373,4.4741,4.523,4.523,4.523,4.4876,4.244,4.0442,3.8751,3.7414,3.7016,3.7044,3.7016,3.7023,3.7113,3.782,3.8439,3.888,3.8937,3.9406,3.9869,3.9913,3.9913,3.9719,3.9069,3.8916,3.8708,3.8067,3.7387,3.6442,3.4861,3.4548,3.4583,3.4735,3.4276,0.0,3.4653,3.4226,3.347,3.2369,3.1763,3.1235,3.0663,3.0963,3.0908,3.0238,3.101,3.1209,3.0566,2.9964,3.0415,3.1967,3.1691,3.1527,3.1527,0.0,0.0,0.0,0.0,0.0,0.0,0.0,0.0,0.0,0.0,0.0,0.0,0.0,0.0,0.0,0.0,0.0,0.0,0.0,0.0,0.0,0.0,3.3093,3.2821,3.4726,3.7085,3.9622,4.1254,4.2242,4.2363,4.4188,4.5761,4.6669,4.7839,4.8716,4.9223,4.8704,4.8395,4.8395,4.8167,4.791,4.7561,4.6981,4.6594,4.6421,4.602,4.5819,4.5824,4.5422,4.4945,4.4338,4.3966,4.3613,4.3239,4.2398,4.2631,4.3549,4.4098,4.4191,4.4003,4.4003,4.3698,4.3122,4.2043,4.1296,4.0603,3.944,3.9589,4.0151,3.9754,3.9328,3.9215,4.023,3.9417,3.8567,3.9845,3.9671,3.9297,3.9777,3.9913,3.9858,3.9643,3.9242,3.8861,3.8651,3.8109,3.7413,3.6524,3.5742,3.5395,3.5852,3.5431,0.0,3.5257,3.4477,3.3771,3.347,3.2943,3.2236,3.126,3.1271,3.0922,2.9961,2.9746,2.9542,2.9369,2.8828,2.9057,3.0119,3.133,3.195,0.0,0.0,0.0,0.0,0.0,0.0,0.0,0.0,0.0,0.0,0.0,0.0,0.0,0.0,0.0,0.0,0.0,0.0,0.0,0.0,0.0,0.0,3.47,3.7964,3.9471,3.9772,4.0853,4.3592,4.51,4.5874,4.5874,4.7181,4.815,4.8352,4.8997,4.9383,4.9383,4.888,4.851,4.8284,4.7732,4.7575,4.7908,4.728,4.7129,4.7425,4.7129,4.6853,4.6622,4.6326,4.5623,0.0,4.4263,4.3689,4.2964,4.2283,4.2317,0.0,0.0,0.0,0.0,0.0,4.2763,4.1744,4.1439,4.0767,3.993,3.9312,3.9528,3.9983,3.9661,3.9325,3.9158,3.9846,3.9062,3.8234,3.9309,3.9042,3.8636,3.8995,3.91,3.91,3.91,3.8783,3.8523,3.8523,3.8252,0.0,3.7869,3.6934,3.6332,3.6683,3.6232,3.5881,3.5881,3.4926,3.4148,3.3922,3.2993,3.2135,3.1482,3.1004,0.0,0.0,0.0,2.9283,2.9283,2.9362,0.0,0.0,0.0,3.1733,3.1462,0.0,0.0,0.0,3.2288,3.2333,0.0,0.0,0.0,0.0,0.0,0.0,0.0,0.0,0.0,0.0,0.0,0.0,0.0,0.0,0.0,0.0,3.814,4.1205,4.5447,4.5598,4.5568,4.6476,4.7983,4.8994,4.8994,4.9044,4.9296,4.9741,4.9791,4.9791,4.9791,0.0,0.0,0.0,0.0,4.8033,4.8083,4.7983,4.7933,4.8008,4.7933,4.7631,4.7099,4.7099,4.622,4.469,4.469,4.4091,4.309,4.3039,4.2637,4.207,4.1645,4.219,4.3132,4.3102,4.2051,4.0655,4.0603,0.0,0.0,3.804,3.809,3.8191,3.8115,3.814,3.8191,3.8191,3.8191,3.8191,3.8115,3.809,3.809,3.8015,3.8015,3.8015,3.8015,3.8065,3.809,3.809,3.814,3.8341,3.8818,3.7964,3.7235,3.7286,3.6783,3.6405,3.6405,3.5454,3.4603,3.4148,0.0,0.0,3.1507,3.0608,2.998,2.9804,2.9804,2.9804,2.9804,3.0601,3.0771,3.0181,3.1083,3.1267,3.0679,3.1671,3.2479,3.304,3.3361,3.3574,0.0,0.0,0.0,0.0,0.0,0.0,0.0,0.0,0.0,0.0,0.0,0.0,0.0,0.0,0.0,3.8994,4.2534,4.5949,4.9038,4.9332,4.9038,4.8385,4.9364,5.0092,5.0092,5.0519,5.0878,5.0946,5.0979,5.0979,5.0979,5.0519,5.0218,5.0092,4.9138,4.8812,4.9264,4.836,4.8134,4.8642,0.0,0.0,4.7099,4.7099,4.6446,4.5321,4.5321,4.4694,4.3614,4.319,4.2384,4.143,4.0916,4.0873,4.1029,4.0594,4.0211,3.9855,3.9423,3.9297,3.922,3.8291,3.8617,3.9295,3.8869,3.9044,0.0,3.9371,3.9371,3.927,3.8843,3.8743,3.8617,3.8115,3.8015,3.8015,3.8015,3.8366,3.8743,3.8743,3.9095,3.927,3.8944,3.7964,3.7361,3.7789,3.7034,3.6405,3.6405,3.578,3.5307,3.5182,3.4502,3.3498,3.2164,3.1863,3.1185,2.988,2.9804,2.9804,2.9804,2.9972,2.9992,2.9872,3.0794,3.1204,3.1106,3.205,3.2563,3.2699,3.3251,3.4083,0.0,0.0,0.0,0.0,0.0,0.0,0.0,0.0,0.0,0.0,0.0,3.3343,0.0,0.0,4.0527,4.3011,4.5974,4.8636,5.0569,5.1096,5.0946,5.015,5.077,5.1272,5.1272,5.1523,5.1699,5.1699,5.1699,5.1574,5.1297,5.1272,5.1147,5.087,5.0318,5.02,5.0444,4.9891,4.959,4.959,4.9314,4.8736,4.7958,4.7958,4.7205,4.5899,4.5899,4.5246,4.4166,4.3614,4.2911,4.2108,4.1555,4.1178,4.0876,4.06,4.0499,4.0424,3.9898,3.9873,3.9973,3.912,3.9245,3.9647,3.9396,3.9497,3.9697,3.9697,3.9697,3.9622,3.9371,3.9296,3.922,3.8919,3.8843,3.8843,3.8843,3.9069,3.9296,3.9296,3.9522,3.9597,3.9346,3.8617,3.8039,3.8015,3.7336,3.6808,3.6808,3.6033,3.5508,3.5508,3.4527,3.3545,3.2717,3.2139,3.1235,2.988,3.0306,3.0376,2.9804,3.0055,3.008,2.9804,3.0273,3.0514,3.0514,3.1444,3.192,3.1929,3.2693,3.342,0.0,0.0,0.0,0.0,0.0,0.0,0.0,0.0,3.3003,3.4933,3.6703,3.839,4.0175,4.232,4.4443,4.6451,4.8736,5.0594,5.1599,5.2226,5.2377,5.1825,5.2051,5.2302,5.2402,5.2327,5.2277,5.2277,5.2277,5.2076,5.1624,5.1925,5.19,5.1448,5.1348,5.1306,5.1306,5.1306,5.1046,5.0569,5.0469,4.9891,4.8969,4.8843,4.8014,4.6602,4.6401,4.5723,4.4715,4.4192,4.3689,4.3291,4.2838,4.2359,4.1904,4.1478,4.1302,4.1252,4.08,4.0575,4.045,4.0124,3.9948,3.9848,3.9848,3.9848,3.9823,3.9722,3.9697,3.9697,3.9697,3.9697,3.9697,3.9697,3.9697,3.9697,3.9697,3.9697,3.9697,3.9697,3.9697,3.9697,3.9697,3.9346,3.8869,3.8266,3.7688,3.7336,3.721,3.6408,3.5757,3.5533,3.4327,3.3442,3.3115,3.206,3.1009,3.0175,3.0809,3.0859,2.998,3.0382,3.0387,2.9955,2.9955,3.0005,3.0105,3.0777,3.1149,3.1246,3.2005,3.2436,2.6977,2.6977,0.0,2.9176,2.9988,3.1337,0.0,0.0,3.7045,3.8742,4.0432,4.1668,4.192,4.4554,4.7048,4.8341,5.077,5.2719,5.3356,5.3934,5.412,5.3507,5.3046,5.2995,5.3482,5.3105,5.2795,5.2795,5.2795,5.277,5.2719,5.2327,5.2076,5.2026,5.1548,5.1306,5.1306,5.1306,5.128,5.1172,5.067,5.0092,4.949,4.9019,4.8416,4.7682,4.6728,4.5974,4.5347,4.4769,4.4464,4.4414,4.4338,4.4288,4.3987,4.203,4.1302,4.1275,4.1227,4.0901,4.0575,4.1001,4.08,4.0399,4.0399,4.0399,4.0325,3.9823,3.9697,3.9697,3.9697,3.9697,3.9697,3.9697,3.9697,3.9697,3.9697,3.9697,3.9697,3.9697,3.9697,3.9697,3.9697,3.9647,3.9446,3.8894,3.8291,3.7739,3.7261,3.7086,3.6634,3.5608,3.5332,3.4653,3.3215,3.206,3.1356,3.121,3.0884,3.0638,3.0532,3.0563,3.0563,3.0512,3.0512,3.0758,3.121,3.0853,3.0893,3.1367,3.1488,3.192,2.8976,0.0,0.0,0.0,3.4048,3.6006,3.8291,3.9697,4.1155,4.3137,4.5121,4.6808,4.7788,4.959,5.1322,0.0,5.3607,5.4436,5.4662,5.4647,5.4396,5.3758,5.3256,5.297,5.3196,5.302,5.2895,5.2895,5.2895,5.2895,5.2895,5.2669,5.2578,5.2578,5.2352,5.2226,5.2226,5.2226,5.2076,5.1749,5.1523,5.1122,5.0544,4.9992,4.9238,4.836,4.7581,4.6928,4.6396,4.6145,4.5668,4.5121,4.5121,4.492,4.4439,4.3209,4.2733,4.2685,4.2032,4.1683,4.1482,4.1327,4.1152,4.0976,4.0976,4.0976,4.0926,4.0675,4.0625,4.0625,4.0625,4.0625,4.0625,4.0625,4.0625,4.0625,4.0625,4.04,4.0174,4.0174,3.9923,3.9697,3.9697,3.9697,3.9622,3.9396,3.8894,3.8341,3.7739,3.7387,3.6759,3.5608,3.5207,3.4502,3.3215,3.2663,3.211,3.1436,3.1813,3.1763,3.1085,3.1386,3.1366,3.106,3.106,3.1185,3.1406,3.116,3.1185,3.1406,3.1406,3.1572,3.0312,0.0,0.0,3.5529,3.8291,4.0902,4.2635,4.3834,4.5231,4.7432,4.8615,4.9655,5.0993,5.1696,5.2568,5.4274,5.4668,5.4767,5.4767,5.4791,5.4081,5.2114,5.2357,5.2192,5.1003,5.2119,5.2895,5.2895,5.2895,5.2895,5.2895,5.2895,5.2895,5.2895,5.2895,5.2895,5.2895,5.2895,5.2694,5.2327,5.2176,5.19,5.1498,5.0745,4.9891,4.8994,4.8385,4.7832,4.7324,4.7324,4.6803,4.5949,4.5949,4.5598,4.4991,4.4468,4.4166,4.389,4.2964,4.2637,4.2537,4.1982,4.1754,4.1729,4.1578,4.1528,4.1503,4.1352,4.1302,4.1302,4.1302,4.1302,4.1302,4.1302,4.1302,4.1302,4.1302,4.1001,4.0725,4.0725,4.03,3.9923,3.9923,3.9798,3.9697,3.9697,3.9371,3.8869,3.809,3.7387,3.6659,3.5832,3.5255,3.4552,3.3621,3.3416,3.2914,3.1934,3.2487,3.2466,3.1662,3.1989,3.2014,3.1637,3.1612,3.1687,3.1884,3.1687,3.1687,3.1884,3.1884,3.1959,3.0011,0.0,3.4776,3.8592,4.2007,4.5267,4.8586,4.8959,4.9227,5.1455,5.0019,4.8492,4.9029,4.8433,4.8851,5.1889,5.2818,5.3152,5.3152,5.4439,5.3372,4.805,5.0189,5.0499,0.0,5.0159,5.2895,5.2895,5.2895,5.2895,5.2895,5.2895,5.2895,5.2895,5.2895,5.2895,5.2895,5.2895,5.2895,5.287,5.2352,5.2101,5.2051,5.0921,5.0117,4.954,4.9019,4.841,4.7883,4.7883,4.7525,4.7048,4.7048,4.6722,4.62,4.5648,4.507,4.4489,4.394,4.374,4.3664,4.3112,4.2964,4.2864,4.2311,4.2187,4.2034,4.1453,4.1302,4.1302,4.1302,4.1302,4.1302,4.1302,4.1302,4.1302,4.1302,4.1302,4.1277,4.1277,4.0851,4.0474,4.0474,4.0049,3.9697,3.9697,3.9672,3.927,3.814,3.7085,3.6406,3.638,3.5832,3.5232,3.4703,3.4173,3.3621,3.309,3.2541,3.2194,3.219,3.2194,3.2194,3.219,3.219,3.2466,3.304,3.2466,3.2466,3.304,3.304,3.3341,3.214,0.0,3.8786,4.261,4.4469,4.5978,4.8508,4.9193,4.9375,4.9548,4.7835,4.6158,4.5756,4.5736,4.6414,4.8407,5.0306,5.1574,5.1574,5.1739,5.0544,4.7059,4.7885,0.0,0.0,0.0,0.0,5.0939,5.0963,5.0963,5.0963,5.0963,5.0963,5.0963,5.0963,5.1607,5.2895,5.2895,5.2895,5.2895,5.2694,5.2452,5.2101,5.1699,5.1247,5.0695,5.0117,4.9766,4.954,4.9163,4.8711,4.8184,4.7807,4.7299,4.6772,4.6225,4.5899,4.5568,4.4669,4.4313,4.4288,4.4141,4.4066,4.3966,4.3413,4.3237,4.3165,4.2585,4.2434,4.2509,4.2886,4.2961,4.2961,4.2961,4.2961,4.2861,4.2509,4.2133,4.1909,4.1909,4.143,4.0926,4.0549,4.035,4.0124,3.9747,3.9396,3.9044,3.8642,3.7612,3.6934,3.6934,3.6058,3.5433,3.5232,3.4753,3.4198,3.3646,3.3445,3.3169,3.2792,3.2813,3.2943,3.3319,3.3345,3.3621,3.4173,3.395,3.395,3.4173,3.4173,3.4274,3.5161,3.8343,4.1485,4.5358,4.6983,4.8037,4.9574,4.9483,4.8789,4.781,4.5112,4.2638,4.1778,4.1101,4.1524,4.4013,4.5709,4.714,4.8377,4.8421,4.7395,4.4841,4.5779,0.0,0.0,0.0,0.0,4.9866,5.0128,5.0151,5.002,4.9612,4.9331,4.9181,4.9181,5.0104,5.2052,5.195,5.2223,5.2895,5.2895,5.2694,5.2402,5.2201,5.19,5.1523,5.077,5.0386,5.0336,4.9816,4.9264,4.8768,4.836,4.7383,4.6137,4.5792,4.5184,4.4523,4.4808,4.507,4.5141,4.4715,4.4769,4.4819,4.4267,4.4091,4.4016,4.3664,4.3564,4.3639,4.4016,4.4091,4.4091,4.4091,4.4091,4.394,4.3388,4.3014,4.2713,4.2512,4.2007,4.1505,4.1153,4.0777,4.0325,3.9772,3.9421,3.912,3.8919,3.809,3.7412,3.7235,3.6558,3.5958,3.5533,3.5182,3.4753,3.4223,3.4198,3.4022,3.3671,3.3671,3.3822,3.4198,3.4198,3.4374,3.4703,3.4703,3.4703,3.4703,3.4703,3.4803,3.8717,4.1261,4.2926,4.6893,4.9398,5.0976,5.146,4.9639,4.7502,4.6235,4.1864,3.7985,0.0,0.0,3.4768,3.9039,3.9614,4.0702,4.4027,4.4925,4.4243,0.0,0.0,0.0,0.0,0.0,0.0,4.9532,0.0,5.0159,4.9818,4.8782,4.8027,4.7574,4.7589,4.8518,5.048,5.0199,5.0987,5.2895,5.2895,5.2895,5.287,5.2377,5.2151,5.2076,5.0971,5.0494,5.0436,4.9769,4.9185,4.871,4.8596,4.6861,4.446,4.4492,4.3122,4.1661,4.4402,4.563,4.5885,4.4781,4.4865,4.5304,4.4698,4.4581,4.464,4.4614,4.4531,4.4473,4.4498,4.444,4.4382,4.4382,4.4382,4.4232,4.3683,4.3644,4.3526,4.3,4.2507,4.2213,4.2213,4.1229,4.035,3.9823,3.9722,3.9522,3.8994,3.8417,3.7839,3.7361,3.7261,3.6784,3.5683,3.5583,3.5332,3.4778,3.4753,3.4728,3.4703,3.4703,3.4703,3.4753,3.4753,3.4753,3.4778,3.4778,3.4778,3.4778,3.4778,3.5054,4.0219,4.3431,4.6227,4.833,4.8167,4.7475,4.7316,4.5787,4.3559,4.0646,3.6739,3.3176,0.0,0.0,0.0,3.5711,3.9725,0.0,4.4257,4.4523,0.0,0.0,0.0,4.3279,4.1895,4.4333,0.0,0.0,4.7043,4.6805,4.7004,4.6737,4.6401,4.5992,4.601,4.6947,4.8869,4.9936,5.128,5.2895,5.2895,5.2895,5.2895,5.2744,5.2694,5.2644,5.1975,5.1674,5.1498,4.9127,4.8106,4.778,4.5552,4.4257,4.3551,4.3099,4.2577,4.2201,4.2948,4.2898,4.2439,4.2154,4.3019,4.4061,4.35,4.4249,4.5171,4.4715,4.3693,4.2849,4.3235,4.2367,4.1391,4.1391,4.1391,4.1253,4.0716,4.1282,4.1827,4.1706,4.1949,4.2213,4.2213,4.1229,4.0449,4.0325,3.9948,3.9647,3.9496,3.9019,3.8617,3.8492,3.804,3.7513,3.6835,3.6759,3.6358,3.5357,3.5282,3.513,3.4728,3.4703,3.4904,3.5282,3.5282,3.5506,3.5979,3.5979,3.5979,3.5979,3.5979,3.6055,4.3094,4.5448,4.7071,4.8429,4.7495,4.584,4.4101,4.2384,3.9842,3.5195,3.212,0.0,0.0,0.0,0.0,0.0,0.0,0.0,4.2715,4.2988,4.3066,0.0,4.3516,0.0,4.332,4.4879,4.6103,0.0,4.6328,4.6267,4.629,4.5839,4.5291,4.4682,4.4661,4.5429,4.7006,4.8741,5.0359,5.1891,5.1891,5.2272,5.2895,5.2895,5.2895,5.2836,0.0,5.0774,5.0563,4.7815,4.6565,4.6242,4.4572,4.3211,4.213,4.1779,4.1031,4.0167,4.0167,3.9863,3.972,4.122,4.2233,4.2827,4.2494,4.2973,4.3531,4.322,4.2423,4.1762,4.2071,4.1419,4.0692,4.0692,4.0692,4.0557,3.998,4.0197,4.0622,4.091,4.1989,4.2738,4.2288,4.1683,4.1078,4.0601,4.0249,3.9973,3.9722,3.9446,3.917,3.8919,3.8592,3.8065,3.7286,3.721,3.681,3.5956,3.5906,3.5755,3.5454,3.5454,3.5579,3.5906,3.5906,3.6182,3.6758,3.6758,3.6758,3.6758,3.6758,3.6607,4.6146,4.7067,4.6816,4.7871,4.7129,4.5195,4.168,3.9295,3.6167,3.0224,0.0,2.6372,2.4277,2.5903,2.8191,3.0215,0.0,3.7207,4.125,4.1817,4.2519,4.4492,4.4726,4.4726,4.4726,4.5117,4.5664,4.6426,4.6951,4.7072,4.6678,4.5655,4.4726,4.3906,4.3828,4.4359,4.5535,4.7192,4.8719,5.0216,5.0216,5.0878,5.2119,5.2119,5.2119,5.199,0.0,0.0,4.8639,4.6149,4.4919,4.452,4.4172,4.2605,4.0493,4.0493,3.9227,3.7461,3.7461,3.7461,3.7951,4.0801,4.1628,4.1528,4.1528,4.1436,4.136,4.136,4.1221,4.1005,4.0938,4.0755,4.0593,4.0527,4.0505,4.0362,3.9858,3.9563,3.9646,4.0329,4.2068,4.3152,4.2232,4.2123,4.1858,4.0877,4.0601,4.035,3.9873,3.9747,3.9521,3.9044,3.8994,3.8592,3.7512,3.7436,3.716,3.6556,3.6557,3.6532,3.6405,3.648,3.648,3.6405,3.648,3.6733,3.721,3.7286,3.7311,3.7311,3.7311,3.706,4.6461,4.743,4.7851,4.7715,4.6465,4.416,3.998,3.6309,0.0,0.0,2.4574,2.2969,2.1524,2.4202,2.7871,3.1719,0.0,0.0,0.0,0.0,4.5293,0.0,0.0,0.0,0.0,0.0,0.0,0.0,0.0,4.6793,4.6378,4.5879,4.5332,4.4762,4.4453,4.4978,4.6457,4.6435,4.7004,4.8199,4.8199,4.8149,4.8035,4.8035,4.8035,4.7999,4.7559,0.0,4.72,4.4835,4.379,4.3499,4.1525,4.0193,3.9479,3.9479,3.9003,3.8359,3.8359,3.8359,3.8331,3.8241,3.9117,4.0231,4.0231,4.1159,4.2203,4.2203,4.1172,4.0053,3.965,3.8512,3.7385,3.697,3.689,3.687,3.6756,3.748,3.8444,3.9484,4.0735,4.1598,4.1431,4.1819,4.211,4.1934,4.1103,4.0449,4.0349,3.9973,3.9647,3.9572,3.9546,3.9295,3.8668,3.8592,3.8165,3.7135,3.7462,3.7312,3.6455,3.6833,3.6859,3.6405,3.6833,3.711,3.721,3.7638,3.7864,3.7864,3.7864,3.7814,4.7578,4.8223,4.834,4.7461,4.5449,4.2187,3.6558,0.0,0.0,0.0,2.1094,2.0508,1.9434,0.0,0.0,0.0,0.0,0.0,0.0,0.0,0.0,0.0,0.0,0.0,0.0,0.0,0.0,0.0,0.0,4.7305,4.666,4.6016,4.5586,4.5371,4.4941,4.5072,4.5814,4.537,4.571,4.6797,4.6598,4.6683,4.6992,4.6992,4.6992,4.6919,4.5923,0.0,4.5329,4.317,4.2153,4.1797,4.0653,3.9961,3.9531,3.9297,3.9082,3.8867,3.8689,3.8611,3.8532,3.8086,3.8378,3.8884,3.8884,3.9273,3.9756,3.9756,3.9158,3.85,3.8277,3.7614,3.6894,3.6465,3.6191,3.5923,3.5742,3.7016,3.8214,3.826,3.9609,4.0647,4.0341,4.1057,4.1598,4.1306,4.1337,4.1153,4.0575,4.03,4.0023,3.9722,3.9697,3.9471,3.8944,3.8894,3.8542,3.7663,3.7864,3.7764,3.7236,3.7462,3.7487,3.7261,3.7487,3.7764,3.809,3.8341,3.8492,3.8492,3.8492,3.8291,4.8385,4.8835,4.8542,4.7031,4.4352,4.0332,3.334,2.9258,0.0,0.0,1.8203,1.8474,1.7969,0.0,2.4339,0.0,0.0,0.0,0.0,0.0,0.0,0.0,0.0,0.0,0.0,0.0,0.0,0.0,0.0,0.0,4.6928,4.6308,4.5898,4.582,4.5391,4.5117,4.4977,4.4609,4.4753,4.5362,4.4948,4.5139,4.5875,4.5803,4.576,4.5686,4.4134,0.0,0.0,4.183,4.0976,4.0664,4.0664,4.041,3.998,3.9629,3.9355,3.916,3.8828,3.8689,3.8611,3.8611,3.834,3.8066,3.8066,3.7832,3.7578,3.7578,3.7578,3.7539,3.7461,3.7441,3.7305,3.6832,3.6348,3.5903,3.5605,3.6851,3.7815,3.7027,3.8434,3.9645,3.9186,4.0076,4.065,4.0165,4.1072,4.1439,4.0471,4.0539,4.0449,3.9923,3.9772,3.9521,3.912,3.907,3.8818,3.8241,3.8291,3.8266,3.8015,3.8115,3.814,3.8015,3.814,3.8441,3.8894,3.9019,3.907,3.907,3.907,3.8818,4.7812,4.86,4.8405,4.6352,4.3516,3.9375,3.204,0.0,0.0,1.7896,1.6582,1.6613,1.7321,1.8401,2.0898,0.0,0.0,3.1699,0.0,0.0,0.0,0.0,0.0,0.0,0.0,0.0,0.0,0.0,0.0,0.0,4.6928,4.6811,4.6641,4.625,4.584,4.543,4.4996,4.4609,4.4028,4.3351,4.2899,4.2526,4.2249,4.1912,4.1734,4.1734,4.154,0.0,0.0,4.1288,4.1191,4.1152,4.1152,4.084,4.043,4.0372,3.9883,3.9199,3.916,3.8887,3.8611,3.8611,3.8591,3.8552,3.8552,3.8532,3.8493,3.8493,3.8493,3.8359,3.7969,3.7835,3.7656,3.689,3.6348,3.5982,3.5942,3.6098,3.6214,3.6102,3.7146,3.8034,3.796,3.8884,3.9517,3.9084,3.9895,4.0392,3.9929,4.066,4.1026,4.0474,3.9998,3.9672,3.9622,3.9622,3.9371,3.8843,3.927,3.9069,3.804,3.8542,3.8567,3.8015,3.8542,3.8843,3.8894,3.9396,3.9622,3.9622,3.9622,3.9597,4.6699,4.7949,4.7949,4.582,4.2031,3.7187,3.085,0.0,2.1308,1.7187,1.6222,1.6281,1.6859,1.7874,1.967,2.2986,2.4687,0.0,3.4101,0.0,0.0,0.0,0.0,0.0,0.0,0.0,0.0,0.0,0.0,0.0,4.7363,4.707,4.6811,4.668,4.6035,4.5586,4.541,4.4746,4.4082,4.3437,4.2754,4.2207,4.1777,4.1367,4.1211,4.1211,4.1211,0.0,0.0,4.1211,4.1211,4.1211,4.1211,4.1113,4.0879,4.0625,4.0293,3.9961,3.9707,3.9512,3.9375,3.9375,3.918,3.8906,3.8689,3.8611,3.8611,3.8611,3.8611,3.8571,3.8359,3.8125,3.7796,3.75,3.6914,3.6406,3.6406,3.6211,3.5982,3.5982,3.64,3.673,3.673,3.7686,3.8412,3.8272,3.8951,3.9327,3.8772,3.9718,4.0165,3.9604,3.992,4.0049,3.9722,3.9697,3.9597,3.9396,3.9572,3.9496,3.9044,3.9245,3.927,3.9019,3.9245,3.9396,3.9396,3.9597,3.9697,3.9697,3.9697,3.9697,4.4336,4.6308,4.6992,4.5117,4.0644,3.5293,0.0,0.0,2.0059,1.6598,1.5889,1.6011,1.643,1.735,1.8695,2.0703,2.2363,2.5156,3.0176,0.0,0.0,0.0,0.0,0.0,0.0,0.0,0.0,0.0,0.0,0.0,4.7812,4.7363,4.7012,4.6714,4.6055,4.5625,4.5488,4.4766,4.416,4.3691,4.2969,4.2402,4.1973,4.1543,4.1289,4.1211,0.0,0.0,0.0,4.1211,4.1211,4.1211,4.1211,4.1211,4.1172,4.084,4.0644,4.045,4.0195,4.0,3.9902,3.9902,3.9668,3.9316,3.8887,3.8708,3.8611,3.8611,3.8611,3.8611,3.8611,3.8242,3.7894,3.7894,3.7383,3.689,3.689,3.6523,3.625,3.6367,3.6191,3.6021,3.6191,3.6797,3.7209,3.7119,3.7837,3.8183,3.7618,3.8589,3.912,3.8526,3.9145,3.9739,4.0146,4.0023,3.9948,3.9948,3.9798,3.9697,3.9697,3.9697,3.9697,3.9697,3.9697,3.9697,3.9697,3.9697,3.9697,3.9697,3.9697,3.9697,4.0448,4.3459,4.5371,4.4043,3.9531,3.4043,0.0,0.0,1.9608,1.6133,1.5396,1.5547,1.6026,1.6445,1.7581,2.0175,2.168,2.4492,3.0098,0.0,0.0,0.0,0.0,0.0,0.0,0.0,0.0,0.0,0.0,0.0,4.8223,4.7793,4.7187,4.6328,4.5898,4.5469,4.4996,4.4609,4.416,4.3691,4.3281,4.2851,4.2362,4.1992,4.1562,0.0,0.0,0.0,0.0,4.1211,4.1211,4.1211,4.1211,4.1211,4.1211,4.1211,4.0898,4.0489,4.0527,4.0234,3.9902,3.9902,3.9883,3.9805,3.9336,3.8906,3.8611,3.8611,3.8611,3.8611,3.8611,3.8242,3.7894,3.7894,3.7598,3.7285,3.7285,3.6988,3.6812,3.7207,3.6601,3.6152,3.6616,3.6309,3.5859,3.5483,3.6384,3.6981,3.6572,3.751,3.7992,3.747,3.7426,3.8492,4.1058,4.08,4.0474,4.0474,3.9998,3.9697,3.9697,3.9697,3.9697,3.9697,3.9697,3.9697,3.9697,3.9697,3.9697,3.9697,3.9697,3.9697,3.3828,3.6133,3.7363,3.5781,3.2285,2.834,2.4898,0.0,1.8164,1.5864,1.5396,1.5547,1.6007,1.6695,1.8125,2.1016,2.2305,2.4157,0.0,0.0,0.0,0.0,0.0,0.0,0.0,0.0,0.0,0.0,0.0,0.0,4.7812,4.7656,4.7324,4.6738,4.6055,4.5469,4.4996,4.4609,4.416,4.3691,4.2969,4.2518,4.2362,4.1699,0.0,0.0,0.0,0.0,0.0,4.1211,4.1211,4.1211,4.1211,4.1211,4.1211,4.1211,4.1132,4.0976,4.0976,4.0879,4.08,4.08,4.0371,3.9863,3.9726,3.9355,3.8945,3.8689,3.8611,3.8611,3.8611,3.8476,3.8359,3.8359,3.8047,3.7734,3.7734,3.7402,3.7148,3.7266,3.6855,3.6538,3.6675,3.6309,3.5976,3.584,3.5587,3.5411,3.5303,3.6029,3.6505,3.6324,3.7294,3.7985,3.8086,3.7934,3.7706,3.7385,3.72,3.6994,3.67,3.7663,3.819,3.819,3.9181,3.9697,3.9697,3.9697,3.9697,3.9697,3.9697,3.9697,2.8125,3.0566,3.1875,3.0801,2.7832,0.0,0.0,1.9669,1.7152,1.5918,1.5664,1.5801,1.6246,1.691,1.822,2.0742,2.1992,0.0,0.0,0.0,0.0,0.0,0.0,0.0,0.0,0.0,0.0,0.0,0.0,0.0,4.7682,4.7578,4.7305,4.6719,4.6035,4.5469,4.4996,4.4609,4.416,4.3691,4.3008,4.2578,4.2362,4.1719,0.0,0.0,0.0,0.0,0.0,4.1211,4.1211,4.1211,4.1211,4.1211,4.1211,4.1211,4.1211,4.1211,4.1211,4.1211,4.1191,4.0976,4.0351,3.9629,3.9629,3.9316,3.8906,3.8689,3.8611,3.8611,3.8611,3.8611,3.8611,3.8611,3.8359,3.8164,3.8164,3.7832,3.7578,3.7754,3.7305,3.6949,3.6949,3.6543,3.6211,3.6035,3.541,3.4961,3.4961,3.52,3.5382,3.5382,3.6153,3.6399,3.5703,3.6421,3.6786,3.6474,3.6273,3.6049,3.5793,3.6502,3.6901,3.6901,3.7649,3.8031,3.8031,3.8608,3.8868,3.8868,3.8868,3.8868,0.0,2.6211,2.8098,0.0,0.0,0.0,0.0,0.0,0.0,1.6128,1.6046,1.6187,1.6664,1.7109,1.7988,1.9786,2.1172,0.0,0.0,0.0,0.0,0.0,0.0,0.0,0.0,0.0,0.0,0.0,0.0,0.0,4.7578,4.7558,4.7187,4.6328,4.5898,4.5469,4.4996,4.4609,4.4141,4.3652,4.3223,4.2812,4.2323,4.1953,0.0,0.0,0.0,0.0,0.0,4.1211,4.1211,4.1211,4.1211,4.1211,4.1211,4.1211,4.1211,4.1211,4.1211,4.1211,4.1132,4.0625,3.9902,3.9199,3.916,3.8887,3.8611,3.8611,3.8611,3.8611,3.8611,3.8611,3.8611,3.8611,3.8611,3.8611,3.8611,3.8262,3.8086,3.8532,3.791,3.7344,3.7344,3.7007,3.6543,3.6133,3.5684,3.5391,3.5391,3.498,3.4707,3.4707,3.4388,3.4153,3.4153,3.5966,3.7118,3.7074,3.6595,3.6301,3.6307,3.5979,3.5797,3.5724,3.5452,3.5333,3.54,3.6723,3.7367,3.7438,3.7391,3.7391,1.7363,0.0,2.0391,1.9728,1.887,1.8049,0.0,0.0,0.0,0.0,0.0,1.5898,1.7031,1.7321,1.8396,2.1386,0.0,0.0,0.0,0.0,0.0,0.0,0.0,0.0,0.0,0.0,0.0,0.0,0.0,4.834,4.7148,4.7402,4.7187,4.6328,4.5898,4.5469,4.4996,4.4609,4.4004,4.3223,4.2793,4.2363,4.1933,4.1504,0.0,0.0,0.0,0.0,4.1211,4.1211,4.1211,4.1211,4.1211,4.1211,4.1211,4.1211,4.1211,4.1211,4.1211,4.1211,4.1093,4.0293,3.9668,3.9141,3.8828,3.8652,3.8611,3.8611,3.8611,3.8611,3.8611,3.8611,3.8611,3.8611,3.8611,3.8611,3.8611,3.8496,3.8493,3.8591,3.8144,3.7773,3.7773,3.7168,3.6675,3.6543,3.5879,3.5391,3.5391,3.498,3.4707,3.4707,3.4609,3.4551,3.4551,3.4429,3.4205,3.3912,3.376,3.3558,3.3245,3.4211,3.4572,3.4239,3.4923,3.5641,3.6295,3.5952,3.6168,3.6782,3.6425,3.647,1.5396,1.625,1.7012,1.6543,1.6426,1.6367,1.6144,0.0,0.0,0.0,0.0,1.607,1.7184,1.7888,0.0,0.0,0.0,0.0,0.0,0.0,0.0,0.0,0.0,0.0,0.0,0.0,0.0,0.0,0.0,4.8086,4.6948,4.7148,4.6894,4.6035,4.5605,4.5254,4.4977,4.4394,4.375,4.3066,4.2441,4.2031,4.1777,4.1367,4.1211,0.0,0.0,0.0,4.1211,4.1211,4.1211,4.1211,4.1211,4.1211,4.1211,4.1211,4.1211,4.1211,4.1211,4.0957,4.0508,4.0039,3.959,3.916,3.8926,3.8867,3.8865,3.8669,3.8611,3.8611,3.8611,3.8611,3.8611,3.8611,3.8611,3.8611,3.8611,3.8611,3.8611,3.8611,3.8379,3.8164,3.7933,3.7539,3.7109,3.6773,3.6304,3.5918,3.5703,3.5449,3.5312,3.5312,3.5137,3.5019,3.5019,3.4394,3.3828,3.3418,3.3184,3.2988,3.2754,3.3345,3.3456,3.3009,3.3593,3.4104,3.4581,3.4776,3.5121,3.5591,3.5331,3.5352,1.5488,1.6089,1.6594,1.6198,1.6085,1.6085,1.6085,0.0,0.0,0.0,0.0,0.0,0.0,0.0,0.0,0.0,0.0,0.0,0.0,0.0,0.0,0.0,0.0,0.0,0.0,0.0,0.0,0.0,0.0,4.7734,4.6831,4.685,4.6543,4.5746,4.5195,4.486,4.4782,4.4023,4.3359,4.2871,4.2148,4.1758,4.1699,4.1367,4.1211,4.1211,0.0,0.0,4.1211,4.1211,4.1211,4.1211,4.1211,4.1211,4.1211,4.1211,4.1211,4.1211,4.1132,4.0508,3.9785,3.9785,3.9473,3.9101,3.9101,3.9101,3.9023,3.8708,3.865,3.8689,3.863,3.865,3.8689,3.863,3.8611,3.8611,3.8611,3.8611,3.8611,3.8611,3.8611,3.8457,3.8086,3.7969,3.7676,3.7007,3.6792,3.6577,3.6172,3.6021,3.5982,3.5982,3.5703,3.5488,3.5488,3.5078,3.4648,3.4329,3.3789,3.3464,3.3386,3.3008,3.2656,3.2394,3.2257,3.2257,3.2394,3.3526,3.4111,3.4256,3.4173,3.4194,1.5874,1.7634,1.8809,1.6633,1.6085,1.6085,1.6085,1.5737,0.0,0.0,0.0,0.0,0.0,0.0,0.0,0.0,0.0,0.0,0.0,0.0,0.0,0.0,0.0,0.0,0.0,0.0,0.0,0.0,0.0,4.7305,4.6445,4.6694,4.6543,4.5746,4.4902,4.4297,4.3906,4.3418,4.2773,4.1992,4.1855,4.1621,4.1308,4.125,4.1211,4.1211,0.0,4.1211,4.1211,4.1211,4.1211,4.1211,4.1211,4.1211,4.1211,4.1211,4.1211,4.1152,4.0762,4.0039,3.9316,3.9316,3.9023,3.8708,3.8708,3.8708,3.8689,3.863,3.8828,3.9023,3.8708,3.8828,3.9004,3.8689,3.8611,3.8611,3.8611,3.8611,3.8611,3.8611,3.8611,3.8591,3.8476,3.8164,3.7835,3.7718,3.7129,3.6675,3.6616,3.625,3.5982,3.5982,3.5923,3.5918,3.5918,3.5527,3.5254,3.5195,3.4434,3.3809,3.3406,3.3008,3.293,3.3223,3.257,3.255,3.3191,3.2745,3.2887,3.3547,3.3223,3.3243,1.5644,1.6754,1.7907,1.8103,1.9041,1.9822,1.9335,1.908,0.0,0.0,0.0,0.0,0.0,0.0,0.0,0.0,0.0,0.0,0.0,0.0,0.0,0.0,0.0,0.0,0.0,0.0,0.0,0.0,0.0,0.0,4.6328,4.6269,4.5976,4.5351,4.4473,4.3691,4.3027,4.2598,4.2187,4.1797,4.1562,4.1367,4.1211,4.1211,4.1211,4.1211,0.0,4.1211,4.1211,4.1211,4.1211,4.1211,4.1211,4.1211,4.1191,4.0918,4.082,4.0723,4.0039,3.9551,3.9199,3.9199,3.9062,3.8906,3.8906,3.8906,3.8867,3.8669,3.8747,3.8828,3.8669,3.8747,3.8809,3.865,3.8611,3.8611,3.8611,3.8611,3.8611,3.8611,3.8611,3.8611,3.8611,3.8418,3.8203,3.7933,3.7598,3.7266,3.7031,3.6836,3.6621,3.6406,3.6367,3.6269,3.6001,3.584,3.5527,3.5039,3.4648,3.4316,3.4121,3.3711,3.3691,3.4101,3.3281,3.3262,3.4121,3.3496,3.343,3.3769,3.3574,3.3457,1.5527,1.6187,1.7282,1.9141,2.0566,2.172,2.2482,2.2189,0.0,0.0,0.0,0.0,0.0,0.0,0.0,0.0,0.0,0.0,0.0,0.0,0.0,0.0,0.0,0.0,0.0,0.0,0.0,0.0,0.0,0.0,4.6172,4.5859,4.5391,4.4746,4.3965,4.3144,4.2245,4.1855,4.166,4.166,4.1367,4.1211,4.1211,4.1211,4.1211,4.1211,4.1211,4.1211,4.1211,4.1211,4.1211,4.1211,4.1211,4.1211,4.1152,4.0684,4.043,4.0273,3.9473,3.9141,3.9062,3.9062,3.9062,3.9062,3.9062,3.9062,3.8984,3.8708,3.8611,3.8611,3.8611,3.8689,3.8728,3.863,3.8611,3.8611,3.8611,3.8611,3.8611,3.8611,3.8611,3.8611,3.8611,3.8611,3.8457,3.8125,3.7952,3.7777,3.748,3.7363,3.7168,3.689,3.6851,3.6641,3.6211,3.604,3.5742,3.5059,3.4805,3.4707,3.4707,3.4394,3.4407,3.4687,3.4062,3.4043,3.4707,3.4375,3.4251,3.4251,3.4251,3.4043,1.5928,1.7533,1.9004,1.8771,1.7637,1.8061,2.3596,2.2988,0.0,2.5371,0.0,0.0,0.0,0.0,0.0,0.0,0.0,0.0,0.0,0.0,0.0,0.0,0.0,0.0,0.0,0.0,0.0,0.0,0.0,0.0,4.5742,4.5746,4.5098,4.3828,4.3359,4.2715,4.1855,4.1426,4.125,4.125,4.123,4.1211,4.1211,4.1211,4.1211,4.1211,4.1211,4.1211,4.1211,4.1211,4.1211,4.1211,4.1211,4.1211,4.1152,4.0684,4.0273,3.9863,3.9375,3.8945,3.865,3.865,3.865,3.865,3.865,3.865,3.865,3.8611,3.8611,3.8611,3.8611,3.8867,3.9062,3.8708,3.8611,3.8611,3.8611,3.8611,3.8611,3.8611,3.8611,3.8611,3.8611,3.8611,3.8591,3.8535,3.8184,3.7874,3.7855,3.7539,3.7285,3.7266,3.7246,3.709,3.6695,3.625,3.5962,3.5903,3.5156,3.4707,3.4707,3.4668,3.4668,3.4707,3.4648,3.4629,3.4707,3.4668,3.4648,3.4648,3.4648,3.4629,1.5605,1.7441,1.9393,1.9746,1.8994,0.0,0.0,2.6543,2.7246,3.0156,3.0397,0.0,0.0,0.0,0.0,0.0,0.0,0.0,0.0,0.0,0.0,0.0,0.0,0.0,0.0,0.0,0.0,0.0,0.0,0.0,4.3063,4.3945,4.4101,4.334,4.2637,4.2129,4.1797,4.0033,3.9158,3.9158,3.9158,3.8429,3.7179,3.7179,3.7179,3.7179,3.7179,3.7896,3.904,3.7697,3.8764,4.1211,4.1211,4.1016,4.0723,4.0293,3.9844,3.9394,3.8965,3.8747,3.8611,3.8611,3.8611,3.8611,3.8611,3.8611,3.8611,3.8611,3.8611,3.8611,3.8611,3.8691,3.8828,3.8945,3.8769,3.8689,3.8906,3.8787,3.8611,3.8611,3.8611,3.8611,3.8611,3.8611,3.8611,3.8611,3.8437,3.832,3.832,3.8184,3.7988,3.7715,3.7461,3.7226,3.707,3.6914,3.6816,3.6816,3.5996,3.5527,3.5527,3.5273,3.5254,3.5508,3.498,3.4961,3.5527,3.5254,3.5137,3.5137,3.5137,3.498,1.5396,1.6699,1.8398,1.9823,0.0,0.0,2.7706,2.8558,2.9512,3.4438,3.3449,0.0,0.0,0.0,0.0,0.0,0.0,0.0,0.0,0.0,0.0,0.0,0.0,0.0,0.0,0.0,0.0,0.0,0.0,0.0,0.0,4.2994,4.3262,4.2695,4.1433,4.0691,4.0577,3.812,3.6562,3.5863,3.5863,3.542,3.4692,3.4692,3.4692,3.4692,3.4692,3.554,3.6762,3.5298,3.6842,4.0138,4.0005,4.0183,4.0411,3.9883,3.9473,3.9141,3.873,3.8611,3.8611,3.8611,3.8611,3.8611,3.8611,3.8611,3.8611,3.8611,3.8611,3.8611,3.8611,3.8611,3.8689,3.8945,3.8789,3.8689,3.8945,3.8769,3.8611,3.8611,3.8691,3.8769,3.8769,3.8887,3.8984,3.8984,3.8984,3.8982,3.8789,3.8769,3.8613,3.8184,3.7754,3.75,3.75,3.7363,3.7305,3.7305,3.6738,3.6426,3.6426,3.6016,3.5937,3.623,3.5488,3.541,3.5982,3.5723,3.5586,3.5586,3.5586,3.543,1.5396,1.542,1.6079,0.0,0.0,0.0,3.0644,2.8444,2.7812,3.7805,0.0,0.0,0.0,0.0,0.0,0.0,0.0,0.0,0.0,0.0,0.0,0.0,0.0,0.0,0.0,0.0,0.0,0.0,0.0,0.0,0.0,4.324,4.2635,4.1777,3.9634,3.8293,3.7856,3.5742,3.3553,3.1392,3.1392,3.2546,3.4651,3.4651,3.4651,3.4651,3.4651,3.4651,3.4651,3.4692,3.5943,3.7802,3.7424,3.8601,4.0372,3.9531,3.9199,3.9141,3.8747,3.8611,3.8611,3.8611,3.8611,3.8611,3.8611,3.8611,3.8611,3.8611,3.8611,3.8611,3.8611,3.8611,3.8611,3.8611,3.8611,3.8611,3.8611,3.8611,3.8611,3.8611,3.8906,3.9199,3.9199,3.959,3.9883,3.9902,3.9902,3.9726,3.9258,3.9199,3.9043,3.865,3.8184,3.7894,3.7894,3.7539,3.7305,3.7305,3.7305,3.7305,3.7305,3.6929,3.6714,3.6714,3.625,3.6035,3.6035,3.6035,3.5982,3.5982,3.6035,3.6001,1.4702,1.7219,0.0,1.8763,0.0,0.0,0.0,3.0892,0.0,0.0,0.0,0.0,0.0,0.0,0.0,0.0,0.0,0.0,0.0,0.0,0.0,0.0,0.0,0.0,0.0,0.0,0.0,0.0,0.0,0.0,0.0,3.6915,3.7363,3.6834,3.6155,3.578,3.5638,3.3472,3.2052,3.1392,2.9857,2.9495,3.0149,3.0149,3.0149,3.0149,3.0149,3.0993,3.2474,3.3807,3.3723,3.2961,3.5834,3.7164,3.7631,3.8757,3.9004,3.8787,3.865,3.8611,3.8611,3.8611,3.8611,3.8611,3.8611,3.8611,3.8611,3.8611,3.8611,3.8611,3.8611,3.8611,3.8689,3.8945,3.8789,3.8689,3.8945,3.8789,3.8611,3.8611,3.8708,3.8848,3.9141,3.9316,3.9512,3.9844,3.9902,3.9726,3.9258,3.8945,3.8747,3.863,3.8493,3.8379,3.8379,3.8262,3.8203,3.8203,3.8203,3.793,3.7324,3.7187,3.7109,3.7109,3.6699,3.6484,3.6484,3.6484,3.6328,3.6001,3.6641,3.6758,1.5271,1.7423,0.0,2.0151,2.2791,2.6466,3.0847,0.0,0.0,0.0,0.0,0.0,0.0,0.0,0.0,0.0,0.0,0.0,0.0,0.0,0.0,0.0,0.0,0.0,0.0,0.0,0.0,0.0,0.0,0.0,0.0,3.4479,3.4964,3.4708,3.3839,3.339,3.339,3.1241,3.0135,3.0093,2.8838,2.8179,2.8179,2.8179,2.8179,2.8179,2.8058,2.8675,2.9871,3.0997,3.1067,3.0805,3.3998,3.564,3.6431,3.8282,3.8789,3.8611,3.8611,3.8611,3.8611,3.8611,3.8611,3.8611,3.8611,3.8611,3.8611,3.8611,3.8611,3.8611,3.8611,3.8611,3.8669,3.8887,3.8787,3.8728,3.9101,3.8867,3.8669,3.8789,3.8828,3.8965,3.9394,3.9609,3.9824,4.0098,3.9844,3.9512,3.9238,3.8984,3.8828,3.8828,3.9021,3.9138,3.9138,3.9138,3.9138,3.9138,3.8926,3.8594,3.8086,3.7734,3.7539,3.7539,3.7129,3.6949,3.6949,3.6949,3.6777,3.6543,3.7051,3.7168,1.6446,1.6845,0.0,2.2182,2.4731,0.0,0.0,0.0,0.0,0.0,0.0,0.0,0.0,0.0,0.0,0.0,0.0,0.0,0.0,0.0,0.0,0.0,0.0,0.0,0.0,0.0,0.0,0.0,0.0,0.0,0.0,3.4302,3.4124,3.4124,3.2176,3.1117,3.1117,2.916,2.8179,2.8179,2.8179,2.8165,2.8138,2.8179,2.8165,2.8125,2.7831,2.7495,2.7269,2.7269,2.8392,3.0301,3.195,3.3924,3.6076,3.7718,3.8465,3.8611,3.8611,3.8611,3.8611,3.8611,3.8611,3.8611,3.8611,3.8611,3.8611,3.8611,3.8611,3.8611,3.8611,3.865,3.865,3.863,3.865,3.8787,3.918,3.8965,3.8845,3.9199,3.9258,3.9394,3.9824,4.0234,4.0489,4.0489,3.9766,3.9219,3.9258,3.9238,3.9219,3.9258,3.9648,3.9902,3.9902,3.9902,3.9883,3.9844,3.9434,3.918,3.9141,3.8398,3.7952,3.7952,3.7578,3.7344,3.7344,3.7344,3.7344,3.7305,3.7383,3.7383,1.554,1.8683,0.0,0.0,2.6348,3.0117,0.0,0.0,0.0,0.0,0.0,0.0,0.0,0.0,0.0,0.0,0.0,0.0,0.0,0.0,0.0,0.0,0.0,0.0,0.0,0.0,0.0,0.0,0.0,0.0,2.9705,2.9649,2.9607,2.9607,2.9118,2.888,2.888,2.8431,2.8179,0.0,2.8179,2.8058,2.7802,2.8072,2.8058,2.7776,2.7523,2.7188,2.6921,2.6921,2.7054,2.7459,2.9388,3.1417,3.3517,3.5476,3.7179,3.8611,3.8611,3.8611,3.8611,3.8611,3.8611,3.8611,3.8611,3.8611,3.8611,3.8611,3.8611,3.8611,3.8611,3.8828,3.8984,3.8689,3.8828,3.9199,3.9648,3.9668,3.9648,3.9726,3.9746,3.9785,3.9883,4.0234,4.0489,4.0489,3.9766,3.9336,3.9707,3.9434,3.9336,3.9707,3.9844,3.9902,3.9902,3.9902,3.9746,3.9375,3.9258,3.9062,3.873,3.8535,3.8437,3.8437,3.8008,3.7793,3.7793,3.7793,3.7617,3.7324,3.7988,3.8125,1.5831,0.0,0.0,2.3802,0.0,2.9775,0.0,0.0,0.0,0.0,0.0,0.0,0.0,0.0,0.0,0.0,0.0,0.0,0.0,0.0,0.0,0.0,0.0,0.0,0.0,0.0,0.0,0.0,0.0,2.8179,2.8179,2.8179,2.8179,2.8179,2.8179,2.8179,2.8179,2.8045,2.7978,2.7965,2.7831,2.7684,2.7495,2.7697,2.7603,2.7268,2.7121,2.6881,2.6613,2.6613,2.6533,2.6584,2.8608,3.0669,3.2733,3.4751,3.6811,3.8611,3.8611,3.8611,3.8611,3.8611,3.8611,3.8611,3.8611,3.8611,3.8611,3.8611,3.8611,3.8611,3.8611,3.8787,3.8906,3.8887,3.9043,3.9336,3.9805,3.9726,3.9687,4.0117,4.0039,3.9902,3.9902,3.9902,4.0039,4.043,3.9766,3.9375,3.9844,3.9863,3.9922,4.0176,4.0391,4.0508,4.0508,4.0508,4.0312,3.9863,3.9648,3.9434,3.9219,3.8984,3.8826,3.8611,3.8359,3.8242,3.8242,3.8242,3.8125,3.791,3.8396,3.8493,1.6067,0.0,2.0401,2.5506,2.7523,0.0,2.8537,0.0,0.0,0.0,0.0,0.0,0.0,0.0,0.0,0.0,0.0,0.0,0.0,0.0,0.0,0.0,0.0,0.0,0.0,0.0,0.0,0.0,0.0,2.8179,2.8179,2.8179,2.8165,2.8112,2.8112,2.8085,2.8031,2.7791,2.7629,2.7615,2.7335,2.7229,2.7229,2.7175,2.6974,2.6747,2.6694,2.6507,2.6239,2.6239,2.6239,2.6436,2.806,3.0031,3.2103,3.3747,3.5943,3.808,3.808,3.8299,3.8611,3.8611,3.8611,3.8611,3.8611,3.8611,3.8611,3.8611,3.8611,3.8611,3.8611,3.8669,3.875,3.9023,3.9199,3.9453,3.9902,3.9766,3.9766,4.0488,4.0234,3.9922,4.0,3.9551,3.9473,4.0293,3.9785,3.9492,3.9941,4.0312,4.0508,4.0625,4.0957,4.1211,4.1211,4.1211,4.0996,4.0508,4.0195,3.9961,3.9902,3.9531,3.9121,3.8728,3.8691,3.8689,3.8611,3.8611,3.8611,3.8611,3.8611,3.8611,1.4532,0.0,2.2652,0.0,2.7523,2.8272,0.0,0.0,0.0,0.0,0.0,0.0,0.0,0.0,0.0,0.0,0.0,0.0,0.0,0.0,0.0,0.0,0.0,0.0,0.0,0.0,0.0,0.0,2.8179,2.8179,2.8179,2.8179,2.8072,2.7762,2.7762,2.7684,2.7429,2.7389,2.7362,2.7362,2.7028,2.6881,2.6867,2.6627,2.648,2.6426,2.6225,2.5905,2.5625,2.5625,2.5625,2.5663,2.5932,2.7435,2.9511,2.9777,3.2434,3.5924,3.5924,3.7069,3.8611,3.8611,3.8611,3.8611,3.8611,3.8611,3.8611,3.8611,3.8611,3.8611,3.8611,3.8848,3.9043,3.873,3.9238,3.9922,4.0351,4.0684,4.0996,4.1055,4.0449,4.0019,4.0371,3.9746,3.9375,3.9902,3.9883,3.9961,4.0391,4.0488,4.0664,4.1035,4.1172,4.1211,4.1211,4.1211,4.0996,4.0508,4.043,4.0273,3.9902,3.9844,3.959,3.9121,3.9121,3.8945,3.8611,3.8611,3.8611,3.8611,3.8611,3.8611,1.6173,1.9185,2.2472,0.0,2.6881,2.7362,2.7949,0.0,0.0,0.0,0.0,0.0,0.0,0.0,0.0,0.0,0.0,0.0,0.0,0.0,0.0,0.0,0.0,0.0,0.0,0.0,0.0,0.0,2.8179,2.8112,2.7938,2.7938,2.7804,2.751,2.7496,2.7443,2.7309,2.7094,2.6934,2.6774,2.664,2.6587,2.6573,2.6319,2.6185,2.6185,2.6051,2.5824,2.5518,2.5518,2.5518,2.5518,2.5518,2.693,2.8993,2.8993,3.1058,3.3813,3.3813,3.518,3.6848,3.6848,3.7658,3.8611,3.8611,3.8611,3.8611,3.8611,3.8611,3.8611,3.8611,3.8747,3.8809,3.865,3.9043,3.9551,3.9746,4.0312,4.0879,4.1172,4.0488,4.0117,4.0781,4.0176,3.9824,4.0508,4.041,4.041,4.084,4.0879,4.0957,4.1191,4.1211,4.1211,4.1211,4.1211,4.0996,4.0508,4.0489,4.043,4.0254,4.0254,4.0156,3.9941,3.9453,3.9004,3.8611,3.8611,3.8611,3.8611,3.8611,3.8611,0.0,0.0,2.0708,2.4182,2.5384,2.5999,0.0,0.0,0.0,0.0,0.0,0.0,0.0,0.0,0.0,0.0,0.0,0.0,0.0,0.0,0.0,0.0,0.0,0.0,0.0,0.0,0.0,0.0,2.8045,2.7898,2.7709,2.7629,2.7415,2.7095,2.7162,2.7081,2.6827,2.668,2.6493,2.6279,2.6279,2.6239,2.6159,2.5945,2.5837,2.577,2.577,2.5558,2.5253,2.5253,2.5253,2.5253,2.5253,2.6388,2.8011,2.8011,2.9481,3.1507,3.1507,3.2877,3.461,3.461,3.5702,3.7051,3.7051,3.7401,3.7805,3.7805,3.819,3.8611,3.8611,3.8611,3.8611,3.8611,3.8887,3.9258,3.9492,4.0059,4.0644,4.1094,4.0566,4.0254,4.0898,4.0488,4.0273,4.0918,4.082,4.0801,4.1133,4.1211,4.1211,4.1211,4.1211,4.1211,4.1211,4.1211,4.1035,4.0703,4.0684,4.0684,4.0684,4.0684,4.0644,4.0489,3.9883,3.9336,3.8943,3.8728,3.8669,3.873,3.8669,3.8611,0.0,1.5618,0.0,2.0575,2.2659,0.0,0.0,0.0,0.0,0.0,0.0,0.0,0.0,0.0,0.0,0.0,0.0,0.0,0.0,0.0,0.0,0.0,0.0,0.0,0.0,0.0,0.0,0.0,2.767,2.7469,2.7682,2.7483,2.7068,2.6453,2.6694,2.644,2.5611,2.5904,2.6038,2.6011,2.6011,2.5864,2.5558,2.5545,2.5384,2.5168,2.5168,2.4957,2.4639,2.4639,2.4639,2.4639,2.4639,2.4938,2.5305,2.5305,2.6786,2.8784,2.8784,3.0281,3.2164,3.2164,3.2488,3.2809,3.2809,3.4151,3.5664,3.5664,3.7069,3.8611,3.8611,3.8611,3.8611,3.8611,3.8887,3.9434,4.0235,4.0488,4.0644,4.1094,4.0801,4.0469,4.0547,4.0527,4.0469,4.0508,4.0879,4.1191,4.1211,4.1211,4.1211,4.1211,4.1211,4.1211,4.1211,4.1211,4.1211,4.1191,4.1172,4.1172,4.1172,4.1172,4.0937,4.0489,4.0469,4.0254,3.9824,3.8984,3.8826,3.916,3.8769,3.8611,0.0,0.0,0.0,1.8985,2.0895,2.2352,0.0,0.0,0.0,0.0,0.0,0.0,0.0,0.0,0.0,0.0,0.0,0.0,0.0,0.0,0.0,0.0,0.0,0.0,0.0,0.0,0.0,0.0,0.0,2.7269,2.7134,2.7041,2.6707,2.6172,2.6252,2.6026,2.5518,2.5625,2.5678,2.5678,2.5678,2.5611,2.5504,2.5317,2.5184,2.5101,2.4877,2.4693,2.4599,2.4599,2.4599,2.4599,2.4599,2.4823,2.5115,2.5115,2.5742,2.6634,2.6634,2.8133,3.008,3.008,3.1187,3.2505,3.2505,3.2982,3.385,3.5124,3.6035,3.6922,3.8263,3.8769,3.9062,3.9355,3.9316,3.9453,4.0294,4.0312,4.0332,4.1074,4.082,4.0605,4.0898,4.0937,4.0937,4.0937,4.1074,4.1211,4.1211,4.1211,4.1211,4.1211,4.1211,4.1211,4.1211,4.1211,4.1211,4.1211,4.1211,4.1211,4.1211,4.1211,4.1094,4.0937,4.0664,4.0176,3.9453,3.9141,3.8926,3.8789,3.8689,3.8747,1.3353,0.0,0.0,0.0,0.0,1.977,2.1577,0.0,0.0,0.0,0.0,0.0,0.0,0.0,0.0,0.0,0.0,0.0,0.0,0.0,0.0,0.0,0.0,0.0,0.0,0.0,0.0,0.0,0.0,0.0,2.6694,2.6587,2.6306,2.5864,2.565,2.5518,2.5518,2.5411,2.5371,2.5371,2.5371,2.5317,2.5173,2.5024,2.493,2.4917,2.4679,2.4599,2.4599,2.4599,2.4599,2.4599,2.4599,2.4756,2.493,2.493,2.505,2.5211,2.5211,2.6364,2.7831,2.7831,2.9013,3.0438,3.0438,3.0938,3.1727,3.3079,3.4434,3.5812,3.7179,3.8389,3.9316,3.9785,3.9668,3.9629,4.0371,4.0312,4.0312,4.1074,4.0937,4.084,4.1172,4.1211,4.1211,4.1211,4.1211,4.1211,4.1211,4.1211,4.1211,4.1211,4.1211,4.1211,4.1211,4.1211,4.1211,4.1211,4.1211,4.1211,4.1211,4.1211,4.1211,4.1211,4.0879,4.0371,3.9648,3.9492,3.9297,3.906,3.906,3.916,0.0,0.0,0.0,0.0,0.0,0.0,2.0147,0.0,0.0,0.0,0.0,0.0,0.0,0.0,0.0,0.0,0.0,0.0,0.0,0.0,0.0,0.0,0.0,0.0,0.0,0.0,0.0,0.0,2.6734,2.6373,2.636,2.6131,2.5837,2.5504,2.4906,2.4866,2.5478,2.5211,2.5101,2.5101,2.5101,2.4917,2.4599,2.4599,2.4599,2.4599,2.4599,2.4599,2.4599,2.4599,2.4599,2.4599,2.4599,2.4599,2.4599,2.4599,2.4599,2.4599,2.4599,2.4986,2.5518,2.5518,2.5905,2.6386,2.6386,2.7762,2.9332,2.9371,3.2244,3.5348,3.5421,3.7315,3.9336,3.9749,3.9884,4.0019,4.0449,4.0508,4.0664,4.1094,4.1211,4.1211,4.1211,4.1211,4.1211,4.1211,4.1211,4.1211,4.1211,4.1211,4.1211,4.1211,4.1211,4.1211,4.1211,4.1211,4.1211,4.1211,4.1211,4.1211,4.1211,4.1211,4.1211,4.1211,4.1211,4.0957,4.0489,4.0117,3.9902,3.9902,3.9902,3.9922,1.1868,0.0,0.0,0.0,0.0,0.0,0.0,0.0,0.0,0.0,0.0,0.0,0.0,0.0,0.0,0.0,0.0,0.0,0.0,0.0,0.0,0.0,0.0,0.0,0.0,0.0,0.0,0.0,2.6212,2.5985,2.5772,2.5478,2.5329,2.5197,2.4799,2.4679,2.4839,2.4796,2.4756,2.4756,2.4756,2.4679,2.4599,2.4599,2.4599,2.4599,2.4599,2.4599,2.4599,2.4599,2.4599,2.4599,2.4599,2.4599,2.4599,2.4599,2.4599,2.4599,2.4599,2.4986,2.5518,2.5518,2.5905,2.6386,2.6386,2.6768,2.7541,2.8983,3.0192,3.1571,3.3597,3.6909,3.9486,3.8656,3.9412,4.0469,4.0898,4.0996,4.1035,4.1191,4.1211,4.1211,4.1211,4.1211,4.1211,4.1211,4.1211,4.1211,4.1211,4.1211,4.1211,4.1211,4.1211,4.1211,4.1211,4.1211,4.1211,4.1211,4.1211,4.1211,4.1211,4.1211,4.1211,4.1211,4.1211,4.0957,4.0489,4.041,4.0195,3.9902,4.0215,4.0313,0.0,0.0,0.0,0.0,0.0,0.0,1.528,1.6136,0.0,0.0,0.0,0.0,0.0,0.0,0.0,0.0,0.0,0.0,0.0,0.0,0.0,0.0,0.0,0.0,0.0,2.5865,2.5772,2.5772,2.5772,2.5638,2.5344,2.505,2.489,2.489,2.4693,2.4599,2.4599,2.4599,2.4599,2.4599,2.4599,2.4532,2.4412,2.4412,2.4359,2.4289,2.4359,2.4412,2.4426,2.4546,2.4599,2.4599,2.4599,2.4599,2.4599,2.4599,2.4599,2.4599,2.4599,2.4906,2.5344,2.5478,2.5825,2.6265,2.636,2.6386,2.6663,2.7801,2.8749,3.005,3.2872,3.6106,3.8478,3.7992,3.9382,4.0859,4.1152,4.1211,4.1211,4.1211,4.1211,4.1211,4.1211,4.1211,4.1211,4.1211,4.1211,4.1211,4.1211,4.1211,4.1211,4.1211,4.1211,4.1211,4.1211,4.1211,4.1211,4.1211,4.1211,4.1211,4.1211,4.1211,4.1211,4.1211,4.1211,4.1093,4.0801,4.0801,4.0664,4.043,4.0684,4.0801,0.0,0.0,0.0,0.0,0.0,0.0,1.5294,1.5401,1.5712,0.0,0.0,0.0,0.0,0.0,0.0,0.0,0.0,0.0,0.0,0.0,0.0,0.0,0.0,0.0,2.5384,2.5384,2.5371,2.5371,2.5371,2.5264,2.5037,2.4746,2.4586,2.4559,2.4559,2.4532,2.4506,2.4532,2.4532,2.4506,2.4532,2.4412,2.4209,2.4168,2.4035,2.387,2.4062,2.4155,2.4182,2.4426,2.4572,2.4599,2.4599,2.4599,2.4599,2.4599,2.4599,2.4599,2.4599,2.4836,2.5117,2.5384,2.5665,2.5998,2.6253,2.6346,2.6346,2.6373,2.7897,3.0024,3.2315,3.4898,3.703,3.7439,3.9413,4.1211,4.1211,4.1211,4.1211,4.1211,4.1211,4.1211,4.1211,4.1211,4.1211,4.1211,4.1211,4.1211,4.1211,4.1211,4.1211,4.1211,4.1211,4.1211,4.1211,4.1211,4.1211,4.1211,4.1211,4.1211,4.1211,4.1211,4.1211,4.1211,4.1211,4.1211,4.1211,4.1211,4.1211,4.1211,4.1211,4.1211,0.0,0.0,0.0,0.0,0.0,0.0,1.2791,1.2677,1.2992,0.0,0.0,0.0,0.0,0.0,0.0,0.0,0.0,0.0,0.0,0.0,0.0,0.0,0.0,0.0,2.4719,2.4596,2.4462,2.4462,2.4462,2.4543,2.4679,2.4639,2.4492,2.4289,2.4289,2.4168,2.3977,2.4168,2.4168,2.3941,2.4168,2.4262,2.4195,2.3968,2.3991,2.4115,2.3928,2.3884,2.391,2.4168,2.4422,2.4599,2.4599,2.4599,2.4599,2.4599,2.4599,2.4599,2.4599,2.4836,2.5128,2.5144,2.5358,2.5651,2.5984,2.6078,2.6131,2.6319,2.8273,3.0017,2.8811,3.309,3.7302,3.5708,3.831,4.1211,4.1211,4.1211,4.1211,4.1211,4.1211,4.1211,4.1211,4.1211,4.1211,4.1211,4.1211,4.1211,4.1211,4.1211,4.1211,4.1211,4.1211,4.1211,4.1211,4.1211,4.1211,4.1211,4.1211,4.1211,4.1211,4.1211,4.1211,4.1211,4.1211,4.1211,4.1211,4.1211,4.1211,4.1211,4.1211,4.1211,0.0,0.0,0.0,1.2345,0.0,0.0,0.0,1.2342,1.2596,1.3433,0.0,0.0,0.0,0.0,0.0,0.0,0.0,0.0,0.0,0.0,0.0,0.0,0.0,0.0,2.3892,2.3812,2.3834,2.3981,2.3981,2.4048,2.4195,2.4209,2.4142,2.3995,2.3981,2.395,2.3803,2.3915,2.3981,2.3981,2.3981,2.3981,2.3981,2.3688,2.3541,2.3541,2.3541,2.3554,2.3581,2.4022,2.4289,2.4399,2.4546,2.4599,2.4599,2.4599,2.4599,2.4599,2.4599,2.4693,2.489,2.5037,2.5277,2.5571,2.5904,2.6091,2.6279,2.652,2.7588,2.8482,2.7689,3.1751,3.584,3.4942,3.8033,4.1211,4.1211,4.1211,4.1211,4.1211,4.1211,4.1211,4.1211,4.1211,4.1211,4.1211,4.1211,4.1211,4.1211,4.1211,4.1211,4.1211,4.1211,4.1211,4.1211,4.1211,4.1211,4.1211,4.1211,4.1211,4.1211,4.1211,4.1211,4.1211,4.1211,4.1211,4.1211,4.1211,4.1211,4.1211,4.1211,4.1211,0.0,0.0,0.0,0.0,0.0,1.2532,0.0,0.0,0.0,1.2967,0.0,0.0,0.0,0.0,0.0,0.0,0.0,0.0,0.0,0.0,0.0,0.0,0.0,0.0,0.0,2.2678,2.2913,2.3589,2.3375,2.3388,2.379,2.3803,2.3777,2.3723,2.3688,2.3696,2.3629,2.3696,2.3768,2.3941,2.3768,2.3688,2.3674,2.338,2.314,2.3,2.3153,2.3233,2.3287,2.3875,2.4115,2.4155,2.4466,2.4599,2.4599,2.4599,2.4599,2.4599,2.4599,2.4599,2.4653,2.4983,2.5317,2.5638,2.5917,2.6198,2.6453,2.6734,2.6867,2.7028,2.7562,3.0673,3.3846,3.4545,3.7697,4.0685,4.1094,4.1211,4.1211,4.1211,4.1211,4.1211,4.1211,4.1211,4.1211,4.1211,4.1211,4.1211,4.1211,4.1211,4.1211,4.1211,4.1211,4.1211,4.1211,4.1211,4.1211,4.1211,4.1211,4.1211,4.1211,4.1211,4.1211,4.1211,4.1211,4.1211,4.1211,4.1211,4.1211,4.1211,4.1211,4.1211,0.0,0.0,0.0,0.0,1.2719,0.0,0.0,0.0,1.1806,1.1095,0.0,0.0,0.0,0.0,0.0,0.0,0.0,0.0,0.0,0.0,0.0,0.0,0.0,0.0,0.0,2.0508,2.0975,2.2853,2.1796,2.1863,2.371,2.3803,2.3647,2.338,2.3345,2.3247,2.3,2.3233,2.326,2.3054,2.326,2.3345,2.3332,2.306,2.3046,2.3225,2.3054,2.2947,2.3,2.3603,2.3857,2.391,2.4386,2.4599,2.4599,2.4599,2.4599,2.4599,2.4599,2.4599,2.4653,2.4983,2.5489,2.5957,2.5984,2.6198,2.6453,2.6734,2.7014,2.7295,2.7615,2.9711,3.2196,3.4246,3.6522,3.8803,4.0763,4.1211,4.1211,4.1211,4.1211,4.1211,4.1211,4.1211,4.1211,4.1211,4.1211,4.1211,4.1211,4.1211,4.1211,4.1211,4.1211,4.1211,4.1211,4.1211,4.1211,4.1211,4.1211,4.1211,4.1211,4.1211,4.1211,4.1211,4.1211,4.1211,4.1211,4.1211,4.1211,4.1211,4.1211,4.1211,0.0,0.0,0.0,0.0,0.0,0.0,0.0,0.0,1.141,0.0,0.0,0.0,0.0,0.0,0.0,0.0,0.0,0.0,0.0,0.0,0.0,0.0,0.0,0.0,0.0,0.0,0.0,0.0,2.0739,2.0922,2.2679,2.2899,2.3006,2.306,2.306,2.2993,2.2893,2.3027,2.3086,2.3126,2.3086,2.3153,2.3278,2.3006,2.2974,2.3046,2.296,2.2893,2.2934,2.334,2.3621,2.3843,2.4222,2.4452,2.4599,2.4599,2.4599,2.4599,2.4599,2.4599,2.4679,2.5184,2.565,2.6024,2.6198,2.6293,2.6453,2.6734,2.7041,2.7376,2.7629,2.9533,3.164,3.2571,3.5379,3.8134,3.908,4.0314,4.1211,4.1211,4.1211,4.1211,4.1211,4.1211,4.1211,4.1211,4.1211,4.1211,4.1211,4.1211,4.1211,4.1211,4.1211,4.1211,4.1211,4.1211,4.1211,4.1211,4.1211,4.1211,4.1211,4.1211,4.1211,4.1211,4.1211,4.1211,4.1211,4.1211,4.1211,4.1211,4.1211,4.1211,1.2417,0.0,0.0,0.0,0.0,0.0,0.0,0.0,0.0,0.0,0.0,0.0,0.0,0.0,0.0,0.0,0.0,0.0,0.0,0.0,0.0,0.0,0.0,0.0,0.0,0.0,0.0,0.0,0.0,1.9599,2.163,2.2031,2.2352,2.276,2.2853,2.2893,2.2893,2.2893,2.3014,2.3193,2.3,2.3014,2.3193,2.3,2.2893,2.2893,2.2893,2.2893,2.292,2.3287,2.3581,2.3843,2.4182,2.4412,2.4599,2.4599,2.4599,2.4599,2.4599,2.4706,2.4906,2.5371,2.5772,2.6158,2.6319,2.6386,2.6466,2.6841,2.7094,2.7389,2.7722,2.916,3.0661,3.1283,3.3839,3.6442,3.7657,3.9158,4.047,4.1094,4.1211,4.1211,4.1211,4.1211,4.1211,4.1211,4.1211,4.1211,4.1211,4.1211,4.1211,4.1211,4.1211,4.1211,4.1211,4.1211,4.1211,4.1211,4.1211,4.1211,4.1211,4.1211,4.1211,4.1211,4.1211,4.1211,4.1211,4.1211,4.1211,4.1211,4.1211,4.1211,0.0,0.0,0.0,1.2288,0.0,0.0,0.0,0.0,1.2104,0.0,0.0,0.0,0.0,0.0,0.0,0.0,0.0,0.0,0.0,0.0,0.0,0.0,0.0,0.0,0.0,0.0,0.0,0.0,0.0,0.0,2.0949,2.1448,2.1877,2.2418,2.2746,2.2893,2.2893,2.2893,2.2893,2.2907,2.2893,2.2893,2.2907,2.2893,2.2893,2.2893,2.2893,2.2893,2.2947,2.3549,2.3803,2.387,2.4396,2.4586,2.4599,2.4599,2.4599,2.4599,2.4599,2.4973,2.5491,2.5504,2.5905,2.6373,2.6386,2.6386,2.6507,2.7135,2.7296,2.7443,2.8018,2.8263,2.8838,3.091,3.1516,3.2776,3.7002,3.7975,3.8627,4.0763,4.1211,4.1211,4.1211,4.1211,4.1211,4.1211,4.1211,4.1211,4.1211,4.1211,4.1211,4.1211,4.1211,4.1211,4.1211,4.1211,4.1211,4.1211,4.1211,4.1211,4.1211,4.1211,4.1211,4.1211,4.1211,4.1211,4.1211,4.1211,4.1211,4.1211,4.1211,4.1211,0.0,0.0,1.5695,1.3822,0.0,0.0,0.0,0.0,0.0,0.0,0.0,0.0,0.0,0.0,0.0,0.0,0.0,0.0,0.0,0.0,0.0,0.0,0.0,0.0,0.0,0.0,0.0,0.0,0.0,0.0,0.0,2.0739,2.1274,2.1863,2.2311,2.2565,2.2565,2.2565,2.2672,2.2893,2.2505,2.2412,2.2565,2.2565,2.2565,2.2579,2.2813,2.2893,2.2934,2.33,2.3594,2.3843,2.4195,2.4426,2.4599,2.4599,2.4719,2.4957,2.5144,2.5478,2.5837,2.5837,2.6105,2.6386,2.6386,2.6386,2.6466,2.6867,2.7108,2.7403,2.7791,2.8031,2.8389,2.9118,3.0385,3.1805,3.3267,3.4732,3.6,3.6762,3.69,3.69,3.69,3.8073,3.9492,4.0977,4.1211,4.1211,4.1211,4.1211,4.1211,4.1211,4.1211,4.1211,4.1211,4.1211,4.1211,4.1211,4.1211,4.1211,4.1211,4.1211,4.1211,4.1211,4.1211,4.1211,4.1211,4.1211,4.1211,4.1211,4.1211,4.1211,1.5668,1.6458,0.0,1.5137,1.5137,0.0,1.2967,0.0,0.0,0.0,0.0,0.0,0.0,0.0,0.0,0.0,0.0,0.0,0.0,1.076,0.0,0.0,0.0,0.0,0.0,0.0,0.0,0.0,0.0,0.0,0.0,0.0,2.0712,2.1408,2.2058,2.2385,2.2385,2.2385,2.2512,2.2733,2.2218,2.2084,2.2271,2.2378,2.2385,2.2432,2.276,2.2893,2.292,2.3193,2.35,2.383,2.4088,2.4346,2.4599,2.4599,2.4823,2.5117,2.5411,2.5705,2.5998,2.5998,2.6185,2.6386,2.6386,2.6386,2.6453,2.6734,2.7041,2.7376,2.7629,2.7965,2.8179,2.8179,2.9244,3.0468,3.1241,3.2546,3.3757,3.453,3.4692,3.4692,3.4692,3.5822,3.7498,3.9688,4.0685,4.1211,4.1211,4.1211,4.1211,4.1211,4.1211,4.1211,4.1211,4.1211,4.1211,4.1211,4.1211,4.1211,4.1211,4.1211,4.1308,4.1621,4.1367,4.1328,4.1621,4.1328,4.1211,4.1211,4.1211,4.1211]},{"header":{"parameterUnit":"m.s-1","parameterCategory":1,"la1":30.6,"la2":29.2853,"lo1":-89.7004,"lo2":-87.6739,"dy":0.0162,"dx":0.0183,"nx":112,"ny":82,"refTime":"2023-04-22T18:00:00:Z","depth":0,"parameterNumber":3,"parameterNumberName":"V-component_of_WINDS"},"data":[0.0,0.0,0.0,0.0,0.0,0.0,0.0,0.0,0.0,0.0,0.0,0.0,0.0,0.0,0.0,0.0,0.0,0.0,0.0,0.0,0.0,0.0,0.0,0.0,0.0,0.0,0.0,0.0,0.0,0.0,0.0,0.0,0.0,0.0,0.0,0.0,0.0,0.0,0.0,0.0,0.0,0.0,0.0,0.0,0.0,0.0,0.0,0.0,0.0,0.0,0.0,0.0,0.0,0.0,0.0,0.0,0.0,0.0,0.0,0.0,0.0,0.0,0.0,0.0,0.0,0.0,0.0,0.0,0.0,0.0,0.0,0.0,0.0,0.0,0.0,0.0,0.0,0.0,0.0,0.0,0.0,0.0,0.0,0.0,0.0,0.0,0.0,0.0,0.0,0.0,0.0,2.111,2.5535,2.8553,2.9006,2.8398,2.7153,2.5221,0.0,0.0,0.0,0.0,0.0,0.0,0.0,0.0,0.0,0.0,0.0,0.0,0.0,0.0,0.0,0.0,0.0,0.0,0.0,0.0,0.0,0.0,0.0,0.0,0.0,0.0,0.0,0.0,0.0,0.0,0.0,0.0,0.0,0.0,0.0,0.0,0.0,0.0,0.0,0.0,0.0,0.0,0.0,0.0,0.0,0.0,0.0,0.0,0.0,0.0,0.0,0.0,0.0,0.0,0.0,0.0,0.0,0.0,0.0,0.0,0.0,0.0,0.0,0.0,0.0,0.0,0.0,0.0,0.0,0.0,0.0,0.0,0.0,0.0,0.0,0.0,0.0,0.0,0.0,0.0,0.0,0.0,0.0,0.0,0.0,0.0,0.0,0.0,0.0,0.0,0.0,0.0,0.0,0.0,0.0,0.0,0.0,0.0,0.0,0.0,0.0,0.0,0.0,0.0,2.1096,2.536,2.8044,2.9555,2.9659,2.8291,2.7137,2.6459,0.0,0.0,0.0,0.0,0.0,0.0,0.0,0.0,0.0,0.0,0.0,0.0,0.0,0.0,0.0,0.0,0.0,0.0,0.0,0.0,0.0,0.0,0.0,0.0,0.0,0.0,0.0,0.0,0.0,0.0,0.0,0.0,0.0,0.0,0.0,0.0,0.0,0.0,0.0,0.0,0.0,0.0,0.0,0.0,0.0,0.0,0.0,0.0,0.0,0.0,0.0,0.0,0.0,0.0,0.0,0.0,0.0,0.0,0.0,0.0,0.0,0.0,0.0,0.0,0.0,0.0,0.0,0.0,0.0,0.0,0.0,0.0,0.0,0.0,0.0,0.0,0.0,0.0,0.0,0.0,0.0,0.0,0.0,0.0,0.0,0.0,0.0,0.0,0.0,0.0,0.0,0.0,0.0,0.0,0.0,0.0,0.0,0.0,0.0,0.0,0.0,0.0,0.0,2.0949,2.3515,2.7507,2.9048,2.9804,2.9804,2.7989,2.6951,2.7171,2.407,0.0,0.0,0.0,0.0,0.0,0.0,0.0,0.0,0.0,0.0,0.0,0.0,0.0,0.0,0.0,0.0,0.0,0.0,0.0,0.0,0.0,0.0,0.0,0.0,0.0,0.0,0.0,0.0,0.0,0.0,0.0,0.0,0.0,0.0,0.0,0.0,0.0,0.0,0.0,0.0,0.0,0.0,0.0,0.0,0.0,0.0,0.0,0.0,0.0,0.0,0.0,0.0,0.0,0.0,0.0,0.0,0.0,0.0,0.0,0.0,0.0,0.0,0.0,0.0,0.0,0.0,0.0,0.0,0.0,0.0,0.0,0.0,0.0,0.0,0.0,0.0,0.0,0.0,0.0,0.0,0.0,0.0,0.0,0.0,0.0,0.0,0.0,0.0,0.0,0.0,0.0,0.0,0.0,0.0,0.0,0.0,0.0,0.0,0.0,0.0,0.0,0.0,2.3651,2.5606,2.8756,2.9528,2.9804,2.9804,2.7781,2.6901,2.7802,2.3871,0.0,0.0,0.0,0.0,0.0,0.0,0.0,0.0,0.0,0.0,0.0,0.0,0.0,0.0,0.0,0.0,0.0,0.0,0.0,0.0,0.0,0.0,0.0,0.0,0.0,0.0,0.0,0.0,0.0,0.0,0.0,0.0,0.0,0.0,0.0,0.0,0.0,0.0,0.0,0.0,0.0,0.0,0.0,0.0,0.0,0.0,0.0,0.0,0.0,0.0,0.0,0.0,0.0,0.0,0.0,0.0,0.0,0.0,0.0,0.0,0.0,0.0,0.0,0.0,0.0,0.0,0.0,0.0,0.0,0.0,0.0,0.0,0.0,0.0,0.0,0.0,0.0,0.0,0.0,0.0,0.0,0.0,0.0,0.0,0.0,0.0,0.0,0.0,0.0,0.0,0.0,0.0,0.0,0.0,0.0,0.0,0.0,0.0,0.0,0.0,0.0,0.0,2.4719,2.6846,2.9451,2.9754,2.9804,2.9804,2.7781,2.7112,2.8524,2.4142,0.0,0.0,0.0,0.0,0.0,0.0,0.0,0.0,0.0,0.0,0.0,0.0,0.0,0.0,0.0,0.0,0.0,0.0,0.0,0.0,0.0,0.0,0.0,0.0,0.0,0.0,0.0,0.0,0.0,0.0,0.0,0.0,0.0,0.0,0.0,0.0,0.0,0.0,0.0,0.0,0.0,0.0,0.0,0.0,0.0,0.0,0.0,0.0,0.0,0.0,0.0,0.0,0.0,0.0,0.0,0.0,0.0,0.0,0.0,0.0,0.0,0.0,0.0,0.0,0.0,0.0,0.0,0.0,0.0,0.0,0.0,0.0,0.0,0.0,0.0,0.0,0.0,0.0,0.0,0.0,0.0,0.0,0.0,0.0,0.0,0.0,0.0,0.0,0.0,0.0,0.0,0.0,0.0,0.0,0.0,0.0,0.0,0.0,0.0,0.0,0.0,0.0,2.565,2.7568,0.0,2.9804,2.9804,2.9804,2.7781,2.7129,2.8604,0.0,0.0,0.0,0.0,0.0,0.0,0.0,0.0,0.0,0.0,0.0,0.0,0.0,0.0,0.0,0.0,0.0,0.0,0.0,0.0,0.0,0.0,0.0,0.0,0.0,0.0,0.0,0.0,0.0,0.0,0.0,0.0,0.0,0.0,0.0,0.0,0.0,0.0,0.0,0.0,0.0,0.0,0.0,0.0,0.0,0.0,0.0,0.0,0.0,0.0,0.0,0.0,0.0,0.0,0.0,0.0,0.0,0.0,0.0,0.0,0.0,0.0,0.0,0.0,0.0,0.0,0.0,0.0,0.0,0.0,0.0,0.0,0.0,0.0,0.0,0.0,0.0,0.0,0.0,0.0,0.0,0.0,0.0,0.0,0.0,0.0,0.0,0.0,0.0,0.0,0.0,0.0,0.0,0.0,0.0,0.0,0.0,0.0,0.0,0.0,0.0,0.0,2.4649,2.6477,2.8122,0.0,2.9804,2.9704,2.9528,2.7336,2.6625,2.8239,0.0,0.0,0.0,0.0,0.0,0.0,0.0,0.0,0.0,0.0,0.0,0.0,0.0,0.0,0.0,0.0,0.0,0.0,0.0,0.0,0.0,0.0,0.0,0.0,0.0,0.0,0.0,0.0,0.0,0.0,0.0,0.0,0.0,0.0,0.0,0.0,0.0,0.0,0.0,0.0,0.0,0.0,0.0,0.0,0.0,0.0,0.0,0.0,0.0,0.0,0.0,0.0,0.0,0.0,0.0,0.0,0.0,0.0,0.0,0.0,0.0,0.0,0.0,0.0,0.0,0.0,0.0,0.0,0.0,0.0,0.0,0.0,0.0,0.0,0.0,0.0,0.0,0.0,0.0,0.0,0.0,0.0,0.0,0.0,0.0,0.0,0.0,0.0,0.0,0.0,0.0,0.0,0.0,0.0,0.0,0.0,0.0,0.0,0.0,0.0,0.0,0.0,2.569,2.7255,2.8549,2.9679,2.9804,2.9553,2.8938,2.6397,2.5612,0.0,0.0,0.0,0.0,0.0,0.0,0.0,0.0,0.0,0.0,0.0,0.0,0.0,0.0,0.0,0.0,0.0,0.0,0.0,0.0,0.0,0.0,0.0,0.0,0.0,0.0,0.0,0.0,0.0,0.0,0.0,0.0,0.0,0.0,0.0,0.0,0.0,0.0,0.0,0.0,0.0,0.0,0.0,0.0,0.0,0.0,0.0,0.0,0.0,0.0,0.0,0.0,0.0,0.0,0.0,0.0,0.0,0.0,0.0,0.0,0.0,0.0,0.0,0.0,0.0,0.0,0.0,0.0,0.0,0.0,0.0,0.0,0.0,0.0,0.0,0.0,0.0,0.0,0.0,0.0,0.0,0.0,0.0,0.0,0.0,0.0,0.0,0.0,0.0,0.0,0.0,0.0,0.0,0.0,0.0,0.0,0.0,0.0,0.0,0.0,0.0,0.0,0.0,2.665,2.795,2.8957,2.9704,2.9804,2.9553,2.8938,2.6724,2.601,2.7502,0.0,0.0,0.0,0.0,0.0,0.0,0.0,0.0,0.0,0.0,0.0,0.0,0.0,0.0,0.0,0.0,0.0,0.0,0.0,0.0,0.0,0.0,0.0,0.0,0.0,0.0,0.0,0.0,0.0,0.0,0.0,0.0,0.0,0.0,0.0,0.0,0.0,0.0,0.0,0.0,0.0,0.0,0.0,0.0,0.0,0.0,0.0,0.0,0.0,0.0,0.0,0.0,0.0,0.0,0.0,0.0,0.0,0.0,0.0,0.0,0.0,0.0,0.0,0.0,0.0,0.0,0.0,0.0,0.0,0.0,0.0,0.0,0.0,0.0,0.0,0.0,0.0,0.0,0.0,0.0,0.0,0.0,0.0,0.0,0.0,0.0,0.0,0.0,0.0,0.0,0.0,0.0,0.0,0.0,0.0,0.0,0.0,0.0,0.0,0.0,0.0,0.0,2.7662,2.8505,2.9132,2.9729,2.9804,2.9553,2.8938,2.6866,2.5953,2.6742,0.0,0.0,0.0,0.0,0.0,0.0,0.0,0.0,0.0,0.0,0.0,0.0,0.0,0.0,0.0,0.0,0.0,0.0,0.0,0.0,0.0,0.0,0.0,0.0,0.0,0.0,0.0,0.0,0.0,0.0,0.0,0.0,0.0,0.0,0.0,0.0,0.0,0.0,0.0,0.0,0.0,0.0,0.0,0.0,0.0,0.0,0.0,0.0,0.0,0.0,0.0,0.0,0.0,0.0,0.0,0.0,0.0,0.0,0.0,0.0,0.0,0.0,0.0,0.0,0.0,0.0,0.0,0.0,0.0,0.0,0.0,0.0,0.0,0.0,0.0,0.0,0.0,0.0,0.0,0.0,0.0,0.0,0.0,0.0,0.0,0.0,0.0,0.0,0.0,0.0,0.0,0.0,0.0,0.0,0.0,0.0,0.0,0.0,0.0,0.0,0.0,0.0,2.8612,2.8957,2.9183,2.9729,2.9804,2.9553,2.8938,2.6866,2.5611,2.5661,0.0,0.0,0.0,0.0,0.0,0.0,0.0,0.0,0.0,0.0,0.0,0.0,0.0,0.0,0.0,0.0,0.0,0.0,0.0,0.0,0.0,0.0,0.0,0.0,0.0,0.0,0.0,0.0,0.0,0.0,0.0,0.0,0.0,0.0,0.0,0.0,0.0,0.0,0.0,0.0,0.0,0.0,0.0,0.0,0.0,0.0,0.0,0.0,0.0,0.0,0.0,0.0,0.0,0.0,0.0,0.0,0.0,0.0,0.0,0.0,1.8543,0.0,0.0,0.0,0.0,0.0,0.0,0.0,0.0,0.0,0.0,0.0,0.0,0.0,0.0,0.0,0.0,0.0,0.0,0.0,0.0,0.0,0.0,0.0,0.0,0.0,0.0,0.0,0.0,0.0,0.0,0.0,0.0,0.0,0.0,0.0,0.0,0.0,0.0,0.0,0.0,0.0,2.8787,2.9308,2.9654,2.9798,2.9804,2.9553,2.8938,2.6866,2.5804,2.6273,0.0,0.0,0.0,0.0,0.0,0.0,0.0,0.0,0.0,0.0,0.0,0.0,0.0,0.0,0.0,0.0,0.0,0.0,0.0,0.0,0.0,0.0,0.0,0.0,0.0,0.0,0.0,0.0,0.0,0.0,0.0,0.0,0.0,0.0,0.0,0.0,0.0,0.0,0.0,0.0,0.0,0.0,0.0,0.0,0.0,0.0,0.0,0.0,0.0,0.0,0.0,0.0,0.0,0.0,0.0,0.0,0.0,0.0,0.0,0.0,0.0,2.0061,0.0,0.0,0.0,0.0,0.0,0.0,0.0,0.0,0.0,0.0,0.0,0.0,0.0,0.0,0.0,0.0,0.0,0.0,0.0,0.0,0.0,0.0,0.0,0.0,0.0,0.0,0.0,0.0,0.0,0.0,0.0,0.0,0.0,0.0,0.0,0.0,0.0,0.0,0.0,0.0,2.9609,3.0171,3.0579,3.0817,3.1021,3.0846,3.0076,2.822,2.6789,2.6114,2.4456,0.0,0.0,0.0,0.0,0.0,0.0,0.0,0.0,0.0,0.0,0.0,0.0,0.0,0.0,0.0,0.0,0.0,0.0,0.0,0.0,0.0,0.0,0.0,0.0,0.0,0.0,0.0,0.0,0.0,0.0,0.0,0.0,0.0,0.0,0.0,0.0,0.0,0.0,0.0,0.0,0.0,0.0,0.0,0.0,0.0,0.0,0.0,0.0,0.0,0.0,0.0,0.0,0.0,2.809,2.8373,2.8549,2.9032,2.895,2.8341,2.6096,2.3221,2.0211,0.0,0.0,0.0,0.0,0.0,0.0,0.0,0.0,0.0,0.0,0.0,0.0,0.0,0.0,0.0,0.0,0.0,0.0,0.0,0.0,0.0,0.0,0.0,0.0,0.0,2.7971,2.7587,0.0,0.0,0.0,0.0,0.0,0.0,0.0,0.0,0.0,0.0,0.0,0.0,3.0607,3.1152,3.1657,3.2205,3.2463,3.2218,3.1278,2.9654,2.7898,2.6005,2.5134,2.4089,0.0,0.0,0.0,0.0,0.0,0.0,0.0,0.0,0.0,0.0,0.0,0.0,0.0,0.0,0.0,0.0,0.0,0.0,0.0,0.0,0.0,0.0,0.0,0.0,0.0,0.0,0.0,0.0,0.0,0.0,0.0,0.0,2.2546,2.1058,0.0,0.0,0.0,0.0,0.0,0.0,0.0,0.0,0.0,0.0,0.0,0.0,0.0,2.777,2.89,2.9528,2.9459,2.8731,3.116,3.1607,3.0337,3.2746,3.3545,3.3043,3.3122,0.0,2.4607,2.2899,0.0,0.0,0.0,0.0,0.0,0.0,0.0,0.0,0.0,0.0,0.0,0.0,0.0,0.0,0.0,0.0,0.0,0.0,0.0,0.0,0.0,0.0,2.611,2.8275,2.9132,2.9302,0.0,2.7921,2.6852,2.5403,2.5159,0.0,0.0,0.0,0.0,0.0,0.0,0.0,3.1179,3.1892,3.268,3.3312,3.2916,3.2218,3.1278,2.9654,2.8247,2.7138,2.5209,2.423,2.4465,2.3672,0.0,0.0,0.0,0.0,0.0,0.0,0.0,0.0,0.0,0.0,0.0,0.0,0.0,0.0,0.0,0.0,0.0,0.0,0.0,0.0,0.0,0.0,0.0,0.0,0.0,0.0,0.0,0.0,0.0,2.4168,2.458,2.28,2.4669,2.524,0.0,0.0,0.0,0.0,0.0,0.0,0.0,0.0,0.0,2.71,2.9258,3.0638,3.1135,3.262,3.3574,3.4048,3.6068,3.6968,3.6913,3.8898,3.965,3.9314,3.8522,3.6271,3.2843,2.8373,2.5285,2.3311,0.0,0.0,0.0,0.0,2.4698,2.5075,2.4849,2.4412,0.0,0.0,0.0,0.0,0.0,0.0,0.0,0.0,0.0,0.0,0.0,0.0,0.0,2.9957,3.0507,3.0532,2.9986,2.9503,2.8787,0.0,2.7465,2.7629,2.7425,0.0,0.0,0.0,0.0,0.0,3.3015,3.3907,3.4597,3.489,3.484,3.4035,3.2137,3.105,2.9527,2.7443,2.6105,2.5209,2.4816,2.4324,2.4164,0.0,0.0,0.0,0.0,0.0,0.0,0.0,0.0,0.0,0.0,0.0,0.0,0.0,0.0,0.0,0.0,0.0,0.0,0.0,0.0,0.0,0.0,0.0,0.0,0.0,0.0,0.0,0.0,2.5631,2.6834,2.4626,2.6792,2.759,0.0,0.0,0.0,0.0,0.0,0.0,2.7462,2.9333,3.0462,3.0568,3.3022,3.4502,3.4853,3.6771,3.8469,3.9941,4.0988,4.1898,4.2706,4.3753,4.4185,4.401,4.2659,4.1143,3.9101,3.3104,2.9001,2.6473,2.6314,2.6314,2.654,2.7243,2.7587,2.7695,2.7544,2.716,2.665,2.6356,0.0,2.4773,2.5385,0.0,0.0,0.0,0.0,2.7783,2.8908,2.9839,3.075,3.1955,3.224,3.2064,3.1386,3.1235,3.0783,0.0,2.9258,2.9655,2.9897,0.0,0.0,0.0,0.0,3.4182,3.478,3.5751,3.6353,3.6282,3.6411,3.5528,3.3143,3.2232,3.0682,2.8035,2.7015,2.6055,2.5042,2.4741,2.4556,2.4406,0.0,0.0,0.0,0.0,0.0,0.0,0.0,0.0,0.0,0.0,0.0,0.0,0.0,0.0,0.0,0.0,0.0,0.0,0.0,0.0,0.0,0.0,0.0,0.0,0.0,0.0,0.0,0.0,0.0,2.6068,2.8857,0.0,0.0,0.0,0.0,2.7879,2.9333,3.0312,3.0387,3.2946,3.4653,3.5157,3.8366,4.0721,4.2063,4.3201,4.4214,4.5106,4.5179,4.5259,4.5315,4.5388,4.5413,4.5413,4.5312,4.3582,4.0391,3.5098,3.221,3.0859,2.8775,2.8279,2.8681,2.8247,2.838,2.8756,2.8247,2.7695,2.7336,2.7821,2.7261,2.6273,2.5753,2.6348,0.0,0.0,2.8413,2.9991,3.1059,3.1798,3.2658,3.4155,3.4527,3.4248,3.3215,3.2964,3.2185,0.0,2.8913,2.9232,3.0202,0.0,3.0967,3.2494,3.3984,3.5211,3.6028,3.6821,3.7336,3.7319,3.6849,3.5811,3.407,3.2612,3.1106,2.9486,2.7575,2.6223,2.5603,2.4582,2.4506,2.5485,2.4531,0.0,0.0,0.0,0.0,0.0,0.0,0.0,0.0,0.0,0.0,0.0,0.0,0.0,0.0,0.0,0.0,0.0,0.0,0.0,0.0,0.0,0.0,0.0,0.0,0.0,0.0,0.0,0.0,3.3177,3.5561,0.0,3.3266,3.2287,3.1883,3.1951,3.3616,3.5152,3.621,3.9799,4.2082,4.2628,4.4498,4.5758,4.6248,4.699,4.7527,4.7828,4.87,4.9105,4.9101,4.9624,4.9581,4.91,4.7846,4.6469,4.4836,4.1731,3.7903,3.3925,3.2796,3.247,3.2645,3.2821,3.3244,3.3621,3.3072,3.2746,3.2369,3.114,3.0733,3.0427,2.8819,2.9958,3.1428,2.9599,3.1631,3.4075,3.3008,3.3869,3.4987,3.4749,3.4703,3.4603,3.4223,3.4736,3.4881,3.3476,3.2312,3.1654,3.1992,3.3494,3.484,3.5412,3.683,3.7931,3.8233,3.8513,3.8344,3.7477,3.7225,3.6242,3.4196,3.3522,3.2595,3.1061,2.9878,2.901,2.8453,2.7326,2.6616,2.6431,2.5735,2.5348,0.0,0.0,0.0,0.0,0.0,0.0,0.0,0.0,0.0,0.0,0.0,0.0,0.0,0.0,0.0,0.0,0.0,0.0,0.0,0.0,0.0,0.0,0.0,0.0,0.0,0.0,3.6972,3.8272,4.0576,4.1307,3.9362,3.7843,3.727,3.803,3.9593,4.1257,4.2955,4.5741,4.7394,4.7787,4.8657,4.9149,4.9225,4.9792,5.0227,5.0469,5.1393,5.1825,5.1821,5.2307,5.2187,5.1481,5.0169,4.8894,4.7596,4.6308,4.291,3.8416,3.7225,3.6377,3.5857,3.6208,3.6609,3.6881,3.6523,3.6502,3.6371,3.4559,3.4236,3.4288,3.2789,3.3768,3.5008,3.3254,3.5058,3.7195,3.5683,3.6454,3.7454,3.6645,3.6445,3.6393,3.6211,3.6791,3.7187,3.6596,3.5399,3.4522,3.4656,3.6175,3.7606,3.8376,3.9206,3.981,4.0068,3.9888,3.9212,3.7883,3.7507,3.6718,3.4986,3.4327,3.3516,3.2337,3.1561,3.0893,3.0349,2.9378,2.8509,2.7786,2.6755,2.6135,2.5904,0.0,0.0,0.0,0.0,0.0,0.0,0.0,0.0,0.0,0.0,0.0,0.0,0.0,0.0,0.0,0.0,0.0,0.0,0.0,0.0,0.0,0.0,0.0,3.0791,3.7541,4.2002,4.0846,4.3539,4.4882,4.3343,4.3596,4.4492,4.5982,4.7175,4.8527,5.0233,5.0318,5.0319,5.0319,5.0684,5.1002,5.1279,5.1831,5.2501,5.3288,5.3288,5.3258,5.3258,5.3258,5.2869,5.2217,5.2217,5.0744,4.8384,4.8355,4.6836,4.4353,4.1879,3.9802,3.8163,3.8163,3.8163,3.8159,3.8214,3.8588,3.892,3.7825,3.7504,3.7532,3.7504,3.7552,3.7684,3.8193,3.8734,3.9178,3.9065,3.9535,3.9956,3.9913,3.9913,3.9719,3.9154,3.9086,3.8962,3.8443,3.7962,3.7737,3.8045,3.8118,3.8875,4.1121,4.0894,0.0,4.1343,4.0834,3.9888,3.8619,3.7853,3.7225,3.6583,3.5036,3.3879,3.3326,3.2393,3.1655,3.1138,3.0524,3.0019,2.9582,2.761,2.6601,2.6601,0.0,0.0,0.0,0.0,0.0,0.0,0.0,0.0,0.0,0.0,0.0,0.0,0.0,0.0,0.0,0.0,0.0,0.0,0.0,0.0,0.0,0.0,3.9439,3.9158,4.1384,4.4147,4.7168,4.9164,5.012,4.971,4.9727,4.9939,5.0376,5.1582,5.2528,5.3016,5.4388,5.5184,5.5184,5.4864,5.4933,5.5442,5.4704,5.4675,5.5384,5.4905,5.4665,5.461,5.4132,5.3563,5.2899,5.2396,5.1518,5.0348,4.9423,4.808,4.6396,4.429,4.2861,4.1986,4.1986,4.174,4.1325,4.0867,4.0848,4.0825,3.9612,3.9849,4.0503,4.0015,4.0815,4.1732,4.1028,4.2131,4.3068,4.0858,4.1081,4.1547,4.0213,3.9913,3.9858,3.9686,4.0681,4.1582,4.1403,4.2324,4.2474,4.0387,4.0666,4.1534,4.2632,4.2271,0.0,4.2111,4.1134,4.0247,3.9888,3.926,3.8374,3.7255,3.6735,3.6005,3.4925,3.4181,3.3686,3.3526,3.2909,3.2235,3.1462,2.9634,2.8673,0.0,0.0,0.0,0.0,0.0,0.0,0.0,0.0,0.0,0.0,0.0,0.0,0.0,0.0,0.0,0.0,0.0,0.0,0.0,0.0,0.0,0.0,4.1354,4.5194,4.7091,4.7399,4.8633,5.1894,5.3688,5.467,5.467,5.4635,5.4723,5.5014,5.5747,5.6187,5.6187,5.7295,5.7812,5.7543,5.6885,5.6761,5.7094,5.6346,5.6166,5.6581,5.6166,5.5837,5.5623,5.5209,5.4371,0.0,5.2809,5.2067,5.1146,5.0391,4.9492,0.0,0.0,0.0,0.0,0.0,4.3468,4.3369,4.2958,4.3006,4.3148,4.2389,4.2668,4.3206,4.2811,4.3436,4.4163,4.3437,4.4248,4.4915,4.3134,4.3218,4.3478,4.2416,4.216,4.216,4.216,4.2979,4.3734,4.3734,4.459,0.0,4.3372,4.3148,4.3299,4.3668,4.318,4.2761,4.2761,4.1624,4.0696,4.0427,3.932,3.8255,3.7477,3.6909,0.0,0.0,0.0,3.4937,3.4937,3.4152,0.0,0.0,0.0,3.0344,3.0119,0.0,0.0,0.0,2.7455,2.716,0.0,0.0,0.0,0.0,0.0,0.0,0.0,0.0,0.0,0.0,0.0,0.0,0.0,0.0,0.0,0.0,4.5454,4.9052,5.4162,5.4341,5.4366,5.5388,5.7184,5.8324,5.8324,5.8384,5.8683,5.9279,5.9338,5.9338,5.9338,0.0,0.0,0.0,0.0,5.7244,5.7304,5.7184,5.7124,5.7214,5.7124,5.6765,5.6192,5.6192,5.5144,5.3318,5.3318,5.2546,5.1295,5.1236,5.0757,4.9805,4.6865,4.5046,4.4036,4.3956,4.4264,4.4709,4.4651,0.0,0.0,4.5334,4.5394,4.5514,4.5424,4.5454,4.5514,4.5514,4.5514,4.5514,4.5424,4.5394,4.5394,4.5304,4.5304,4.5304,4.5304,4.5364,4.5394,4.5394,4.5454,4.5693,4.6211,4.5194,4.4326,4.4386,4.3788,4.329,4.329,4.2252,4.1283,4.0696,0.0,0.0,3.7507,3.6477,3.5729,3.5519,3.5519,3.5519,3.5519,3.4627,3.3951,3.3483,3.254,3.1818,3.1355,3.0352,3.0122,3.0609,2.8904,2.8172,0.0,0.0,0.0,0.0,0.0,0.0,0.0,0.0,0.0,0.0,0.0,0.0,0.0,0.0,0.0,4.6522,5.069,5.476,5.8441,5.8857,5.8441,5.7663,5.883,5.9697,5.9697,6.0206,6.0567,6.0715,6.0687,6.0687,6.0687,6.0206,5.9847,5.9697,5.856,5.8171,5.871,5.7633,5.7363,5.7905,0.0,0.0,5.6192,5.6192,5.5414,5.4012,5.4012,5.3264,5.1977,5.1415,5.0511,4.9374,4.8172,4.7592,4.7302,4.6749,4.6616,4.6664,4.6108,4.6369,4.6741,4.5633,4.6022,4.683,4.6271,4.648,0.0,4.692,4.692,4.68,4.6241,4.6121,4.5971,4.5424,4.5304,4.5304,4.5304,4.5723,4.6121,4.6121,4.654,4.68,4.636,4.5194,4.4476,4.5035,4.4087,4.329,4.329,4.2641,4.2171,4.2021,4.1164,3.9966,3.8332,3.7973,3.7165,3.5609,3.5519,3.5519,3.5519,3.5326,3.5155,3.5053,3.4088,3.3499,3.343,3.2472,3.2069,3.2098,2.9386,2.8599,0.0,0.0,0.0,0.0,0.0,0.0,0.0,0.0,0.0,0.0,0.0,3.7154,0.0,0.0,4.8245,5.1259,5.479,5.7962,6.0266,6.0894,6.0715,5.97,6.0505,6.1104,6.1104,6.1403,6.1613,6.1613,6.1613,6.1463,6.1134,6.1104,6.0954,6.0625,5.9967,5.976,6.0116,5.9458,5.9099,5.9099,5.877,5.8082,5.7154,5.7154,5.6256,5.47,5.47,5.3922,5.2636,5.1977,5.1139,5.0182,4.9523,4.9075,4.8768,4.8438,4.8319,4.8229,4.7549,4.7519,4.7638,4.6621,4.677,4.7249,4.6899,4.7018,4.7309,4.7309,4.7309,4.7219,4.6869,4.6779,4.6741,4.6381,4.6292,4.6292,4.6292,4.6561,4.6779,4.6779,4.7048,4.7189,4.6839,4.5971,4.5284,4.5304,4.4446,4.3818,4.3818,4.299,4.241,4.241,4.1194,3.9978,3.899,3.8302,3.7225,3.5609,3.6118,3.6161,3.5519,3.5818,3.5848,3.5519,3.5017,3.4756,3.4756,3.3756,3.3307,3.3244,3.1262,3.0657,0.0,0.0,0.0,0.0,0.0,0.0,0.0,0.0,3.5507,3.9139,4.1485,4.3487,4.561,4.9387,5.2965,5.5359,5.8082,6.0296,6.1493,6.2241,6.2421,6.1762,6.2032,6.2331,6.245,6.2361,6.2301,6.2301,6.2301,6.2061,6.1523,6.1882,6.1852,6.1313,6.1194,6.1076,6.1076,6.1076,6.0835,6.0266,6.0146,5.9458,5.8294,5.8145,5.7158,5.5538,5.5299,5.4491,5.3348,5.2665,5.2067,5.1535,5.0996,5.0481,4.9995,4.9486,4.9277,4.9217,4.8678,4.8409,4.8207,4.7818,4.7608,4.7489,4.7489,4.7489,4.7459,4.7339,4.7309,4.7309,4.7309,4.7309,4.7309,4.7309,4.7309,4.7309,4.7309,4.7309,4.7309,4.7309,4.7309,4.7309,4.7309,4.6839,4.6271,4.5603,4.4915,4.4446,4.4296,4.3389,4.2661,4.244,4.0954,3.981,3.9421,3.8165,3.6956,3.5922,3.6716,3.6776,3.5729,3.6207,3.6254,3.5699,3.5699,3.5759,3.5878,3.494,3.4557,3.4627,3.3873,3.3188,3.2079,3.2079,0.0,3.4771,3.562,3.714,0.0,0.0,4.3567,4.5815,4.7813,4.9275,4.9573,5.2922,5.6132,5.7547,6.0505,6.2898,6.3588,6.4276,6.4426,6.3767,6.3287,6.3227,6.3737,6.3288,6.2988,6.2988,6.2988,6.2958,6.2898,6.2361,6.2061,6.2002,6.1433,6.1076,6.1076,6.1076,6.1046,6.0984,6.0386,5.9697,5.8979,5.8354,5.7636,5.6825,5.5688,5.479,5.4042,5.3354,5.3049,5.2989,5.2899,5.2839,5.248,5.0145,4.9277,4.9299,4.9187,4.8798,4.8409,4.8917,4.8678,4.8199,4.8199,4.8199,4.8057,4.7459,4.7309,4.7309,4.7309,4.7309,4.7309,4.7309,4.7309,4.7309,4.7309,4.7309,4.7309,4.7309,4.7309,4.7309,4.7309,4.7249,4.6958,4.63,4.5633,4.4975,4.4356,4.4197,4.3658,4.253,4.2201,4.1343,3.9541,3.8165,3.7327,3.7195,3.6806,3.6553,3.6387,3.6464,3.6464,3.6404,3.6404,3.6656,3.7195,3.6526,3.6492,3.7012,3.6909,3.5334,3.4532,0.0,0.0,0.0,4.0576,4.291,4.5633,4.7309,4.8992,5.1409,5.3773,5.5722,5.6889,5.9099,6.1164,0.0,6.3887,6.4874,6.5144,6.5054,6.4755,6.4066,6.3468,6.3197,6.3467,6.3257,6.3108,6.3108,6.3108,6.3108,6.3108,6.2838,6.266,6.266,6.2391,6.2241,6.2241,6.2241,6.2061,6.1672,6.1403,6.0924,6.0236,5.9578,5.868,5.7633,5.6705,5.5927,5.5354,5.5055,5.4486,5.3773,5.3773,5.3533,5.3019,5.1552,5.0983,5.087,5.0092,4.962,4.9381,4.9307,4.9097,4.8887,4.8887,4.8887,4.8828,4.8528,4.8468,4.8468,4.8468,4.8468,4.8468,4.8468,4.8468,4.8468,4.8468,4.8147,4.7878,4.7878,4.7578,4.7309,4.7309,4.7309,4.7219,4.6899,4.63,4.5642,4.4975,4.4556,4.3808,4.253,4.2051,4.1164,3.9541,3.8883,3.8225,3.7464,3.7913,3.7853,3.7045,3.7404,3.7422,3.7015,3.7015,3.7165,3.7387,3.7135,3.7165,3.7387,3.7387,3.6682,3.6164,0.0,0.0,4.2342,4.5633,4.8745,5.081,5.3116,5.5607,5.8248,6.0506,6.2425,6.4106,6.4845,6.5498,6.6428,6.6762,6.6883,6.6883,6.5952,6.517,6.486,6.3656,6.3033,6.3548,6.3295,6.3108,6.3108,6.3108,6.3108,6.3108,6.3108,6.3108,6.3108,6.3108,6.3108,6.3108,6.3108,6.2868,6.2361,6.2181,6.1852,6.1373,6.0475,5.9458,5.8324,5.7663,5.7004,5.6462,5.6462,5.5777,5.476,5.476,5.4341,5.3677,5.2995,5.2636,5.2306,5.1146,5.0757,5.0637,5.0032,4.9816,4.9786,4.9606,4.9546,4.9516,4.9337,4.9277,4.9277,4.9277,4.9277,4.9277,4.9277,4.9277,4.9277,4.9277,4.8917,4.8588,4.8588,4.8027,4.7578,4.7578,4.7429,4.7309,4.7309,4.6869,4.6271,4.5394,4.4556,4.3688,4.275,4.2062,4.1224,4.0068,3.978,3.9182,3.8015,3.8673,3.8691,3.7734,3.8123,3.8153,3.7704,3.7674,3.7764,3.7956,3.7764,3.7764,3.7956,3.7956,3.8045,3.5805,0.0,4.1444,4.5992,5.0062,5.4007,5.7902,6.1481,6.4737,6.7361,6.8531,6.9334,7.0102,6.9089,6.8171,6.816,6.8679,6.9112,6.9112,6.7301,6.6204,6.6822,6.4094,6.2851,0.0,6.377,6.3108,6.3108,6.3108,6.3108,6.3108,6.3108,6.3108,6.3108,6.3108,6.3108,6.3108,6.3108,6.3108,6.3078,6.2391,6.2091,6.2032,6.0685,5.9727,5.9039,5.8354,5.7693,5.7064,5.7064,5.6701,5.6132,5.6132,5.5743,5.5059,5.4401,5.3713,5.3079,5.2366,5.2127,5.2037,5.1379,5.1146,5.1026,5.0368,5.0166,5.0039,4.9456,4.9277,4.9277,4.9277,4.9277,4.9277,4.9277,4.9277,4.9277,4.9277,4.9277,4.9247,4.9247,4.8738,4.8289,4.8289,4.7728,4.7309,4.7309,4.7279,4.68,4.5454,4.4147,4.3339,4.326,4.275,4.2081,4.1403,4.0726,4.0068,3.9391,3.8781,3.8409,3.8362,3.8409,3.8409,3.8362,3.8362,3.8691,3.9331,3.8691,3.8691,3.9331,3.9331,3.969,4.027,0.0,5.015,5.4846,5.9079,6.2921,6.6006,6.8021,6.9141,6.9065,6.7217,6.5388,6.4668,6.4491,6.4919,6.6322,6.924,7.1312,7.1312,7.0322,6.8776,6.6665,6.5833,0.0,0.0,0.0,0.0,6.4398,6.4429,6.4429,6.4429,6.4429,6.4429,6.4429,6.4429,6.4015,6.3108,6.3108,6.3108,6.3108,6.2868,6.251,6.2091,6.1613,6.1074,6.0416,5.9727,5.9308,5.9039,5.859,5.8052,5.7423,5.6974,5.6432,5.5803,5.5089,5.47,5.4366,5.3234,5.2869,5.2839,5.2606,5.2516,5.2396,5.1738,5.1528,5.1385,5.075,5.0571,5.0661,5.1109,5.1199,5.1199,5.1199,5.1199,5.1079,5.0661,5.0212,4.989,4.989,4.9374,4.8828,4.8379,4.8087,4.7818,4.7369,4.6899,4.648,4.6001,4.4775,4.3967,4.3967,4.302,4.2321,4.2081,4.1463,4.0756,4.0098,3.9858,3.9529,3.908,3.9062,3.926,3.9709,3.9738,4.0068,4.0726,4.0505,4.0505,4.0726,4.0726,4.0846,4.6186,5.1759,5.7494,6.2502,6.648,6.965,7.1627,7.259,7.2588,7.0798,6.7435,6.4342,6.2896,6.1658,6.1562,6.3742,6.6274,6.875,7.0885,6.9717,6.8479,6.7989,6.7314,0.0,0.0,0.0,0.0,6.5134,6.5328,6.5359,6.5114,6.6062,6.6515,6.6238,6.6238,6.5592,6.4207,6.3938,6.3564,6.3108,6.3108,6.2868,6.245,6.2211,6.1852,6.1403,6.0505,6.0114,6.0054,5.9368,5.871,5.8055,5.7633,5.7226,5.6784,5.6359,5.6298,5.6225,5.4236,5.3713,5.3857,5.3348,5.3354,5.3414,5.2755,5.2546,5.2456,5.2037,5.1917,5.2007,5.2456,5.2546,5.2546,5.2546,5.2546,5.2366,5.1708,5.1206,5.0847,5.0607,5.0062,4.9464,4.9045,4.8596,4.8057,4.7399,4.6929,4.657,4.633,4.5343,4.4586,4.4326,4.3569,4.29,4.244,4.2021,4.1463,4.0786,4.0756,4.0546,4.0127,4.0127,4.0307,4.0756,4.0756,4.0965,4.1403,4.1403,4.1403,4.1403,4.1403,4.1523,5.3229,5.8518,6.3491,6.8872,7.2127,7.4171,7.4787,7.5353,7.5014,7.2487,6.8904,6.5709,0.0,0.0,5.8585,6.0767,6.1,6.2901,6.8612,6.6525,6.6136,0.0,0.0,0.0,0.0,0.0,0.0,6.5731,0.0,6.6187,6.5515,6.8076,6.923,6.8498,6.844,6.7785,6.6385,6.5568,6.446,6.3108,6.3108,6.3108,6.3078,6.2421,6.2151,6.2061,6.0745,6.0176,6.0174,5.951,5.8877,5.8308,5.8301,5.8257,5.8204,5.818,5.8476,5.8474,5.5572,5.4925,5.517,5.3903,5.3884,5.4231,5.3566,5.3307,5.3258,5.3228,5.3247,5.3296,5.3326,5.3374,5.3423,5.3423,5.3423,5.3242,5.2581,5.236,5.2102,5.1473,5.0714,5.0196,5.0196,4.9134,4.8087,4.7459,4.7339,4.7048,4.642,4.5783,4.5095,4.4476,4.4356,4.3838,4.262,4.25,4.2201,4.1493,4.1463,4.1433,4.1403,4.1403,4.1403,4.1463,4.1463,4.1463,4.1493,4.1493,4.1493,4.1493,4.1493,4.1822,6.0837,6.6719,7.2213,7.5227,7.7271,7.843,7.807,7.6391,7.349,6.8405,6.2683,5.739,0.0,0.0,0.0,6.0024,6.6772,0.0,7.4575,7.4098,0.0,0.0,0.0,7.2475,7.2382,7.2523,0.0,0.0,7.0654,7.0297,7.068,7.1371,7.1451,7.0738,7.068,7.0013,6.859,6.6796,6.4975,6.3108,6.3108,6.3108,6.3108,6.2928,6.2868,6.2808,6.1942,6.1583,6.1577,6.1348,6.116,6.1019,6.1002,6.0985,6.0916,6.0422,6.0314,6.0339,5.9521,5.864,5.7814,5.7491,5.6895,5.6142,5.549,5.4643,5.3832,5.3348,5.3836,5.466,5.5152,5.5968,5.6645,5.6645,5.6645,5.6456,5.5784,5.4535,5.3476,5.3322,5.163,5.0196,5.0196,4.9134,4.8259,4.8057,4.7608,4.7249,4.707,4.645,4.5971,4.5822,4.5334,4.4706,4.3898,4.3808,4.3329,4.2231,4.2141,4.1912,4.1433,4.1403,4.1643,4.2141,4.2141,4.2361,4.2831,4.2831,4.2831,4.2831,4.2831,4.2921,6.8465,7.3442,7.7761,7.9907,8.033,7.9397,7.6386,7.3318,6.8922,6.096,5.5564,0.0,0.0,0.0,0.0,0.0,0.0,0.0,7.3984,7.4458,7.4593,0.0,7.5371,0.0,7.5033,7.5341,7.5882,0.0,7.4321,7.2975,7.3099,7.4256,7.4455,7.3362,7.3329,7.2349,7.035,6.849,6.6526,6.4438,6.4438,6.3978,6.3108,6.3108,6.3108,6.3107,0.0,6.2981,6.3,6.3308,6.3217,6.2921,6.2922,6.2872,6.2755,6.2379,6.236,6.2596,6.2596,6.2048,6.1164,6.0116,5.9073,5.8208,5.7822,5.7027,5.6158,5.5757,5.617,5.6761,5.7115,5.7734,5.8249,5.8249,5.8249,5.8057,5.7364,5.6159,5.4835,5.3739,5.22,5.0877,5.0285,4.962,4.8955,4.8386,4.7967,4.7638,4.7339,4.6958,4.6629,4.633,4.5942,4.5364,4.4386,4.4296,4.3868,4.2851,4.2791,4.2611,4.2252,4.2252,4.2402,4.2791,4.2791,4.312,4.3758,4.3758,4.3758,4.3758,4.3758,4.3579,7.5489,7.8721,8.1088,8.2915,8.1629,7.828,7.2101,6.7975,6.2564,5.2283,0.0,4.5621,4.2049,4.4809,4.8766,5.2334,0.0,6.4444,7.1357,7.2338,7.3646,7.7063,7.7468,7.7468,7.7468,7.8145,7.9092,8.0412,7.7468,7.533,7.4609,7.6834,7.7468,7.6048,7.5912,7.456,7.1821,7.0461,6.8697,6.6488,6.6488,6.5488,6.3649,6.3649,6.3649,6.3704,0.0,0.0,6.4546,6.5299,6.5205,6.4626,6.4723,6.4598,6.4333,6.4333,6.4564,6.4884,6.4884,6.4884,6.4508,6.2231,6.0925,6.0283,6.0283,5.973,5.9068,5.9068,5.9213,5.9315,5.9219,5.9298,5.9409,5.9312,5.928,5.9141,5.8539,5.77,5.6358,5.3884,5.2887,5.2057,5.0892,5.0423,4.983,4.8716,4.8386,4.8087,4.7519,4.7369,4.71,4.648,4.642,4.5942,4.4655,4.4566,4.4237,4.3469,4.3519,4.3489,4.329,4.3379,4.3379,4.329,4.3379,4.3728,4.4296,4.4386,4.4416,4.4416,4.4416,4.4117,7.9668,8.1636,8.2881,8.2644,8.0479,7.6487,6.9248,6.2888,0.0,0.0,4.251,3.9783,3.7234,4.1867,4.8274,5.4938,0.0,0.0,0.0,0.0,7.845,0.0,0.0,0.0,0.0,0.0,0.0,0.0,0.0,7.9836,7.9129,7.8967,7.8517,7.7628,7.6995,7.5601,7.3363,7.2451,7.068,6.7964,6.7964,6.7424,6.6496,6.6496,6.6496,6.6522,6.6598,0.0,6.6709,6.7338,6.7511,6.7466,6.8013,6.7811,6.7189,6.7189,6.688,6.644,6.644,6.644,6.6141,6.4518,6.3212,6.2322,6.2322,6.1526,6.0624,6.0624,6.1329,6.1972,6.1349,6.1932,6.2528,6.1911,6.1777,6.1743,6.1629,6.0273,5.8498,5.652,5.4799,5.3604,5.3388,5.1584,5.0129,4.992,4.8985,4.8259,4.8139,4.7638,4.7249,4.716,4.713,4.683,4.6031,4.5942,4.5433,4.4207,4.4646,4.4466,4.3349,4.3848,4.3878,4.329,4.3848,4.4177,4.4296,4.4855,4.5125,4.5125,4.5125,4.5065,8.2408,8.3524,8.3727,8.2205,7.872,7.3071,6.324,0.0,0.0,0.0,3.6535,3.552,3.366,0.0,0.0,0.0,0.0,0.0,0.0,0.0,0.0,0.0,0.0,0.0,0.0,0.0,0.0,0.0,0.0,8.1934,8.0818,7.9701,7.8957,7.8585,7.7841,7.6996,7.5965,7.5229,7.3418,7.0536,7.0153,6.8967,6.719,6.719,6.719,6.7241,6.7924,0.0,6.8323,6.9339,6.9551,6.9219,6.9535,6.9214,6.847,6.8064,6.7692,6.732,6.6927,6.6791,6.6656,6.5967,6.5072,6.4316,6.4316,6.362,6.2858,6.2858,6.3278,6.368,6.3313,6.3618,6.3903,6.3159,6.2685,6.2299,6.1907,6.0926,5.9625,5.8011,5.6765,5.5882,5.5525,5.3627,5.2063,5.1697,5.0314,4.9045,4.8409,4.8027,4.7698,4.7339,4.7309,4.704,4.636,4.63,4.5882,4.4885,4.5125,4.5005,4.4377,4.4646,4.4676,4.4356,4.4676,4.5005,4.5343,4.5642,4.5822,4.5822,4.5822,4.5633,8.37,8.4478,8.3971,8.146,7.6918,6.9857,5.7746,5.0676,0.0,0.0,3.1529,3.1958,3.1123,0.0,4.2104,0.0,0.0,0.0,0.0,0.0,0.0,0.0,0.0,0.0,0.0,0.0,0.0,0.0,0.0,0.0,8.1384,8.0209,7.9498,7.9363,7.8619,7.8145,7.8,7.7266,7.5598,7.3036,7.2282,7.0684,6.8334,6.8147,6.8082,6.8132,6.9193,0.0,0.0,7.0837,7.0973,7.0432,7.0432,6.9992,6.9248,6.8639,6.8166,6.7827,6.7252,6.6927,6.6791,6.6791,6.6406,6.5933,6.5933,6.5527,6.5087,6.5087,6.5087,6.5019,6.4884,6.485,6.4613,6.3714,6.2956,6.2265,6.167,6.1254,6.0663,5.9544,5.8692,5.8022,5.7485,5.5861,5.4375,5.3665,5.1982,5.0382,4.9205,4.8743,4.8259,4.7578,4.7399,4.71,4.657,4.651,4.6211,4.5574,4.5633,4.5603,4.5304,4.5424,4.5454,4.5304,4.5454,4.5762,4.63,4.645,4.651,4.651,4.651,4.6211,8.2813,8.4072,8.3734,8.0183,7.5371,6.8199,5.5565,0.0,0.0,3.1075,2.8721,2.8703,2.9963,3.1911,3.6242,0.0,0.0,5.4905,0.0,0.0,0.0,0.0,0.0,0.0,0.0,0.0,0.0,0.0,0.0,0.0,8.1384,8.1181,8.0784,8.0107,7.9397,7.8686,7.8034,7.7266,7.6067,7.4428,7.3652,7.2829,7.1904,7.1242,7.0939,7.0939,7.1052,0.0,0.0,7.1244,7.1255,7.1188,7.1188,7.0737,7.0116,7.0014,6.9079,6.7895,6.7827,6.7354,6.6791,6.6791,6.6757,6.669,6.669,6.6656,6.6588,6.6588,6.6588,6.644,6.5764,6.5615,6.5222,6.3815,6.2956,6.24,6.2333,6.2288,6.2175,6.206,6.0617,5.9416,5.9371,5.7783,5.6306,5.5559,5.3915,5.2463,5.1685,5.0211,4.8947,4.8289,4.7668,4.7279,4.7219,4.7219,4.692,4.6241,4.68,4.6561,4.5334,4.5882,4.5912,4.5304,4.5882,4.6241,4.63,4.6899,4.7219,4.7219,4.7219,4.7189,8.0885,8.305,8.305,7.9363,7.28,6.441,5.3501,0.0,3.6953,2.977,2.8027,2.8128,2.9237,3.0997,3.4155,3.9863,4.276,0.0,5.9066,0.0,0.0,0.0,0.0,0.0,0.0,0.0,0.0,0.0,0.0,0.0,8.2035,8.1528,8.1181,8.0851,7.9735,7.8957,7.8653,7.7502,7.6352,7.5236,7.4052,7.3105,7.236,7.165,7.1289,7.1289,7.1289,0.0,0.0,7.1289,7.1289,7.1289,7.1289,7.112,7.0804,7.0364,6.9789,6.9214,6.8774,6.8436,6.8199,6.8199,6.7861,6.7387,6.6927,6.6791,6.6791,6.6791,6.6791,6.6724,6.644,6.6034,6.5547,6.4952,6.3937,6.3057,6.3057,6.2719,6.24,6.24,6.1795,6.1281,6.1281,5.9729,5.8379,5.8097,5.6082,5.4378,5.3672,5.1996,5.0608,4.9956,4.8697,4.7728,4.7339,4.7309,4.7189,4.6899,4.716,4.707,4.6531,4.677,4.68,4.6501,4.677,4.6899,4.6899,4.7189,4.7309,4.7309,4.7309,4.7309,7.6792,8.0209,8.1393,7.8145,7.0398,6.1129,0.0,0.0,3.4742,2.8712,2.7452,2.7697,2.8493,3.0127,3.2462,3.5904,3.8734,4.3572,5.2266,0.0,0.0,0.0,0.0,0.0,0.0,0.0,0.0,0.0,0.0,0.0,8.2813,8.2035,8.1426,8.1012,7.9769,7.9025,7.8788,7.7536,7.6487,7.5676,7.4424,7.3443,7.2699,7.1954,7.1515,7.1289,0.0,0.0,0.0,7.1289,7.1289,7.1289,7.1289,7.1289,7.1222,7.0737,7.0398,7.015,6.962,6.9282,6.9113,6.9113,6.8707,6.8098,6.7354,6.696,6.6791,6.6791,6.6791,6.6791,6.6791,6.6237,6.5717,6.5717,6.4749,6.3815,6.3815,6.326,6.2787,6.299,6.2685,6.2468,6.2685,6.1468,6.0349,6.013,5.8055,5.6277,5.5575,5.3851,5.2447,5.1769,5.0613,4.9348,4.8003,4.7698,4.7608,4.7608,4.7429,4.7309,4.7309,4.7309,4.7309,4.7309,4.7309,4.7309,4.7309,4.7309,4.7309,4.7309,4.7309,4.7309,6.997,7.5178,7.8585,7.6284,6.847,5.8964,0.0,0.0,3.392,2.7943,2.67,2.6928,2.7689,2.8484,3.049,3.4901,3.755,4.2422,5.2131,0.0,0.0,0.0,0.0,0.0,0.0,0.0,0.0,0.0,0.0,0.0,8.3524,8.278,8.1731,8.0242,7.9498,7.8754,7.8034,7.7266,7.6487,7.5676,7.4965,7.4221,7.3466,7.2732,7.1988,0.0,0.0,0.0,0.0,7.1289,7.1289,7.1289,7.1289,7.1289,7.1289,7.1289,7.0838,7.0217,7.0195,6.9688,6.9113,6.9113,6.9079,6.8944,6.8132,6.7387,6.6791,6.6791,6.6791,6.6791,6.6791,6.6237,6.5717,6.5717,6.5121,6.458,6.458,6.3984,6.368,6.4444,6.3396,6.2618,6.3342,6.2888,6.211,6.138,5.9664,5.8188,5.7476,5.5742,5.4321,5.3638,5.3574,5.2377,4.9531,4.8678,4.8289,4.8289,4.7668,4.7309,4.7309,4.7309,4.7309,4.7309,4.7309,4.7309,4.7309,4.7309,4.7309,4.7309,4.7309,4.7309,5.8592,6.2584,6.4715,6.1975,5.5919,4.9086,4.3179,0.0,3.1461,2.7512,2.67,2.6928,2.7655,2.8881,3.1393,3.6355,3.8633,4.1894,0.0,0.0,0.0,0.0,0.0,0.0,0.0,0.0,0.0,0.0,0.0,0.0,8.2813,8.2543,8.1968,8.0953,7.9769,7.8754,7.8034,7.7266,7.6487,7.5676,7.4424,7.3737,7.3466,7.2225,0.0,0.0,0.0,0.0,0.0,7.1289,7.1289,7.1289,7.1289,7.1289,7.1289,7.1289,7.1154,7.0973,7.0973,7.0804,7.0579,7.0579,6.9925,6.9045,6.8808,6.8166,6.7455,6.6927,6.6791,6.6791,6.6791,6.6643,6.644,6.644,6.5899,6.5358,6.5358,6.4783,6.4343,6.4546,6.3835,6.3207,6.3443,6.2888,6.2313,6.2076,6.0641,5.952,5.9266,5.7172,5.5613,5.5404,5.4709,5.3562,5.1706,5.1381,5.1015,5.0524,5.0272,4.9938,4.9427,4.8697,4.8335,4.8335,4.7636,4.7309,4.7309,4.7309,4.7309,4.7309,4.7309,4.7309,4.8714,5.2942,5.5209,5.3348,4.8206,0.0,0.0,3.411,2.9745,2.7571,2.7131,2.7368,2.8103,2.9253,3.1519,3.5926,3.8091,0.0,0.0,0.0,0.0,0.0,0.0,0.0,0.0,0.0,0.0,0.0,0.0,0.0,8.2483,8.2408,8.1934,8.0919,7.9735,7.8754,7.8034,7.7266,7.6487,7.5676,7.4492,7.3747,7.3466,7.2259,0.0,0.0,0.0,0.0,0.0,7.1289,7.1289,7.1289,7.1289,7.1289,7.1289,7.1289,7.1289,7.1289,7.1289,7.1289,7.1255,7.0973,6.9891,6.8639,6.8639,6.8098,6.7387,6.6927,6.6791,6.6791,6.6791,6.6791,6.6791,6.6791,6.644,6.6102,6.6102,6.5527,6.5087,6.5392,6.4613,6.3917,6.3917,6.3294,6.2719,6.2415,6.1332,6.0554,6.0554,5.8873,5.7667,5.7667,5.6817,5.5915,5.5109,5.3743,5.2781,5.2333,5.2044,5.1724,5.1236,5.0299,4.9813,4.9813,4.8955,4.846,4.846,4.8051,4.7892,4.7892,4.7892,4.7892,0.0,4.5399,4.8729,0.0,0.0,0.0,0.0,0.0,0.0,2.79,2.7722,2.8002,2.8899,2.9634,3.1157,3.4313,3.6671,0.0,0.0,0.0,0.0,0.0,0.0,0.0,0.0,0.0,0.0,0.0,0.0,0.0,8.2408,8.2374,8.1731,8.0242,7.9498,7.8754,7.8034,7.7266,7.6454,7.5608,7.4864,7.4153,7.3398,7.2665,0.0,0.0,0.0,0.0,0.0,7.1289,7.1289,7.1289,7.1289,7.1289,7.1289,7.1289,7.1289,7.1289,7.1289,7.1289,7.1154,7.0364,6.9113,6.7895,6.7827,6.7354,6.6791,6.6791,6.6791,6.6791,6.6791,6.6791,6.6791,6.6791,6.6791,6.6791,6.6791,6.6271,6.5967,6.6656,6.5662,6.4681,6.4681,6.4018,6.3294,6.2584,6.1806,6.1298,6.1298,6.0588,6.0114,6.0114,5.9487,5.9081,5.9081,5.5916,5.3882,5.3817,5.3246,5.288,5.2828,5.2105,5.1661,5.1616,5.0807,5.0461,5.0557,4.9459,4.8974,4.9067,4.9005,4.9005,3.0074,0.0,3.5362,3.4257,3.2767,3.1302,0.0,0.0,0.0,0.0,0.0,2.7537,2.9499,2.9963,3.1823,3.7088,0.0,0.0,0.0,0.0,0.0,0.0,0.0,0.0,0.0,0.0,0.0,0.0,0.0,8.3727,8.1663,8.2103,8.1731,8.0242,7.9498,7.8754,7.8034,7.7266,7.6217,7.4864,7.4119,7.3375,7.2631,7.1887,0.0,0.0,0.0,0.0,7.1289,7.1289,7.1289,7.1289,7.1289,7.1289,7.1289,7.1289,7.1289,7.1289,7.1289,7.1289,7.1086,6.9789,6.8707,6.7793,6.7252,6.6948,6.6791,6.6791,6.6791,6.6791,6.6791,6.6791,6.6791,6.6791,6.6791,6.6791,6.6791,6.6677,6.6588,6.6757,6.6068,6.5425,6.5425,6.4377,6.3443,6.3294,6.2144,6.1298,6.1298,6.0588,6.0114,6.0114,5.9945,5.9844,5.9844,5.8014,5.6646,5.6092,5.591,5.5576,5.4989,5.4024,5.3236,5.266,5.1172,5.096,5.2076,5.0694,5.0588,5.1685,5.1125,5.1188,2.67,2.8146,2.9465,2.8653,2.845,2.8349,2.7891,0.0,0.0,0.0,0.0,2.7799,2.9726,3.0944,0.0,0.0,0.0,0.0,0.0,0.0,0.0,0.0,0.0,0.0,0.0,0.0,0.0,0.0,0.0,8.3287,8.1418,8.1663,8.1224,7.9735,7.8991,7.8382,7.8,7.6893,7.5777,7.4593,7.351,7.28,7.236,7.165,7.1289,0.0,0.0,0.0,7.1289,7.1289,7.1289,7.1289,7.1289,7.1289,7.1289,7.1289,7.1289,7.1289,7.1289,7.085,7.0161,6.935,6.8571,6.7827,6.7421,6.732,6.7231,6.6893,6.6791,6.6791,6.6791,6.6791,6.6791,6.6791,6.6791,6.6791,6.6791,6.6791,6.6791,6.6791,6.6474,6.6102,6.5784,6.5019,6.4275,6.3612,6.2801,6.2212,6.1839,6.14,6.1163,6.1163,6.0858,6.0655,6.0655,5.9573,5.8592,5.7881,5.7476,5.7137,5.6731,5.584,5.4998,5.4264,5.3306,5.3212,5.402,5.2728,5.25,5.3266,5.2876,5.2909,2.6826,2.7833,2.8669,2.795,2.779,2.779,2.779,0.0,0.0,0.0,0.0,0.0,0.0,0.0,0.0,0.0,0.0,0.0,0.0,0.0,0.0,0.0,0.0,0.0,0.0,0.0,0.0,0.0,0.0,8.2678,8.1215,8.1249,8.0615,7.9135,7.828,7.7797,7.7662,7.6251,7.51,7.4255,7.3003,7.2326,7.2225,7.156,7.1289,7.1289,0.0,0.0,7.1289,7.1289,7.1289,7.1289,7.1289,7.1289,7.1289,7.1289,7.1289,7.1289,7.1154,7.0161,6.891,6.891,6.8368,6.7726,6.7726,6.7726,6.759,6.696,6.6859,6.6927,6.6825,6.6859,6.6927,6.6825,6.6791,6.6791,6.6791,6.6791,6.6791,6.6791,6.6791,6.6609,6.5967,6.5764,6.5256,6.4018,6.3646,6.3274,6.2651,6.2468,6.24,6.24,6.1839,6.1467,6.1467,6.0757,6.0013,5.9385,5.8524,5.8035,5.79,5.7171,5.6562,5.6037,5.58,5.58,5.6037,5.491,5.4456,5.4688,5.4556,5.4589,2.7461,3.0504,3.2577,2.8737,2.779,2.779,2.779,2.7224,0.0,0.0,0.0,0.0,0.0,0.0,0.0,0.0,0.0,0.0,0.0,0.0,0.0,0.0,0.0,0.0,0.0,0.0,0.0,0.0,0.0,8.1934,8.0445,8.0978,8.0615,7.9135,7.7773,7.6724,7.6048,7.5202,7.4086,7.2732,7.2496,7.209,7.1458,7.1357,7.1289,7.1289,0.0,7.1289,7.1289,7.1289,7.1289,7.1289,7.1289,7.1289,7.1289,7.1289,7.1289,7.1188,7.0601,6.935,6.8098,6.8098,6.759,6.696,6.696,6.696,6.6927,6.6825,6.7252,6.759,6.696,6.7252,6.7557,6.6927,6.6791,6.6791,6.6791,6.6791,6.6791,6.6791,6.6791,6.6757,6.6643,6.6102,6.5615,6.5412,6.4309,6.3443,6.3342,6.2787,6.24,6.24,6.2299,6.2212,6.2212,6.1535,6.1061,6.096,5.9641,5.8558,5.7934,5.7171,5.7036,5.7543,5.6341,5.6308,5.7561,5.6149,5.6111,5.7309,5.6684,5.6718,2.7097,2.8982,3.0978,3.1316,3.2939,3.4247,3.3446,3.3007,0.0,0.0,0.0,0.0,0.0,0.0,0.0,0.0,0.0,0.0,0.0,0.0,0.0,0.0,0.0,0.0,0.0,0.0,0.0,0.0,0.0,0.0,8.0242,8.0141,7.9634,7.8551,7.7029,7.5676,7.4525,7.3781,7.3071,7.2394,7.1988,7.165,7.1289,7.1289,7.1289,7.1289,0.0,7.1289,7.1289,7.1289,7.1289,7.1289,7.1289,7.1289,7.1255,7.0872,7.0703,7.0534,6.935,6.8504,6.7895,6.7895,6.7658,6.7387,6.7387,6.7387,6.732,6.6893,6.7028,6.7252,6.6893,6.7028,6.7218,6.6859,6.6791,6.6791,6.6791,6.6791,6.6791,6.6791,6.6791,6.6791,6.6791,6.6542,6.617,6.5784,6.5121,6.4546,6.414,6.3802,6.3429,6.3057,6.299,6.2821,6.2434,6.2076,6.1535,6.0689,6.0013,5.9438,5.9099,5.8389,5.8355,5.9066,5.7645,5.7611,5.9099,5.8017,5.7829,5.849,5.8152,5.7949,2.6894,2.8002,2.9895,3.3152,3.5622,3.7572,3.8891,3.8384,0.0,0.0,0.0,0.0,0.0,0.0,0.0,0.0,0.0,0.0,0.0,0.0,0.0,0.0,0.0,0.0,0.0,0.0,0.0,0.0,0.0,0.0,7.9972,7.9431,7.8619,7.7502,7.6149,7.4728,7.3263,7.2496,7.2157,7.2157,7.156,7.1289,7.1289,7.1289,7.1289,7.1289,7.1289,7.1289,7.1289,7.1289,7.1289,7.1289,7.1289,7.1289,7.1188,7.0466,7.0116,6.9755,6.8368,6.7793,6.7658,6.7658,6.7658,6.7658,6.7658,6.7658,6.7523,6.696,6.6791,6.6791,6.6791,6.6927,6.6994,6.6825,6.6791,6.6791,6.6791,6.6791,6.6791,6.6791,6.6791,6.6791,6.6791,6.6791,6.6609,6.6034,6.5818,6.5514,6.4918,6.4715,6.4377,6.3815,6.3748,6.3463,6.2719,6.2502,6.1907,6.0723,6.0283,6.0114,6.0114,5.9573,5.952,6.008,5.8998,5.8964,6.0114,5.9539,5.925,5.925,5.925,5.8964,2.7519,3.0292,3.2916,3.2554,3.0548,3.1205,4.0819,3.9817,0.0,4.3944,0.0,0.0,0.0,0.0,0.0,0.0,0.0,0.0,0.0,0.0,0.0,0.0,0.0,0.0,0.0,0.0,0.0,0.0,0.0,0.0,7.9228,7.9135,7.8111,7.5912,7.51,7.3984,7.2496,7.1751,7.1357,7.1357,7.1323,7.1289,7.1289,7.1289,7.1289,7.1289,7.1289,7.1289,7.1289,7.1289,7.1289,7.1289,7.1289,7.1289,7.1188,7.0466,6.9755,6.9045,6.8199,6.7455,6.6859,6.6859,6.6859,6.6859,6.6859,6.6859,6.6859,6.6791,6.6791,6.6791,6.6791,6.732,6.7658,6.696,6.6791,6.6791,6.6791,6.6791,6.6791,6.6791,6.6791,6.6791,6.6791,6.6791,6.6757,6.6745,6.6136,6.5683,6.5649,6.5019,6.458,6.4546,6.4512,6.4241,6.3477,6.2787,6.2367,6.2265,6.0892,6.0114,6.0114,6.0047,6.0047,6.0114,6.0013,5.9979,6.0114,6.0047,6.0013,6.0013,6.0013,5.9979,2.7029,3.0209,3.3548,3.4201,3.4134,0.0,0.0,4.5974,4.7192,5.2232,5.4208,0.0,0.0,0.0,0.0,0.0,0.0,0.0,0.0,0.0,0.0,0.0,0.0,0.0,0.0,0.0,0.0,0.0,0.0,0.0,7.9518,7.787,7.6386,7.5067,7.3849,7.2969,7.2394,7.2314,7.2215,7.2215,7.2215,7.2561,7.3166,7.3166,7.3166,7.3166,7.3166,7.2797,7.2279,7.29,7.2427,7.1289,7.1289,7.1041,7.0534,6.9789,6.9011,6.8233,6.7489,6.7028,6.6791,6.6791,6.6791,6.6791,6.6791,6.6791,6.6791,6.6791,6.6791,6.6791,6.6791,6.7015,6.7252,6.7455,6.7151,6.6927,6.7387,6.7096,6.6791,6.6791,6.6791,6.6791,6.6791,6.6791,6.6791,6.6791,6.6576,6.6373,6.6373,6.6136,6.5797,6.5324,6.4884,6.4478,6.4208,6.3937,6.3768,6.3768,6.2347,6.1535,6.1535,6.1095,6.1061,6.1501,6.0588,6.0554,6.1535,6.1061,6.0858,6.0858,6.0858,6.0588,2.67,2.8924,3.1867,3.4292,0.0,0.0,4.8414,5.1387,5.4072,6.0178,6.1446,0.0,0.0,0.0,0.0,0.0,0.0,0.0,0.0,0.0,0.0,0.0,0.0,0.0,0.0,0.0,0.0,0.0,0.0,0.0,0.0,7.6477,7.4931,7.395,7.3232,7.2753,7.2548,7.3033,7.3432,7.3733,7.3733,7.3947,7.4291,7.4291,7.4291,7.4291,7.4291,7.3889,7.3332,7.4005,7.3292,7.1764,7.1525,7.0932,7.0082,6.9079,6.8368,6.7793,6.7083,6.6791,6.6791,6.6791,6.6791,6.6791,6.6791,6.6791,6.6791,6.6791,6.6791,6.6791,6.6791,6.6791,6.6927,6.7455,6.7184,6.6927,6.7455,6.7151,6.6791,6.6791,6.7015,6.7151,6.7151,6.7354,6.7523,6.7523,6.7523,6.7434,6.7184,6.7151,6.688,6.6136,6.5392,6.4952,6.4952,6.4715,6.4613,6.4613,6.3632,6.3091,6.3091,6.2381,6.2245,6.2753,6.1467,6.1332,6.24,6.1873,6.1637,6.1637,6.1637,6.1366,2.67,2.6776,2.7884,0.0,0.0,0.0,5.3078,5.5301,5.758,6.7161,0.0,0.0,0.0,0.0,0.0,0.0,0.0,0.0,0.0,0.0,0.0,0.0,0.0,0.0,0.0,0.0,0.0,0.0,0.0,0.0,0.0,7.4989,7.394,7.2451,7.3378,7.3559,7.2818,7.3792,7.4812,7.5787,7.5787,7.5299,7.431,7.431,7.431,7.431,7.431,7.431,7.431,7.4291,7.3694,7.2714,7.1986,7.1095,7.0014,6.847,6.7895,6.7793,6.7028,6.6791,6.6791,6.6791,6.6791,6.6791,6.6791,6.6791,6.6791,6.6791,6.6791,6.6791,6.6791,6.6791,6.6791,6.6791,6.6791,6.6791,6.6791,6.6791,6.6791,6.6791,6.7387,6.7895,6.7895,6.8571,6.9079,6.9113,6.9113,6.8808,6.7996,6.7895,6.7624,6.6859,6.6136,6.5717,6.5717,6.5019,6.4613,6.4613,6.4613,6.4613,6.4613,6.3883,6.3511,6.3511,6.2787,6.2415,6.2415,6.2415,6.24,6.24,6.2415,6.2434,2.7043,3.0785,0.0,3.8047,0.0,0.0,0.0,6.006,0.0,0.0,0.0,0.0,0.0,0.0,0.0,0.0,0.0,0.0,0.0,0.0,0.0,0.0,0.0,0.0,0.0,0.0,0.0,0.0,0.0,0.0,0.0,7.6001,7.4735,7.3777,7.4025,7.4077,7.3885,7.4849,7.551,7.5787,7.653,7.6712,7.6416,7.6416,7.6416,7.6416,7.6416,7.5993,7.5245,7.3968,7.3362,7.3065,7.1482,7.0358,6.9488,6.8328,6.7557,6.7096,6.6859,6.6791,6.6791,6.6791,6.6791,6.6791,6.6791,6.6791,6.6791,6.6791,6.6791,6.6791,6.6791,6.6791,6.6927,6.7455,6.7184,6.6927,6.7455,6.7184,6.6791,6.6791,6.696,6.7286,6.7793,6.8098,6.8436,6.9011,6.9113,6.8808,6.7996,6.7455,6.7028,6.6825,6.6588,6.6474,6.6474,6.6271,6.617,6.617,6.617,6.5696,6.4647,6.441,6.4275,6.4275,6.3565,6.3193,6.3193,6.3193,6.2922,6.2434,6.3463,6.3666,2.9571,3.3647,0.0,4.4218,5.0742,5.7824,6.5869,0.0,0.0,0.0,0.0,0.0,0.0,0.0,0.0,0.0,0.0,0.0,0.0,0.0,0.0,0.0,0.0,0.0,0.0,0.0,0.0,0.0,0.0,0.0,0.0,7.5766,7.4768,7.4326,7.4684,7.4885,7.4885,7.5891,7.6379,7.6396,7.7003,7.7289,7.7289,7.7289,7.7289,7.7289,7.6959,7.6314,7.535,7.4259,7.3636,7.3238,7.1379,7.0136,6.9243,6.7923,6.7184,6.6791,6.6791,6.6791,6.6791,6.6791,6.6791,6.6791,6.6791,6.6791,6.6791,6.6791,6.6791,6.6791,6.6791,6.6791,6.6893,6.7354,6.7096,6.6994,6.7726,6.732,6.6893,6.7184,6.7252,6.7489,6.8233,6.8605,6.8977,6.9451,6.9011,6.8436,6.7963,6.7523,6.7252,6.7252,6.7501,6.7704,6.7704,6.7704,6.7704,6.7704,6.7421,6.6846,6.5967,6.5358,6.5019,6.5019,6.4309,6.3917,6.3917,6.3917,6.37,6.3294,6.4174,6.4377,3.344,3.6021,0.0,5.0712,5.6206,0.0,0.0,0.0,0.0,0.0,0.0,0.0,0.0,0.0,0.0,0.0,0.0,0.0,0.0,0.0,0.0,0.0,0.0,0.0,0.0,0.0,0.0,0.0,0.0,0.0,0.0,7.4945,7.4554,7.4554,7.5457,7.5942,7.5942,7.684,7.7289,7.7289,7.7289,7.7252,7.7179,7.7289,7.7252,7.7142,7.6335,7.5542,7.4793,7.4793,7.4207,7.3152,7.155,7.0332,6.9209,6.7523,6.6875,6.6791,6.6791,6.6791,6.6791,6.6791,6.6791,6.6791,6.6791,6.6791,6.6791,6.6791,6.6791,6.6791,6.6791,6.6859,6.6859,6.6825,6.6859,6.7096,6.7861,6.7489,6.7197,6.7895,6.7996,6.8233,6.8977,6.9688,7.0217,7.0217,6.8876,6.7929,6.7996,6.7963,6.7929,6.7996,6.8673,6.9113,6.9113,6.9113,6.9079,6.9011,6.8301,6.7861,6.7793,6.6508,6.5818,6.5818,6.5087,6.4681,6.4681,6.4681,6.4681,6.4613,6.4749,6.4749,3.5369,4.0938,0.0,0.0,6.5315,7.2933,0.0,0.0,0.0,0.0,0.0,0.0,0.0,0.0,0.0,0.0,0.0,0.0,0.0,0.0,0.0,0.0,0.0,0.0,0.0,0.0,0.0,0.0,0.0,0.0,7.6883,7.6737,7.6628,7.6628,7.6856,7.6988,7.6988,7.7196,7.7289,0.0,7.7289,7.6959,7.6387,7.6995,7.6959,7.6313,7.5491,7.4698,7.3964,7.3964,7.3457,7.2597,7.15,7.0461,6.9487,6.8331,6.742,6.6791,6.6791,6.6791,6.6791,6.6791,6.6791,6.6791,6.6791,6.6791,6.6791,6.6791,6.6791,6.6791,6.6791,6.7252,6.7523,6.6927,6.7252,6.7895,6.8673,6.8707,6.8673,6.8808,6.8842,6.891,6.9079,6.9688,7.0217,7.0217,6.8876,6.8132,6.8774,6.8301,6.8132,6.8774,6.9011,6.9113,6.9113,6.9113,6.8842,6.8199,6.7996,6.7658,6.7083,6.6745,6.6576,6.6576,6.5831,6.5459,6.5459,6.5459,6.5155,6.4647,6.5797,6.6034,3.8218,0.0,0.0,6.3873,0.0,7.6939,0.0,0.0,0.0,0.0,0.0,0.0,0.0,0.0,0.0,0.0,0.0,0.0,0.0,0.0,0.0,0.0,0.0,0.0,0.0,0.0,0.0,0.0,0.0,7.7289,7.7289,7.7289,7.7289,7.7289,7.7289,7.7289,7.7289,7.6922,7.6738,7.6702,7.6335,7.5931,7.5542,7.5968,7.5711,7.4918,7.4515,7.3854,7.312,7.312,7.2899,7.2423,7.148,7.0535,6.9601,6.8572,6.7622,6.6791,6.6791,6.6791,6.6791,6.6791,6.6791,6.6791,6.6791,6.6791,6.6791,6.6791,6.6791,6.6791,6.6791,6.7096,6.7387,6.7354,6.7624,6.8132,6.8944,6.8808,6.8741,6.9485,6.935,6.9113,6.9113,6.9113,6.935,7.0116,6.8876,6.8199,6.9011,6.9045,6.9147,6.9586,6.9958,7.0161,7.0161,7.0161,6.9823,6.9045,6.8673,6.8301,6.7929,6.7523,6.7163,6.6791,6.644,6.6237,6.6237,6.6237,6.6034,6.5662,6.6419,6.6588,4.0146,0.0,5.6051,7.0197,7.5491,0.0,7.8405,0.0,0.0,0.0,0.0,0.0,0.0,0.0,0.0,0.0,0.0,0.0,0.0,0.0,0.0,0.0,0.0,0.0,0.0,0.0,0.0,0.0,0.0,7.7289,7.7289,7.7289,7.7252,7.7105,7.7105,7.7032,7.6885,7.6225,7.5909,7.5873,7.5102,7.4683,7.4683,7.4536,7.4111,7.3487,7.334,7.2826,7.2092,7.2092,7.2092,7.202,7.1235,7.0427,6.9636,6.8811,6.7866,6.705,6.705,6.6925,6.6791,6.6791,6.6791,6.6791,6.6791,6.6791,6.6791,6.6791,6.6791,6.6791,6.6791,6.6893,6.7117,6.759,6.7895,6.8335,6.9113,6.8876,6.8876,7.0128,6.9688,6.9147,6.9282,6.8504,6.8368,6.9789,6.891,6.8402,6.918,6.9823,7.0251,7.0364,7.0939,7.1289,7.1289,7.1289,7.1007,7.0251,6.962,6.9214,6.9113,6.847,6.776,6.6994,6.7015,6.6927,6.6791,6.6791,6.6791,6.6791,6.6791,6.6791,3.823,0.0,6.234,0.0,7.5491,7.7546,0.0,0.0,0.0,0.0,0.0,0.0,0.0,0.0,0.0,0.0,0.0,0.0,0.0,0.0,0.0,0.0,0.0,0.0,0.0,0.0,0.0,0.0,7.7289,7.7289,7.7289,7.7289,7.6995,7.6276,7.6276,7.5931,7.5234,7.5124,7.505,7.505,7.4258,7.3854,7.3817,7.3156,7.2753,7.2606,7.1931,7.1174,7.0403,7.0403,7.0403,7.0389,7.0291,7.0096,6.9841,6.9728,6.8965,6.8009,6.8009,6.7481,6.6791,6.6791,6.6791,6.6791,6.6791,6.6791,6.6791,6.6791,6.6791,6.6791,6.6791,6.7286,6.7624,6.7083,6.7963,6.9147,6.9891,7.0466,7.0917,7.1109,7.006,6.9316,6.9925,6.8842,6.8199,6.9113,6.9079,6.9214,6.9958,7.0128,7.0432,7.1075,7.1222,7.1289,7.1289,7.1289,7.1007,7.0251,7.0116,6.9755,6.9113,6.9011,6.8571,6.776,6.776,6.7455,6.6791,6.6791,6.6791,6.6791,6.6791,6.6791,4.3913,5.2711,6.1741,0.0,7.3854,7.505,7.679,0.0,0.0,0.0,0.0,0.0,0.0,0.0,0.0,0.0,0.0,0.0,0.0,0.0,0.0,0.0,0.0,0.0,0.0,0.0,0.0,0.0,7.7289,7.7105,7.6628,7.6628,7.6261,7.5454,7.5417,7.527,7.4903,7.4441,7.4001,7.356,7.3193,7.3046,7.301,7.2188,7.1821,7.1821,7.1454,7.083,7.011,7.011,7.011,7.011,7.011,7.004,6.9889,6.9889,6.9552,6.9039,6.9039,6.8397,6.7602,6.7602,6.7243,6.6791,6.6791,6.6791,6.6791,6.6791,6.6791,6.6791,6.6791,6.7028,6.7218,6.6859,6.7624,6.8504,6.8842,6.9823,7.0804,7.1222,7.0128,6.9485,7.0635,6.9586,6.8977,7.0161,6.9992,6.9992,7.0737,7.0804,7.0939,7.1255,7.1289,7.1289,7.1289,7.1289,7.1007,7.0251,7.0217,7.0026,6.9722,6.9722,6.9553,6.918,6.8335,6.7557,6.6791,6.6791,6.6791,6.6791,6.6791,6.6791,0.0,0.0,5.6895,6.6439,6.9743,7.1431,0.0,0.0,0.0,0.0,0.0,0.0,0.0,0.0,0.0,0.0,0.0,0.0,0.0,0.0,0.0,0.0,0.0,0.0,0.0,0.0,0.0,0.0,7.6922,7.6518,7.613,7.5909,7.5322,7.4316,7.45,7.428,7.3707,7.3303,7.2789,7.2202,7.2202,7.2092,7.1872,7.1284,7.0866,7.0683,7.0683,7.022,6.9499,6.9499,6.9499,6.9499,6.9499,6.9536,6.9657,6.9657,6.9557,6.9436,6.9436,6.8928,6.8293,6.8293,6.7949,6.7535,6.7535,6.7387,6.7161,6.7161,6.6988,6.6791,6.6791,6.6791,6.6791,6.6791,6.7354,6.7996,6.8402,6.9383,7.0398,7.1176,7.0263,6.9722,7.0838,7.0128,6.9755,7.0872,7.0703,7.0669,7.1244,7.1289,7.1289,7.1289,7.1289,7.1289,7.1289,7.1289,7.1075,7.05,7.0466,7.0466,7.0466,7.0466,7.0398,7.0217,6.9079,6.8132,6.7366,6.6994,6.6893,6.7083,6.6893,6.6791,0.0,4.291,0.0,5.6528,6.2254,0.0,0.0,0.0,0.0,0.0,0.0,0.0,0.0,0.0,0.0,0.0,0.0,0.0,0.0,0.0,0.0,0.0,0.0,0.0,0.0,0.0,0.0,0.0,7.5894,7.5344,7.6056,7.538,7.4243,7.2679,7.334,7.2642,7.0367,7.105,7.1417,7.1344,7.1344,7.094,7.022,7.0183,6.9743,6.9032,6.9032,6.8568,6.7811,6.7811,6.7811,6.7811,6.7811,6.8284,6.894,6.894,6.8881,6.8748,6.8748,6.8615,6.8487,6.8487,6.8982,6.9565,6.9565,6.8873,6.8146,6.8146,6.7481,6.6791,6.6791,6.6791,6.6791,6.6791,6.7354,6.8301,6.9777,7.0128,7.0398,7.1176,7.0669,7.0184,7.0229,7.0195,7.0184,7.0251,7.0804,7.1255,7.1289,7.1289,7.1289,7.1289,7.1289,7.1289,7.1289,7.1289,7.1289,7.1255,7.1222,7.1222,7.1222,7.1222,7.0906,7.0217,7.0094,6.9722,6.8977,6.7523,6.7163,6.7827,6.7151,6.6791,0.0,0.0,0.0,5.216,5.7409,6.141,0.0,0.0,0.0,0.0,0.0,0.0,0.0,0.0,0.0,0.0,0.0,0.0,0.0,0.0,0.0,0.0,0.0,0.0,0.0,0.0,0.0,0.0,0.0,7.4793,7.4551,7.4294,7.3377,7.1784,7.2004,7.1505,7.011,7.0403,7.055,7.055,7.055,7.0367,7.0073,6.9559,6.9192,6.8848,6.8348,6.7958,6.77,6.77,6.77,6.77,6.77,6.8201,6.8885,6.8885,6.9195,6.961,6.961,6.9523,6.9385,6.9385,6.9537,6.9708,6.9708,6.944,6.9021,6.8381,6.795,6.7561,6.6946,6.7151,6.7658,6.8166,6.8098,6.8335,6.9879,6.9823,6.9857,7.1052,7.0703,7.0331,7.0838,7.0906,7.0906,7.0906,7.1142,7.1289,7.1289,7.1289,7.1289,7.1289,7.1289,7.1289,7.1289,7.1289,7.1289,7.1289,7.1289,7.1289,7.1289,7.1289,7.1176,7.0906,7.0432,6.9586,6.8335,6.7793,6.7421,6.7184,6.6927,6.7028,3.6751,0.0,0.0,0.0,0.0,5.441,5.9281,0.0,0.0,0.0,0.0,0.0,0.0,0.0,0.0,0.0,0.0,0.0,0.0,0.0,0.0,0.0,0.0,0.0,0.0,0.0,0.0,0.0,0.0,0.0,7.334,7.3046,7.2275,7.094,7.0353,7.011,7.011,6.9816,6.9706,6.9706,6.9706,6.9559,6.9279,6.8752,6.8495,6.8458,6.7921,6.77,6.77,6.77,6.77,6.77,6.77,6.8017,6.8495,6.8495,6.8825,6.9265,6.9265,6.9587,6.9981,6.9981,7.0261,7.0635,7.0635,7.0417,7.0022,6.9351,6.8688,6.8068,6.742,6.7594,6.8098,6.891,6.8707,6.8639,6.9925,6.9823,6.9823,7.1052,7.0906,7.0737,7.1222,7.1289,7.1289,7.1289,7.1289,7.1289,7.1289,7.1289,7.1289,7.1289,7.1289,7.1289,7.1289,7.1289,7.1289,7.1289,7.1289,7.1289,7.1289,7.1289,7.1289,7.1289,7.0804,6.9925,6.8673,6.8402,6.8064,6.7569,6.7569,6.7827,0.0,0.0,0.0,0.0,0.0,0.0,5.5354,0.0,0.0,0.0,0.0,0.0,0.0,0.0,0.0,0.0,0.0,0.0,0.0,0.0,0.0,0.0,0.0,0.0,0.0,0.0,0.0,0.0,7.3325,7.2459,7.2422,7.1674,7.0866,7.0073,6.8545,6.8435,7.0,6.9265,6.8848,6.8848,6.8848,6.8458,6.77,6.77,6.77,6.77,6.77,6.77,6.77,6.77,6.77,6.77,6.77,6.77,6.77,6.77,6.77,6.77,6.77,6.8765,7.011,7.011,7.1174,7.2496,7.2496,7.1854,7.1143,7.1127,6.9743,6.8266,6.8316,6.8104,6.8132,6.9021,6.9168,6.9316,7.006,7.0251,7.0432,7.1176,7.1289,7.1289,7.1289,7.1289,7.1289,7.1289,7.1289,7.1289,7.1289,7.1289,7.1289,7.1289,7.1289,7.1289,7.1289,7.1289,7.1289,7.1289,7.1289,7.1289,7.1289,7.1289,7.1289,7.1289,7.1289,7.0939,7.0217,6.9485,6.9113,6.9113,6.9113,6.9147,3.2552,0.0,0.0,0.0,0.0,0.0,0.0,0.0,0.0,0.0,0.0,0.0,0.0,0.0,0.0,0.0,0.0,0.0,0.0,0.0,0.0,0.0,0.0,0.0,0.0,0.0,0.0,0.0,7.1894,7.1394,7.0807,7.0,6.9472,6.9229,6.8251,6.7921,6.8361,6.8128,6.8017,6.8017,6.8017,6.7921,6.77,6.77,6.77,6.77,6.77,6.77,6.77,6.77,6.77,6.77,6.77,6.77,6.77,6.77,6.77,6.77,6.77,6.8765,7.011,7.011,7.1174,7.2496,7.2496,7.2314,7.1981,7.1286,7.0698,7.0393,7.0835,6.9874,6.9261,7.1288,7.0827,7.0094,7.0838,7.1007,7.1075,7.1255,7.1289,7.1289,7.1289,7.1289,7.1289,7.1289,7.1289,7.1289,7.1289,7.1289,7.1289,7.1289,7.1289,7.1289,7.1289,7.1289,7.1289,7.1289,7.1289,7.1289,7.1289,7.1289,7.1289,7.1289,7.1289,7.0939,7.0217,6.9992,6.962,6.9113,6.9654,6.9913,0.0,0.0,0.0,0.0,0.0,0.0,4.1911,4.4259,0.0,0.0,0.0,0.0,0.0,0.0,0.0,0.0,0.0,0.0,0.0,0.0,0.0,0.0,0.0,0.0,0.0,7.1064,7.0807,7.0807,7.0807,7.044,6.9633,6.8825,6.8385,6.8385,6.7958,6.77,6.77,6.77,6.77,6.77,6.77,6.7517,6.7187,6.7187,6.704,6.6733,6.704,6.7187,6.7223,6.7554,6.77,6.77,6.77,6.77,6.77,6.77,6.77,6.77,6.77,6.8545,6.9633,7.0,7.0954,7.2041,7.2422,7.2496,7.2394,7.1839,7.1381,7.1225,7.1819,7.0863,7.0227,7.2306,7.1692,7.077,7.1188,7.1289,7.1289,7.1289,7.1289,7.1289,7.1289,7.1289,7.1289,7.1289,7.1289,7.1289,7.1289,7.1289,7.1289,7.1289,7.1289,7.1289,7.1289,7.1289,7.1289,7.1289,7.1289,7.1289,7.1289,7.1289,7.1289,7.1289,7.1289,7.1086,7.0669,7.0669,7.0432,7.0026,7.0466,7.0669,0.0,0.0,0.0,0.0,0.0,0.0,4.1947,4.2241,4.3167,0.0,0.0,0.0,0.0,0.0,0.0,0.0,0.0,0.0,0.0,0.0,0.0,0.0,0.0,0.0,6.9743,6.9743,6.9706,6.9706,6.9706,6.9412,6.8788,6.8104,6.7664,6.759,6.759,6.7517,6.7444,6.7517,6.7517,6.7444,6.7517,6.7187,6.6512,6.6402,6.6035,6.5472,6.6109,6.6366,6.6439,6.7223,6.7627,6.77,6.77,6.77,6.77,6.77,6.77,6.77,6.77,6.8238,6.9009,6.9743,7.0513,7.1307,7.2129,7.2386,7.2386,7.2459,7.197,7.149,7.2157,7.1552,7.1134,7.2594,7.212,7.1289,7.1289,7.1289,7.1289,7.1289,7.1289,7.1289,7.1289,7.1289,7.1289,7.1289,7.1289,7.1289,7.1289,7.1289,7.1289,7.1289,7.1289,7.1289,7.1289,7.1289,7.1289,7.1289,7.1289,7.1289,7.1289,7.1289,7.1289,7.1289,7.1289,7.1289,7.1289,7.1289,7.1289,7.1289,7.1289,7.1289,0.0,0.0,0.0,0.0,0.0,0.0,3.5085,3.4711,3.5635,0.0,0.0,0.0,0.0,0.0,0.0,0.0,0.0,0.0,0.0,0.0,0.0,0.0,0.0,0.0,6.8031,6.7577,6.721,6.721,6.721,6.743,6.7921,6.7811,6.7407,6.6733,6.6733,6.6402,6.5765,6.6402,6.6402,6.5778,6.6402,6.6659,6.6476,6.5852,6.5802,6.6256,6.5742,6.5508,6.5582,6.6402,6.71,6.77,6.77,6.77,6.77,6.77,6.77,6.77,6.77,6.8238,6.8921,6.9082,6.9669,7.0477,7.127,7.1527,7.1674,7.2312,7.2704,7.3143,7.4087,7.335,7.262,7.3721,7.2624,7.1289,7.1289,7.1289,7.1289,7.1289,7.1289,7.1289,7.1289,7.1289,7.1289,7.1289,7.1289,7.1289,7.1289,7.1289,7.1289,7.1289,7.1289,7.1289,7.1289,7.1289,7.1289,7.1289,7.1289,7.1289,7.1289,7.1289,7.1289,7.1289,7.1289,7.1289,7.1289,7.1289,7.1289,7.1289,7.1289,7.1289,0.0,0.0,0.0,3.3917,0.0,0.0,0.0,3.3793,3.4491,3.6971,0.0,0.0,0.0,0.0,0.0,0.0,0.0,0.0,0.0,0.0,0.0,0.0,0.0,0.0,6.5755,6.5534,6.5485,6.5888,6.5888,6.6072,6.6476,6.6512,6.6329,6.5925,6.5888,6.5692,6.5288,6.5705,6.5888,6.5888,6.5888,6.5888,6.5888,6.5081,6.4677,6.4677,6.4677,6.4714,6.4787,6.5999,6.6733,6.715,6.7554,6.77,6.77,6.77,6.77,6.77,6.77,6.7958,6.8385,6.8788,6.9449,7.0257,7.105,7.1564,7.2078,7.2863,7.33,7.3837,7.518,7.4237,7.3179,7.4087,7.277,7.1289,7.1289,7.1289,7.1289,7.1289,7.1289,7.1289,7.1289,7.1289,7.1289,7.1289,7.1289,7.1289,7.1289,7.1289,7.1289,7.1289,7.1289,7.1289,7.1289,7.1289,7.1289,7.1289,7.1289,7.1289,7.1289,7.1289,7.1289,7.1289,7.1289,7.1289,7.1289,7.1289,7.1289,7.1289,7.1289,7.1289,0.0,0.0,0.0,0.0,0.0,3.4431,0.0,0.0,0.0,3.5686,0.0,0.0,0.0,0.0,0.0,0.0,0.0,0.0,0.0,0.0,0.0,0.0,0.0,0.0,0.0,6.2414,6.2952,6.4701,6.4114,6.415,6.5251,6.5288,6.5215,6.5068,6.5081,6.4995,6.4811,6.4995,6.5301,6.5778,6.5301,6.5081,6.5044,6.4237,6.3576,6.3086,6.3613,6.3833,6.398,6.5595,6.6256,6.6366,6.7333,6.77,6.77,6.77,6.77,6.77,6.77,6.77,6.7847,6.8641,6.9559,7.044,7.1087,7.1857,7.2679,7.345,7.3817,7.4258,7.5726,7.4858,7.3736,7.4187,7.29,7.1546,7.1356,7.1289,7.1289,7.1289,7.1289,7.1289,7.1289,7.1289,7.1289,7.1289,7.1289,7.1289,7.1289,7.1289,7.1289,7.1289,7.1289,7.1289,7.1289,7.1289,7.1289,7.1289,7.1289,7.1289,7.1289,7.1289,7.1289,7.1289,7.1289,7.1289,7.1289,7.1289,7.1289,7.1289,7.1289,7.1289,0.0,0.0,0.0,0.0,3.4945,0.0,0.0,0.0,3.2326,3.0381,0.0,0.0,0.0,0.0,0.0,0.0,0.0,0.0,0.0,0.0,0.0,0.0,0.0,0.0,0.0,5.6345,5.7629,6.2683,5.9783,5.9967,6.5031,6.5288,6.4971,6.4237,6.4249,6.387,6.3086,6.3833,6.3906,6.3233,6.3906,6.4249,6.4213,6.3356,6.3319,6.3919,6.3233,6.2939,6.3086,6.4738,6.5435,6.5582,6.7113,6.77,6.77,6.77,6.77,6.77,6.77,6.77,6.7847,6.8641,6.9912,7.1197,7.127,7.1857,7.2679,7.345,7.4221,7.4992,7.5873,7.579,7.5279,7.4498,7.3452,7.2406,7.1501,7.1289,7.1289,7.1289,7.1289,7.1289,7.1289,7.1289,7.1289,7.1289,7.1289,7.1289,7.1289,7.1289,7.1289,7.1289,7.1289,7.1289,7.1289,7.1289,7.1289,7.1289,7.1289,7.1289,7.1289,7.1289,7.1289,7.1289,7.1289,7.1289,7.1289,7.1289,7.1289,7.1289,7.1289,7.1289,0.0,0.0,0.0,0.0,0.0,0.0,0.0,0.0,3.1347,0.0,0.0,0.0,0.0,0.0,0.0,0.0,0.0,0.0,0.0,0.0,0.0,0.0,0.0,0.0,0.0,0.0,0.0,0.0,5.6884,5.7483,6.2205,6.2915,6.3209,6.3356,6.3356,6.3172,6.2793,6.316,6.3429,6.3539,6.3429,6.3613,6.4066,6.3209,6.3013,6.3319,6.2976,6.2793,6.2903,6.4127,6.4897,6.5398,6.6549,6.7297,6.77,6.77,6.77,6.77,6.77,6.77,6.7921,6.9192,7.0353,7.138,7.1857,7.2239,7.2679,7.345,7.4294,7.5087,7.5909,7.5944,7.5684,7.5245,7.3966,7.2673,7.2257,7.171,7.1289,7.1289,7.1289,7.1289,7.1289,7.1289,7.1289,7.1289,7.1289,7.1289,7.1289,7.1289,7.1289,7.1289,7.1289,7.1289,7.1289,7.1289,7.1289,7.1289,7.1289,7.1289,7.1289,7.1289,7.1289,7.1289,7.1289,7.1289,7.1289,7.1289,7.1289,7.1289,7.1289,7.1289,3.4057,0.0,0.0,0.0,0.0,0.0,0.0,0.0,0.0,0.0,0.0,0.0,0.0,0.0,0.0,0.0,0.0,0.0,0.0,0.0,0.0,0.0,0.0,0.0,0.0,0.0,0.0,0.0,0.0,5.3849,5.9428,6.0529,6.141,6.2426,6.2683,6.2793,6.2793,6.2793,6.3123,6.3723,6.3086,6.3123,6.3723,6.3086,6.2793,6.2793,6.2793,6.2793,6.2866,6.398,6.4787,6.5398,6.6439,6.7187,6.77,6.77,6.77,6.77,6.77,6.7994,6.8545,6.9706,7.0807,7.1747,7.2312,7.2496,7.2716,7.3744,7.4441,7.5124,7.6166,7.6339,7.6128,7.5874,7.4684,7.3492,7.2921,7.2215,7.1622,7.1356,7.1289,7.1289,7.1289,7.1289,7.1289,7.1289,7.1289,7.1289,7.1289,7.1289,7.1289,7.1289,7.1289,7.1289,7.1289,7.1289,7.1289,7.1289,7.1289,7.1289,7.1289,7.1289,7.1289,7.1289,7.1289,7.1289,7.1289,7.1289,7.1289,7.1289,7.1289,7.1289,0.0,0.0,0.0,3.3647,0.0,0.0,0.0,0.0,3.3256,0.0,0.0,0.0,0.0,0.0,0.0,0.0,0.0,0.0,0.0,0.0,0.0,0.0,0.0,0.0,0.0,0.0,0.0,0.0,0.0,0.0,5.7556,5.8829,6.0003,6.1594,6.2389,6.2793,6.2793,6.2793,6.2793,6.2829,6.2793,6.2793,6.2829,6.2793,6.2793,6.2793,6.2793,6.2793,6.2939,6.4591,6.5288,6.5472,6.7026,6.7664,6.77,6.77,6.77,6.77,6.77,6.8728,7.0036,7.0073,7.1174,7.2459,7.2496,7.2496,7.2826,7.4426,7.4867,7.527,7.6848,7.7258,7.7003,7.6027,7.5735,7.5156,7.3212,7.2756,7.2456,7.1501,7.1289,7.1289,7.1289,7.1289,7.1289,7.1289,7.1289,7.1289,7.1289,7.1289,7.1289,7.1289,7.1289,7.1289,7.1289,7.1289,7.1289,7.1289,7.1289,7.1289,7.1289,7.1289,7.1289,7.1289,7.1289,7.1289,7.1289,7.1289,7.1289,7.1289,7.1289,7.1289,0.0,0.0,4.3048,3.791,0.0,0.0,0.0,0.0,0.0,0.0,0.0,0.0,0.0,0.0,0.0,0.0,0.0,0.0,0.0,0.0,0.0,0.0,0.0,0.0,0.0,0.0,0.0,0.0,0.0,0.0,0.0,5.6884,5.8352,5.9967,6.13,6.1998,6.1998,6.1998,6.2291,6.2793,6.1728,6.1471,6.1998,6.1998,6.1998,6.2034,6.2572,6.2793,6.2903,6.4016,6.4824,6.5398,6.6476,6.7223,6.77,6.77,6.8031,6.8568,6.9082,7.0,7.0866,7.0866,7.16,7.2496,7.2496,7.2496,7.2716,7.3817,7.4478,7.516,7.6225,7.6885,7.7212,7.6856,7.628,7.5614,7.494,7.4272,7.3709,7.3332,7.3307,7.3307,7.3307,7.2749,7.2077,7.1424,7.1289,7.1289,7.1289,7.1289,7.1289,7.1289,7.1289,7.1289,7.1289,7.1289,7.1289,7.1289,7.1289,7.1289,7.1289,7.1289,7.1289,7.1289,7.1289,7.1289,7.1289,7.1289,7.1289,7.1289,7.1289,7.1289,4.2975,4.514,0.0,4.1589,4.1589,0.0,3.5686,0.0,0.0,0.0,0.0,0.0,0.0,0.0,0.0,0.0,0.0,0.0,0.0,2.9464,0.0,0.0,0.0,0.0,0.0,0.0,0.0,0.0,0.0,0.0,0.0,0.0,5.6811,5.8719,6.0603,6.1606,6.1606,6.1606,6.1851,6.2352,6.1043,6.0676,6.119,6.1484,6.1606,6.163,6.2426,6.2793,6.2866,6.3723,6.4567,6.5362,6.6182,6.7003,6.77,6.77,6.8201,6.9009,6.9816,7.0624,7.1307,7.1307,7.1821,7.2496,7.2496,7.2496,7.2679,7.345,7.4294,7.5087,7.5909,7.6702,7.7289,7.7289,7.6808,7.6247,7.5891,7.5299,7.472,7.4367,7.4291,7.4291,7.4291,7.3753,7.3003,7.1969,7.1546,7.1289,7.1289,7.1289,7.1289,7.1289,7.1289,7.1289,7.1289,7.1289,7.1289,7.1289,7.1289,7.1289,7.1289,7.1289,7.1548,7.209,7.156,7.1582,7.209,7.1582,7.1289,7.1289,7.1289,7.1289]}]]